[[{"header":{"parameterUnit":"m.s-1","parameterCategory":1,"la1":31.0,"la2":29.5877,"lo1":-88.7671,"lo2":-86.6584,"dy":0.0162,"dx":0.0185,"nx":115,"ny":88,"refTime":"2023-06-30T18:00:00:Z","depth":0,"parameterNumber":2,"parameterNumberName":"U-component_of_WINDS"},"data":[0.0,0.0,0.0,0.0,0.0,0.0,0.0,0.0,0.0,0.0,0.0,0.0,0.0,0.0,0.0,0.0,0.0,0.0,0.0,0.0,0.0,0.0,0.0,0.0,0.0,0.0,0.0,0.0,0.0,0.0,0.0,0.0,0.0,0.0,0.0,0.0,0.0,0.0,0.0,0.0,0.0,0.0,0.0,0.0,0.0,0.0,0.0,0.0,0.0,0.0,0.0,0.0,0.0,0.0,0.0,0.0,0.0,0.0,0.0,0.0,0.0,0.0,0.0,0.0,0.0,0.0,0.0,0.0,0.0,0.0,0.0,0.0,0.0,0.0,0.0,0.0,0.0,0.0,0.0,0.0,0.0,0.0,0.0,0.0,0.0,0.0,0.0,0.0,0.0,0.0,0.0,0.0,0.0,0.0,0.0,0.0,0.0,0.0,0.0,0.0,0.0,0.0,0.0,0.0,0.0,0.0,0.0,0.0,0.0,0.0,0.0,0.0,0.0,0.0,0.0,0.0,0.0,0.0,0.0,0.0,0.0,0.0,0.0,0.0,0.0,0.0,0.0,0.0,0.0,0.0,0.0,0.0,0.0,0.0,0.0,0.0,0.0,0.0,0.0,0.0,0.0,0.0,0.0,0.0,0.0,0.0,0.0,0.0,0.0,0.0,0.0,0.0,0.0,0.0,0.0,0.0,0.0,0.0,0.0,0.0,0.0,0.0,0.0,0.0,0.0,0.0,0.0,0.0,0.0,0.0,0.0,0.0,0.0,0.0,0.0,0.0,0.0,0.0,0.0,0.0,0.0,0.0,0.0,0.0,0.0,0.0,0.0,0.0,0.0,0.0,0.0,0.0,0.0,0.0,0.0,0.0,0.0,0.0,0.0,0.0,0.0,0.0,0.0,0.0,0.0,0.0,0.0,0.0,0.0,0.0,0.0,0.0,0.0,0.0,0.0,0.0,0.0,0.0,0.0,0.0,0.0,0.0,0.0,0.0,0.0,0.0,0.0,0.0,0.0,0.0,0.0,0.0,0.0,0.0,0.0,0.0,0.0,0.0,0.0,0.0,0.0,0.0,0.0,0.0,0.0,0.0,0.0,0.0,0.0,0.0,0.0,0.0,0.0,0.0,0.0,0.0,0.0,0.0,0.0,0.0,0.0,0.0,0.0,0.0,0.0,0.0,0.0,0.0,0.0,0.0,0.0,0.0,0.0,0.0,0.0,0.0,0.0,0.0,0.0,0.0,0.0,0.0,0.0,0.0,0.0,0.0,0.0,0.0,0.0,0.0,0.0,0.0,0.0,0.0,0.0,0.0,0.0,0.0,0.0,0.0,0.0,0.0,0.0,0.0,0.0,0.0,0.0,0.0,0.0,0.0,0.0,0.0,0.0,0.0,0.0,0.0,0.0,0.0,0.0,0.0,0.0,0.0,0.0,0.0,0.0,0.0,0.0,0.0,0.0,0.0,0.0,0.0,0.0,0.0,0.0,0.0,0.0,0.0,0.0,0.0,0.0,0.0,0.0,0.0,0.0,0.0,0.0,0.0,0.0,0.0,0.0,0.0,0.0,0.0,0.0,0.0,0.0,0.0,0.0,0.0,0.0,0.0,0.0,0.0,0.0,0.0,0.0,0.0,0.0,0.0,0.0,0.0,0.0,0.0,0.0,0.0,0.0,0.0,0.0,0.0,0.0,0.0,0.0,0.0,0.0,0.0,0.0,0.0,0.0,0.0,0.0,0.0,0.0,0.0,0.0,0.0,0.0,0.0,0.0,0.0,0.0,0.0,0.0,0.0,0.0,0.0,0.0,0.0,0.0,0.0,0.0,0.0,0.0,0.0,0.0,0.0,0.0,0.0,0.0,0.0,0.0,0.0,0.0,0.0,0.0,0.0,0.0,0.0,0.0,0.0,0.0,0.0,0.0,0.0,0.0,0.0,0.0,0.0,0.0,0.0,0.0,0.0,0.0,0.0,0.0,0.0,0.0,0.0,0.0,0.0,0.0,0.0,0.0,0.0,0.0,0.0,0.0,0.0,0.0,0.0,0.0,0.0,0.0,0.0,0.0,0.0,0.0,0.0,0.0,0.0,0.0,0.0,0.0,0.0,0.0,0.0,0.0,0.0,0.0,0.0,0.0,0.0,0.0,0.0,0.0,0.0,0.0,0.0,0.0,0.0,0.0,0.0,0.0,0.0,0.0,0.0,0.0,0.0,0.0,0.0,0.0,0.0,0.0,0.0,0.0,0.0,0.0,0.0,0.0,0.0,0.0,0.0,0.0,0.0,0.0,0.0,0.0,0.0,0.0,0.0,0.0,0.0,0.0,0.0,0.0,0.0,0.0,0.0,0.0,0.0,0.0,0.0,0.0,0.0,0.0,0.0,0.0,0.0,0.0,0.0,0.0,0.0,0.0,0.0,0.0,0.0,0.0,0.0,0.0,0.0,0.0,0.0,0.0,0.0,0.0,0.0,0.0,0.0,0.0,0.0,0.0,0.0,0.0,0.0,0.0,0.0,0.0,0.0,0.0,0.0,0.0,0.0,0.0,0.0,0.0,0.0,0.0,0.0,0.0,0.0,0.0,0.0,0.0,0.0,0.0,0.0,0.0,0.0,0.0,0.0,0.0,0.0,0.0,0.0,0.0,0.0,0.0,0.0,0.0,0.0,0.0,0.0,0.0,0.0,0.0,0.0,0.0,0.0,0.0,0.0,0.0,0.0,0.0,0.0,0.0,0.0,0.0,0.0,0.0,0.0,0.0,0.0,0.0,0.0,0.0,0.0,0.0,0.0,0.0,0.0,0.0,0.0,0.0,0.0,0.0,0.0,0.0,0.0,0.0,0.0,0.0,0.0,0.0,0.0,0.0,0.0,0.0,0.0,0.0,0.0,0.0,0.0,0.0,0.0,0.0,0.0,0.0,0.0,0.0,0.0,0.0,0.0,0.0,0.0,0.0,0.0,0.0,0.0,0.0,0.0,0.0,0.0,0.0,0.0,0.0,0.0,0.0,0.0,0.0,0.0,0.0,0.0,0.0,0.0,0.0,0.0,0.0,0.0,0.0,0.0,0.0,0.0,0.0,0.0,0.0,0.0,0.0,0.0,0.0,0.0,0.0,0.0,0.0,0.0,0.0,0.0,0.0,0.0,0.0,0.0,0.0,0.0,0.0,0.0,0.0,0.0,0.0,0.0,0.0,0.0,0.0,0.0,0.0,0.0,0.0,0.0,0.0,0.0,0.0,0.0,0.0,0.0,0.0,0.0,0.0,0.0,0.0,0.0,0.0,0.0,0.0,0.0,0.0,0.0,0.0,0.0,0.0,0.0,0.0,0.0,0.0,0.0,0.0,0.0,0.0,0.0,0.0,0.0,0.0,0.0,0.0,0.0,0.0,0.0,0.0,0.0,0.0,0.0,0.0,0.0,0.0,0.0,0.0,0.0,0.0,0.0,0.0,0.0,0.0,0.0,0.0,0.0,0.0,0.0,0.0,0.0,0.0,0.0,0.0,0.0,0.0,0.0,0.0,0.0,0.0,0.0,0.0,0.0,0.0,0.0,0.0,0.0,0.0,0.0,0.0,0.0,0.0,0.0,0.0,0.0,0.0,0.0,0.0,0.0,0.0,0.0,0.0,0.0,0.0,0.0,0.0,0.0,0.0,0.0,0.0,0.0,0.0,0.0,0.0,0.0,0.0,0.0,0.0,0.0,0.0,0.0,0.0,0.0,0.0,0.0,0.0,0.0,0.0,0.0,0.0,0.0,0.0,0.0,0.0,0.0,0.0,0.0,0.0,0.0,0.0,0.0,0.0,0.0,0.0,0.0,0.0,0.0,0.0,0.0,0.0,0.0,0.0,0.0,0.0,0.0,0.0,0.0,0.0,0.0,0.0,0.0,0.0,0.0,0.0,0.0,0.0,0.0,0.0,0.0,0.0,0.0,0.0,0.0,0.0,0.0,0.0,0.0,0.0,0.0,0.0,0.0,0.0,0.0,0.0,0.0,0.0,0.0,0.0,0.0,0.0,0.0,0.0,0.0,0.0,0.0,0.0,0.0,0.0,0.0,0.0,0.0,0.0,0.0,0.0,0.0,0.0,0.0,0.0,0.0,0.0,0.0,0.0,0.0,0.0,0.0,0.0,0.0,0.0,0.0,0.0,0.0,0.0,0.0,0.0,0.0,0.0,0.0,0.0,0.0,0.0,0.0,0.0,0.0,0.0,0.0,0.0,0.0,0.0,0.0,0.0,0.0,0.0,0.0,0.0,0.0,0.0,0.0,0.0,0.0,0.0,0.0,-0.9408,0.0,0.0,0.0,0.0,0.0,0.0,0.0,0.0,0.0,0.0,0.0,0.0,0.0,0.0,0.0,0.0,0.0,0.0,0.0,0.0,0.0,0.0,0.0,0.0,0.0,0.0,0.0,0.0,0.0,0.0,0.0,0.0,0.0,0.0,0.0,0.0,0.0,0.0,0.0,0.0,0.0,0.0,0.0,0.0,0.0,0.0,0.0,0.0,0.0,0.0,0.0,0.0,0.0,0.0,0.0,0.0,0.0,0.0,0.0,0.0,0.0,0.0,0.0,0.0,0.0,0.0,0.0,0.0,0.0,0.0,0.0,0.0,0.0,0.0,0.0,0.0,0.0,0.0,0.0,0.0,0.0,0.0,0.0,0.0,0.0,0.0,0.0,0.0,0.0,0.0,0.0,0.0,0.0,0.0,0.0,0.0,0.0,0.0,0.0,0.0,0.0,0.0,0.0,0.0,0.0,0.0,0.0,0.0,0.0,0.0,-0.9168,-0.9248,-0.9248,-0.9248,-0.9288,0.0,0.0,0.0,0.0,0.0,0.0,0.0,0.0,0.0,0.0,0.0,0.0,0.0,0.0,0.0,0.0,0.0,0.0,0.0,0.0,0.0,0.0,0.0,0.0,0.0,0.0,0.0,0.0,0.0,0.0,0.0,0.0,0.0,0.0,0.0,0.0,0.0,0.0,0.0,0.0,0.0,0.0,0.0,0.0,0.0,0.0,0.0,0.0,0.0,0.0,0.0,0.0,0.0,0.0,0.0,0.0,0.0,0.0,0.0,0.0,0.0,0.0,0.0,0.0,0.0,0.0,0.0,0.0,0.0,0.0,0.0,0.0,0.0,0.0,0.0,0.0,0.0,0.0,0.0,0.0,0.0,0.0,0.0,0.0,0.0,0.0,0.0,0.0,0.0,0.0,0.0,0.0,0.0,0.0,0.0,0.0,0.0,0.0,0.0,0.0,0.0,0.0,0.0,0.0,0.0,0.0,0.0,0.0,0.0,0.0,0.0,0.0,-0.9096,-0.9128,-0.9159,0.0,0.0,0.0,0.0,0.0,0.0,0.0,0.0,0.0,0.0,0.0,0.0,0.0,0.0,0.0,0.0,0.0,0.0,0.0,0.0,0.0,0.0,0.0,0.0,0.0,0.0,0.0,0.0,0.0,0.0,0.0,0.0,0.0,0.0,0.0,0.0,0.0,0.0,0.0,0.0,0.0,0.0,0.0,0.0,0.0,0.0,0.0,0.0,0.0,0.0,0.0,0.0,0.0,0.0,0.0,0.0,0.0,0.0,0.0,0.0,0.0,0.0,0.0,0.0,0.0,0.0,0.0,0.0,0.0,0.0,0.0,0.0,0.0,0.0,0.0,0.0,0.0,0.0,0.0,0.0,0.0,0.0,0.0,0.0,0.0,0.0,0.0,0.0,0.0,0.0,0.0,0.0,0.0,0.0,0.0,0.0,0.0,0.0,0.0,0.0,0.0,0.0,0.0,0.0,0.0,0.0,0.0,0.0,0.0,0.0,-0.8862,-0.8765,-0.8773,0.0,-0.8756,0.0,0.0,0.0,0.0,0.0,0.0,0.0,0.0,0.0,0.0,0.0,0.0,0.0,0.0,0.0,0.0,0.0,0.0,0.0,0.0,0.0,0.0,0.0,0.0,0.0,0.0,0.0,0.0,0.0,0.0,0.0,0.0,0.0,0.0,0.0,0.0,0.0,0.0,0.0,0.0,0.0,0.0,0.0,0.0,0.0,0.0,0.0,0.0,0.0,0.0,0.0,0.0,0.0,0.0,0.0,0.0,0.0,0.0,0.0,0.0,0.0,0.0,0.0,0.0,0.0,0.0,0.0,0.0,0.0,0.0,0.0,0.0,0.0,0.0,0.0,0.0,0.0,0.0,0.0,0.0,0.0,0.0,0.0,0.0,0.0,0.0,0.0,0.0,0.0,0.0,0.0,0.0,0.0,0.0,0.0,0.0,0.0,0.0,0.0,0.0,0.0,0.0,0.0,0.0,0.0,0.0,0.0,0.0,0.0,0.0,-0.9344,-0.9284,-0.9284,-0.9185,0.0,0.0,0.0,0.0,0.0,0.0,0.0,0.0,0.0,0.0,0.0,0.0,0.0,0.0,0.0,0.0,0.0,0.0,0.0,0.0,0.0,0.0,0.0,0.0,0.0,0.0,0.0,0.0,0.0,0.0,0.0,0.0,0.0,0.0,0.0,0.0,0.0,0.0,0.0,0.0,0.0,0.0,0.0,0.0,0.0,0.0,0.0,0.0,0.0,0.0,0.0,0.0,0.0,0.0,0.0,0.0,0.0,0.0,0.0,0.0,0.0,0.0,0.0,0.0,0.0,0.0,0.0,0.0,0.0,0.0,0.0,0.0,0.0,0.0,0.0,0.0,0.0,0.0,0.0,0.0,0.0,0.0,0.0,0.0,0.0,0.0,0.0,0.0,0.0,0.0,0.0,0.0,0.0,0.0,0.0,0.0,0.0,0.0,0.0,0.0,0.0,0.0,0.0,0.0,0.0,0.0,0.0,0.0,0.0,0.0,-0.969,-0.9644,-0.959,-0.959,-0.9468,-0.9173,0.0,0.0,0.0,0.0,0.0,0.0,0.0,0.0,0.0,0.0,0.0,0.0,0.0,0.0,0.0,0.0,0.0,0.0,0.0,0.0,0.0,0.0,0.0,0.0,0.0,0.0,0.0,0.0,0.0,0.0,0.0,0.0,0.0,0.0,0.0,0.0,0.0,0.0,0.0,0.0,0.0,0.0,0.0,0.0,0.0,0.0,0.0,0.0,0.0,0.0,0.0,0.0,0.0,0.0,0.0,0.0,0.0,0.0,0.0,0.0,0.0,0.0,0.0,0.0,0.0,0.0,0.0,0.0,0.0,0.0,0.0,0.0,0.0,0.0,0.0,0.0,0.0,0.0,0.0,0.0,0.0,0.0,0.0,0.0,0.0,0.0,0.0,0.0,0.0,0.0,0.0,0.0,0.0,0.0,0.0,0.0,0.0,0.0,0.0,0.0,0.0,0.0,0.0,0.0,0.0,0.0,0.0,0.0,-0.9638,-0.963,-0.9468,-0.9283,-0.9352,-0.9306,0.0,0.0,0.0,0.0,0.0,0.0,0.0,0.0,0.0,0.0,0.0,0.0,0.0,0.0,0.0,0.0,0.0,0.0,0.0,0.0,0.0,0.0,0.0,0.0,0.0,0.0,0.0,0.0,0.0,0.0,0.0,0.0,0.0,0.0,0.0,0.0,0.0,0.0,0.0,0.0,0.0,0.0,0.0,0.0,0.0,0.0,0.0,0.0,0.0,0.0,0.0,0.0,0.0,0.0,0.0,0.0,0.0,0.0,0.0,0.0,0.0,0.0,0.0,0.0,0.0,0.0,0.0,0.0,0.0,0.0,0.0,0.0,0.0,0.0,0.0,0.0,0.0,0.0,0.0,0.0,0.0,0.0,0.0,0.0,0.0,0.0,0.0,0.0,0.0,0.0,0.0,0.0,0.0,0.0,0.0,0.0,0.0,0.0,0.0,0.0,0.0,0.0,0.0,0.0,0.0,0.0,0.0,0.0,0.0,-0.9998,-0.9891,-0.9833,-0.9734,-0.9734,-0.9634,0.0,0.0,0.0,0.0,0.0,0.0,0.0,0.0,0.0,0.0,0.0,0.0,0.0,0.0,0.0,0.0,0.0,0.0,0.0,0.0,0.0,0.0,0.0,0.0,0.0,0.0,0.0,0.0,0.0,0.0,0.0,0.0,0.0,0.0,0.0,0.0,0.0,0.0,0.0,0.0,0.0,0.0,0.0,0.0,0.0,0.0,0.0,0.0,0.0,0.0,0.0,0.0,0.0,0.0,0.0,0.0,0.0,0.0,0.0,0.0,0.0,0.0,0.0,0.0,0.0,0.0,0.0,0.0,0.0,0.0,0.0,0.0,0.0,0.0,0.0,0.0,0.0,0.0,0.0,0.0,0.0,0.0,0.0,0.0,0.0,0.0,0.0,0.0,0.0,0.0,0.0,0.0,0.0,0.0,0.0,0.0,0.0,0.0,0.0,0.0,0.0,0.0,0.0,0.0,0.0,0.0,0.0,0.0,0.0,-1.0146,0.0,-0.9999,-0.9947,-0.9999,-0.9841,0.0,0.0,0.0,0.0,0.0,0.0,0.0,0.0,0.0,0.0,0.0,0.0,0.0,0.0,0.0,0.0,0.0,0.0,0.0,0.0,0.0,0.0,0.0,0.0,0.0,0.0,0.0,0.0,0.0,0.0,0.0,0.0,0.0,0.0,0.0,0.0,0.0,0.0,0.0,0.0,0.0,0.0,0.0,0.0,0.0,0.0,0.0,0.0,0.0,0.0,0.0,0.0,0.0,0.0,0.0,0.0,0.0,0.0,0.0,0.0,0.0,0.0,0.0,0.0,0.0,0.0,0.0,0.0,0.0,0.0,0.0,0.0,0.0,0.0,0.0,0.0,0.0,0.0,0.0,0.0,0.0,0.0,0.0,0.0,0.0,0.0,0.0,0.0,0.0,0.0,0.0,0.0,0.0,0.0,0.0,0.0,0.0,0.0,0.0,0.0,0.0,0.0,0.0,0.0,0.0,0.0,0.0,0.0,-0.9999,-1.0007,-0.9999,-0.9947,-0.9799,-0.9895,-0.9888,0.0,0.0,0.0,0.0,0.0,0.0,0.0,0.0,0.0,0.0,0.0,0.0,0.0,0.0,0.0,0.0,0.0,0.0,0.0,0.0,0.0,0.0,0.0,0.0,0.0,0.0,0.0,0.0,0.0,0.0,0.0,0.0,0.0,0.0,0.0,0.0,0.0,0.0,0.0,0.0,0.0,0.0,0.0,0.0,0.0,0.0,0.0,0.0,0.0,0.0,0.0,0.0,0.0,0.0,0.0,0.0,0.0,0.0,0.0,0.0,0.0,0.0,0.0,0.0,0.0,0.0,0.0,0.0,0.0,0.0,0.0,0.0,0.0,0.0,0.0,0.0,0.0,0.0,0.0,0.0,0.0,0.0,0.0,0.0,0.0,0.0,0.0,0.0,0.0,0.0,0.0,0.0,0.0,0.0,0.0,0.0,0.0,0.0,0.0,0.0,0.0,0.0,0.0,0.0,0.0,0.0,0.0,0.0,0.0,-0.9851,-0.9784,-0.9725,-0.9681,-0.9666,-0.9666,0.0,0.0,0.0,0.0,0.0,0.0,0.0,0.0,0.0,0.0,0.0,0.0,0.0,0.0,0.0,0.0,0.0,0.0,0.0,0.0,0.0,0.0,0.0,0.0,0.0,0.0,0.0,0.0,0.0,0.0,0.0,0.0,0.0,0.0,0.0,0.0,0.0,0.0,0.0,0.0,0.0,0.0,0.0,0.0,0.0,0.0,0.0,0.0,0.0,0.0,0.0,0.0,0.0,0.0,0.0,0.0,0.0,0.0,0.0,0.0,0.0,0.0,0.0,0.0,0.0,0.0,0.0,0.0,0.0,0.0,0.0,0.0,0.0,0.0,0.0,0.0,0.0,0.0,0.0,0.0,0.0,0.0,0.0,0.0,0.0,0.0,0.0,0.0,0.0,0.0,0.0,0.0,0.0,0.0,0.0,0.0,0.0,0.0,0.0,0.0,0.0,0.0,0.0,0.0,0.0,0.0,0.0,0.0,0.0,-1.0095,-0.9923,-0.9797,-0.9797,-0.9797,-0.9738,-0.9621,0.0,0.0,0.0,0.0,0.0,0.0,0.0,0.0,0.0,0.0,0.0,0.0,0.0,0.0,0.0,0.0,0.0,0.0,0.0,0.0,0.0,0.0,0.0,0.0,0.0,0.0,0.0,0.0,0.0,0.0,0.0,0.0,0.0,0.0,0.0,0.0,0.0,0.0,0.0,0.0,0.0,0.0,0.0,0.0,0.0,0.0,0.0,0.0,0.0,0.0,0.0,0.0,0.0,0.0,0.0,0.0,0.0,0.0,0.0,0.0,0.0,0.0,0.0,0.0,0.0,0.0,0.0,0.0,0.0,0.0,0.0,0.0,0.0,0.0,0.0,0.0,0.0,0.0,0.0,0.0,0.0,0.0,0.0,0.0,0.0,0.0,0.0,0.0,0.0,0.0,0.0,0.0,0.0,0.0,0.0,0.0,0.0,0.0,0.0,0.0,0.0,0.0,0.0,0.0,0.0,0.0,0.0,0.0,-1.0609,-1.0316,-1.0148,-1.0126,-1.0126,-0.998,0.0,0.0,0.0,0.0,0.0,0.0,0.0,0.0,0.0,0.0,0.0,0.0,0.0,0.0,0.0,0.0,0.0,0.0,0.0,0.0,0.0,0.0,0.0,0.0,0.0,0.0,0.0,0.0,0.0,0.0,0.0,0.0,0.0,0.0,0.0,0.0,0.0,0.0,0.0,0.0,0.0,0.0,0.0,0.0,0.0,0.0,0.0,0.0,0.0,0.0,0.0,0.0,0.0,0.0,0.0,0.0,0.0,0.0,0.0,0.0,0.0,0.0,0.0,0.0,0.0,0.0,0.0,0.0,0.0,0.0,0.0,0.0,0.0,0.0,0.0,0.0,0.0,0.0,0.0,0.0,0.0,0.0,0.0,0.0,0.0,0.0,0.0,0.0,0.0,0.0,0.0,0.0,0.0,0.0,0.0,0.0,0.0,0.0,0.0,0.0,0.0,0.0,0.0,0.0,0.0,0.0,0.0,0.0,0.0,-1.0931,-1.0865,-1.0697,-1.047,-1.0463,-1.0419,0.0,0.0,0.0,0.0,0.0,0.0,0.0,0.0,0.0,0.0,0.0,0.0,0.0,0.0,0.0,0.0,0.0,0.0,0.0,0.0,0.0,0.0,0.0,0.0,0.0,0.0,0.0,0.0,0.0,0.0,0.0,0.0,0.0,0.0,0.0,0.0,0.0,0.0,0.0,0.0,0.0,0.0,0.0,0.0,0.0,0.0,0.0,0.0,0.0,0.0,0.0,0.0,0.0,0.0,0.0,0.0,0.0,0.0,0.0,0.0,0.0,0.0,0.0,0.0,0.0,0.0,0.0,0.0,0.0,0.0,0.0,0.0,0.0,0.0,0.0,0.0,0.0,0.0,0.0,0.0,0.0,0.0,0.0,0.0,0.0,0.0,0.0,0.0,0.0,0.0,0.0,0.0,0.0,0.0,0.0,0.0,0.0,0.0,0.0,0.0,0.0,0.0,0.0,0.0,0.0,0.0,0.0,0.0,-1.1085,-1.1336,-1.1282,-1.1194,-1.1063,-1.0858,-1.0726,0.0,0.0,0.0,0.0,0.0,0.0,0.0,0.0,0.0,0.0,0.0,0.0,0.0,0.0,0.0,0.0,0.0,0.0,0.0,0.0,0.0,0.0,0.0,0.0,0.0,0.0,0.0,0.0,0.0,0.0,0.0,0.0,0.0,0.0,0.0,0.0,0.0,0.0,0.0,0.0,0.0,0.0,0.0,0.0,0.0,0.0,0.0,0.0,0.0,0.0,0.0,0.0,0.0,0.0,0.0,0.0,0.0,0.0,0.0,0.0,0.0,0.0,0.0,0.0,0.0,0.0,0.0,0.0,0.0,0.0,0.0,0.0,0.0,0.0,0.0,0.0,0.0,0.0,0.0,0.0,0.0,0.0,0.0,0.0,0.0,0.0,0.0,0.0,0.0,0.0,0.0,0.0,0.0,0.0,0.0,0.0,0.0,0.0,0.0,0.0,0.0,0.0,0.0,0.0,0.0,0.0,0.0,0.0,-1.1622,-1.1622,-1.1622,-1.1622,-1.1615,-1.1343,-1.0989,0.0,0.0,0.0,0.0,0.0,0.0,0.0,0.0,0.0,0.0,0.0,0.0,0.0,0.0,0.0,0.0,0.0,0.0,0.0,0.0,0.0,0.0,0.0,0.0,0.0,0.0,0.0,0.0,0.0,0.0,0.0,0.0,0.0,0.0,0.0,0.0,0.0,0.0,0.0,0.0,0.0,0.0,0.0,0.0,0.0,0.0,0.0,0.0,0.0,0.0,0.0,0.0,0.0,0.0,0.0,0.0,0.0,0.0,0.0,0.0,0.0,0.0,0.0,0.0,0.0,0.0,0.0,0.0,0.0,0.0,0.0,0.0,0.0,0.0,0.0,0.0,0.0,0.0,0.0,0.0,0.0,0.0,0.0,0.0,0.0,0.0,0.0,0.0,0.0,0.0,0.0,0.0,0.0,0.0,0.0,0.0,0.0,0.0,0.0,0.0,0.0,0.0,0.0,0.0,0.0,0.0,0.0,0.0,-1.1622,-1.1622,-1.1622,-1.1622,-1.1622,-1.1556,-1.1428,0.0,0.0,0.0,0.0,0.0,0.0,0.0,0.0,0.0,0.0,0.0,0.0,0.0,0.0,0.0,0.0,0.0,0.0,0.0,0.0,0.0,0.0,0.0,0.0,0.0,0.0,0.0,0.0,0.0,0.0,0.0,0.0,0.0,0.0,0.0,0.0,0.0,0.0,0.0,0.0,0.0,0.0,0.0,0.0,0.0,0.0,0.0,0.0,-0.4325,0.0,0.0,0.0,0.0,0.0,0.0,0.0,0.0,0.0,0.0,0.0,0.0,0.0,0.0,0.0,0.0,0.0,0.0,0.0,0.0,0.0,0.0,0.0,0.0,0.0,0.0,0.0,0.0,0.0,0.0,0.0,0.0,0.0,0.0,0.0,0.0,0.0,0.0,0.0,0.0,0.0,0.0,0.0,0.0,0.0,0.0,0.0,0.0,0.0,0.0,0.0,0.0,0.0,0.0,0.0,0.0,0.0,0.0,0.0,-1.1622,-1.1622,-1.1622,-1.1622,-1.1622,-1.1622,-1.1622,0.0,0.0,0.0,0.0,0.0,0.0,0.0,0.0,0.0,0.0,0.0,0.0,0.0,0.0,0.0,0.0,0.0,0.0,0.0,0.0,0.0,0.0,0.0,0.0,0.0,0.0,0.0,0.0,0.0,0.0,0.0,0.0,0.0,0.0,0.0,0.0,0.0,0.0,0.0,0.0,0.0,0.0,0.0,0.0,0.0,0.0,0.0,0.0,0.0,0.0,0.0,0.0,0.0,0.0,0.0,0.0,0.0,0.0,0.0,0.0,0.0,0.0,0.0,0.0,0.0,0.0,0.0,0.0,0.0,0.0,0.0,0.0,0.0,0.0,0.0,0.0,0.0,0.0,0.0,0.0,0.0,0.0,0.0,0.0,0.0,0.0,0.0,0.0,0.0,0.0,0.0,0.0,0.0,0.0,0.0,0.0,0.0,0.0,0.0,0.0,0.0,0.0,0.0,0.0,0.0,0.0,0.0,-1.1622,-1.1622,-1.1622,-1.1622,-1.1622,-1.1622,-1.1622,-1.1622,-1.1622,0.0,0.0,0.0,0.0,0.0,0.0,0.0,0.0,0.0,0.0,0.0,0.0,0.0,0.0,0.0,0.0,0.0,0.0,0.0,0.0,0.0,0.0,0.0,0.0,0.0,0.0,0.0,0.0,0.0,0.0,0.0,0.0,0.0,0.0,0.0,0.0,0.0,0.0,-0.5198,-0.4935,0.0,0.0,0.0,0.0,0.0,0.0,0.0,0.0,-0.3968,0.0,0.0,0.0,0.0,0.0,0.0,0.0,0.0,0.0,0.0,0.0,0.0,0.0,0.0,0.0,0.0,0.0,0.0,0.0,0.0,0.0,0.0,0.0,0.0,0.0,0.0,0.0,0.0,0.0,0.0,0.0,0.0,0.0,0.0,0.0,0.0,0.0,0.0,0.0,0.0,0.0,0.0,0.0,0.0,0.0,0.0,0.0,0.0,0.0,0.0,0.0,0.0,0.0,0.0,0.0,0.0,-1.1622,-1.1622,-1.1622,-1.1622,-1.1622,-1.1622,-1.1622,-1.1622,-1.1622,-1.1622,0.0,0.0,0.0,0.0,0.0,0.0,0.0,0.0,0.0,0.0,0.0,0.0,0.0,0.0,0.0,0.0,0.0,0.0,0.0,0.0,0.0,0.0,0.0,0.0,0.0,0.0,0.0,0.0,0.0,0.0,0.0,0.0,0.0,0.0,0.0,0.0,0.0,0.0,0.0,-0.468,-0.4701,0.0,0.0,0.0,0.0,0.0,0.0,0.0,0.0,-0.4337,0.0,0.0,0.0,0.0,0.0,0.0,0.0,0.0,0.0,0.0,0.0,0.0,0.0,0.0,0.0,0.0,0.0,0.0,0.0,0.0,0.0,0.0,0.0,0.0,0.0,0.0,0.0,0.0,0.0,0.0,0.0,0.0,0.0,0.0,0.0,0.0,0.0,0.0,0.0,0.0,0.0,0.0,0.0,0.0,0.0,0.0,0.0,0.0,0.0,0.0,0.0,0.0,0.0,0.0,0.0,-1.1622,-1.1622,-1.1622,-1.1622,-1.1622,-1.1622,-1.1622,-1.1622,-1.1622,0.0,0.0,0.0,0.0,0.0,0.0,0.0,0.0,0.0,0.0,0.0,0.0,0.0,0.0,0.0,0.0,0.0,0.0,0.0,0.0,0.0,0.0,0.0,0.0,0.0,0.0,0.0,0.0,0.0,0.0,0.0,0.0,0.0,0.0,0.0,0.0,0.0,0.0,0.0,0.0,-0.4788,-0.4792,-0.4875,0.0,0.0,0.0,0.0,0.0,0.0,-0.4423,-0.4325,0.0,0.0,0.0,0.0,0.0,0.0,0.0,0.0,0.0,0.0,0.0,0.0,0.0,0.0,0.0,0.0,0.0,0.0,0.0,0.0,0.0,0.0,0.0,0.0,0.0,0.0,0.0,0.0,0.0,0.0,0.0,0.0,0.0,0.0,0.0,0.0,0.0,0.0,0.0,0.0,0.0,0.0,0.0,0.0,0.0,0.0,0.0,0.0,0.0,0.0,0.0,0.0,0.0,0.0,0.0,-1.1622,-1.1622,-1.1622,-1.1622,-1.1622,-1.1622,-1.1622,-1.1622,-1.1622,0.0,0.0,0.0,0.0,0.0,0.0,0.0,0.0,0.0,0.0,0.0,0.0,0.0,0.0,0.0,0.0,0.0,0.0,0.0,0.0,0.0,0.0,0.0,0.0,0.0,0.0,0.0,0.0,0.0,0.0,0.0,0.0,0.0,0.0,0.0,0.0,0.0,0.0,0.0,0.0,0.0,-0.4926,-0.5052,-0.5011,0.0,0.0,0.0,0.0,-0.4639,-0.4447,0.0,0.0,0.0,0.0,0.0,0.0,0.0,0.0,0.0,0.0,0.0,0.0,0.0,0.0,0.0,0.0,0.0,0.0,0.0,0.0,0.0,0.0,0.0,0.0,0.0,0.0,0.0,0.0,0.0,0.0,0.0,0.0,0.0,0.0,0.0,0.0,0.0,0.0,0.0,0.0,0.0,0.0,0.0,0.0,0.0,0.0,0.0,0.0,0.0,0.0,0.0,0.0,0.0,0.0,0.0,0.0,-1.1622,-1.1622,-1.1622,-1.1622,-1.1622,-1.1622,-1.1622,-1.1622,-1.1622,0.0,0.0,0.0,0.0,0.0,0.0,0.0,0.0,0.0,0.0,0.0,0.0,0.0,0.0,0.0,0.0,0.0,0.0,0.0,0.0,0.0,0.0,0.0,0.0,0.0,0.0,0.0,0.0,0.0,0.0,0.0,0.0,0.0,0.0,0.0,0.0,0.0,0.0,0.0,0.0,0.0,-0.506,-0.5074,-0.5194,-0.5183,0.0,0.0,-0.4961,-0.4871,-0.4751,0.0,0.0,0.0,0.0,0.0,0.0,0.0,0.0,0.0,0.0,0.0,0.0,0.0,0.0,0.0,0.0,0.0,0.0,0.0,0.0,0.0,0.0,0.0,0.0,0.0,0.0,0.0,0.0,0.0,0.0,0.0,0.0,0.0,0.0,0.0,0.0,0.0,0.0,0.0,0.0,0.0,0.0,0.0,0.0,0.0,0.0,0.0,0.0,0.0,0.0,0.0,0.0,0.0,0.0,0.0,-1.1622,-1.1622,-1.1622,-1.1622,-1.1622,-1.1622,-1.1622,-1.1622,-1.1622,-1.1622,0.0,0.0,0.0,0.0,0.0,0.0,0.0,0.0,0.0,0.0,0.0,0.0,0.0,0.0,0.0,0.0,0.0,0.0,0.0,0.0,0.0,0.0,0.0,0.0,0.0,0.0,0.0,0.0,0.0,0.0,0.0,0.0,0.0,0.0,0.0,0.0,0.0,0.0,0.0,0.0,0.0,0.0,-0.5373,-0.5389,0.0,0.0,0.0,-0.5329,-0.5216,0.0,0.0,0.0,0.0,0.0,0.0,0.0,0.0,0.0,0.0,0.0,0.0,0.0,0.0,0.0,0.0,0.0,0.0,0.0,0.0,0.0,0.0,0.0,0.0,0.0,0.0,0.0,0.0,0.0,0.0,0.0,0.0,0.0,0.0,0.0,0.0,0.0,0.0,0.0,0.0,0.0,0.0,0.0,0.0,0.0,0.0,0.0,0.0,0.0,0.0,0.0,0.0,0.0,0.0,0.0,0.0,0.0,-1.1622,-1.1622,-1.1622,-1.1622,-1.1622,-1.1622,-1.1622,-1.1622,0.0,0.0,0.0,0.0,0.0,0.0,0.0,0.0,0.0,0.0,0.0,0.0,0.0,0.0,0.0,0.0,0.0,0.0,0.0,0.0,0.0,0.0,0.0,0.0,0.0,0.0,0.0,-0.7709,0.0,0.0,0.0,0.0,0.0,0.0,0.0,0.0,0.0,0.0,0.0,0.0,0.0,0.0,-0.5505,-0.5612,-0.554,-0.5572,0.0,0.0,-0.5564,-0.551,-0.5441,-0.5363,0.0,0.0,0.0,0.0,0.0,0.0,0.0,0.0,0.0,0.0,0.0,0.0,0.0,0.0,0.0,0.0,0.0,0.0,0.0,0.0,0.0,0.0,0.0,0.0,0.0,0.0,0.0,0.0,0.0,0.0,0.0,0.0,0.0,0.0,0.0,0.0,0.0,0.0,0.0,0.0,0.0,0.0,0.0,0.0,0.0,0.0,0.0,0.0,0.0,0.0,0.0,0.0,0.0,0.0,0.0,-1.1622,-1.1622,-1.1622,-1.1622,-1.1622,-1.1622,-1.1622,-1.1622,-1.1622,0.0,0.0,0.0,0.0,0.0,0.0,0.0,0.0,0.0,0.0,0.0,0.0,0.0,0.0,0.0,0.0,0.0,0.0,0.0,0.0,0.0,0.0,0.0,0.0,0.0,0.0,0.0,0.0,0.0,0.0,0.0,0.0,0.0,0.0,0.0,0.0,0.0,0.0,0.0,0.0,0.0,-0.5612,-0.5612,-0.5762,-0.5868,0.0,0.0,-0.5679,-0.5683,-0.5514,-0.5396,-0.5385,0.0,0.0,0.0,0.0,0.0,0.0,0.0,0.0,0.0,0.0,0.0,0.0,0.0,0.0,0.0,0.0,0.0,0.0,0.0,0.0,0.0,0.0,0.0,0.0,0.0,0.0,0.0,0.0,0.0,0.0,0.0,0.0,0.0,0.0,0.0,0.0,0.0,0.0,0.0,0.0,0.0,0.0,0.0,0.0,0.0,0.0,0.0,0.0,0.0,0.0,0.0,0.0,0.0,-1.1622,-1.1622,-1.1622,-1.1622,-1.1622,-1.1622,-1.1622,-1.1622,-1.1622,-1.1622,0.0,0.0,0.0,0.0,0.0,0.0,0.0,0.0,0.0,0.0,0.0,0.0,0.0,0.0,0.0,0.0,0.0,0.0,0.0,0.0,0.0,0.0,0.0,0.0,0.0,0.0,0.0,0.0,-0.7763,-0.7931,-0.7461,0.0,0.0,0.0,0.0,0.0,0.0,0.0,0.0,0.0,0.0,-0.5819,-0.5941,-0.5944,0.0,0.0,-0.6042,-0.5984,-0.598,-0.5947,-0.5859,-0.5759,-0.5555,0.0,0.0,0.0,0.0,0.0,0.0,0.0,0.0,0.0,0.0,0.0,0.0,0.0,0.0,0.0,0.0,0.0,0.0,0.0,0.0,0.0,0.0,0.0,0.0,0.0,0.0,0.0,0.0,0.0,0.0,0.0,0.0,0.0,0.0,0.0,0.0,0.0,0.0,0.0,0.0,0.0,0.0,0.0,0.0,0.0,0.0,0.0,0.0,0.0,0.0,0.0,0.0,-1.1622,-1.1622,-1.1622,-1.1622,-1.1622,-1.1622,-1.1622,-1.1622,-1.1622,-1.1622,0.0,0.0,0.0,0.0,0.0,0.0,0.0,0.0,0.0,0.0,0.0,0.0,0.0,0.0,0.0,0.0,0.0,0.0,0.0,0.0,0.0,0.0,0.0,0.0,0.0,0.0,0.0,0.0,-0.7546,-0.783,-0.7835,0.0,0.0,0.0,0.0,0.0,0.0,0.0,0.0,0.0,0.0,-0.6026,-0.6144,-0.6133,-0.6101,-0.6229,-0.6225,-0.6229,-0.6293,-0.6266,-0.6175,-0.6061,0.0,0.0,0.0,0.0,0.0,0.0,0.0,0.0,0.0,0.0,0.0,0.0,0.0,0.0,0.0,0.0,0.0,0.0,0.0,0.0,0.0,0.0,0.0,0.0,0.0,0.0,0.0,0.0,0.0,0.0,-1.0591,0.0,0.0,0.0,0.0,0.0,0.0,0.0,0.0,0.0,0.0,0.0,0.0,0.0,0.0,0.0,0.0,0.0,0.0,0.0,0.0,0.0,0.0,-1.163,-1.1622,-1.1645,-1.1637,-1.1637,-1.163,-1.1645,-1.1645,-1.1622,-1.1622,-1.1622,0.0,0.0,0.0,0.0,0.0,0.0,0.0,0.0,0.0,0.0,0.0,0.0,0.0,0.0,0.0,0.0,0.0,0.0,0.0,0.0,0.0,0.0,0.0,0.0,0.0,0.0,-0.7225,-0.7215,-0.7279,0.0,0.0,0.0,0.0,0.0,0.0,0.0,0.0,0.0,0.0,-0.61,-0.6211,-0.6215,-0.6298,-0.6408,-0.6408,-0.6408,-0.6408,-0.6408,-0.6412,-0.642,0.0,0.0,0.0,0.0,0.0,0.0,0.0,0.0,0.0,0.0,0.0,0.0,0.0,0.0,0.0,0.0,0.0,0.0,0.0,0.0,0.0,0.0,0.0,0.0,0.0,0.0,0.0,-1.0618,-1.0618,0.0,0.0,0.0,0.0,0.0,0.0,0.0,0.0,0.0,0.0,0.0,-1.0744,-1.0744,0.0,0.0,0.0,0.0,0.0,0.0,0.0,0.0,0.0,0.0,0.0,0.0,-1.1875,-1.1882,-1.2094,-1.2197,-1.2204,-1.2204,-1.2197,-1.2197,-1.1984,-1.1772,-1.163,0.0,0.0,0.0,0.0,0.0,0.0,0.0,0.0,0.0,0.0,0.0,0.0,0.0,0.0,0.0,0.0,0.0,0.0,0.0,0.0,0.0,0.0,0.0,0.0,0.0,-0.6808,0.0,0.0,0.0,0.0,0.0,0.0,0.0,0.0,0.0,0.0,0.0,-0.6241,-0.6241,-0.629,-0.6327,-0.6323,-0.6379,-0.642,0.0,0.0,0.0,0.0,0.0,0.0,0.0,0.0,0.0,0.0,0.0,0.0,0.0,0.0,-0.4298,-0.2995,-0.2123,-0.1577,-0.144,0.0,0.0,0.0,0.0,0.0,0.0,0.0,0.0,0.0,0.0,0.0,0.0,0.0,0.0,-1.0681,0.0,-1.0751,0.0,0.0,0.0,0.0,0.0,0.0,0.0,0.0,-1.0744,-1.0807,-1.0933,-1.0933,-1.1052,0.0,-1.1156,-1.1141,0.0,0.0,0.0,0.0,0.0,0.0,0.0,0.0,-1.1963,-1.205,-1.2358,-1.2526,-1.2526,-1.2526,-1.2526,-1.2519,-1.2314,-1.2109,-1.1904,-1.1787,-1.1728,0.0,0.0,0.0,0.0,0.0,0.0,0.0,0.0,0.0,0.0,0.0,0.0,0.0,0.0,0.0,0.0,0.0,0.0,0.0,0.0,0.0,0.0,0.0,-0.6741,0.0,0.0,0.0,0.0,0.0,0.0,0.0,0.0,0.0,-0.642,-0.642,-0.642,-0.642,-0.642,-0.642,-0.642,0.0,0.0,0.0,0.0,0.0,0.0,0.0,-0.642,-0.642,-0.642,-0.6354,-0.6214,-0.6086,-0.5954,-0.5752,0.0,0.0,-0.3713,-0.2999,-0.2435,-0.1915,-0.1665,-0.1419,-0.1112,-0.1049,-0.0992,0.0,0.0,0.0,0.0,0.0,0.0,0.0,0.0,-1.0841,-1.0855,0.0,-1.1045,0.0,0.0,0.0,0.0,0.0,-1.1108,0.0,0.0,-1.1171,-1.115,-1.1164,-1.1164,-1.1248,-1.1514,-1.1324,-1.1476,-1.1927,-1.1446,0.0,0.0,0.0,0.0,0.0,0.0,-1.2058,-1.2022,-1.2401,-1.2562,-1.2562,-1.2562,-1.2555,-1.2541,-1.2541,-1.2526,-1.2504,-1.2211,-1.1913,-1.1623,-1.1291,0.0,0.0,0.0,0.0,0.0,0.0,0.0,0.0,0.0,0.0,0.0,0.0,0.0,0.0,0.0,0.0,0.0,0.0,0.0,0.0,-0.6881,0.0,0.0,0.0,0.0,0.0,0.0,0.0,0.0,0.0,0.0,-0.6416,-0.6416,-0.642,-0.642,0.0,0.0,0.0,0.0,-0.6416,-0.642,-0.642,-0.642,-0.642,-0.642,-0.642,-0.642,0.0,0.0,-0.6214,-0.6214,-0.6148,-0.5954,-0.5554,-0.5111,-0.5034,-0.4626,-0.4083,-0.3175,-0.2664,-0.2224,-0.1424,-0.1121,-0.1003,-1.1968,0.0,0.0,0.0,0.0,-1.1176,-1.1176,-1.1243,-1.1376,-1.145,-1.1443,-1.1643,0.0,0.0,0.0,0.0,0.0,0.0,-1.1717,-1.1717,-1.1717,-1.1783,-1.1983,-1.199,-1.2026,-1.2179,-1.2179,-1.2229,-1.2376,-1.2202,-1.1927,-1.1646,0.0,0.0,0.0,0.0,-1.2497,-1.2738,-1.3053,-1.3221,-1.3221,-1.3214,-1.3104,-1.2877,-1.287,-1.2753,-1.2533,-1.2431,-1.2137,-1.1638,-1.1617,0.0,0.0,0.0,0.0,0.0,0.0,0.0,0.0,0.0,0.0,0.0,0.0,0.0,0.0,0.0,0.0,0.0,0.0,0.0,-0.6552,-0.6548,-0.6552,0.0,0.0,0.0,0.0,0.0,0.0,0.0,0.0,0.0,-0.6609,-0.6486,-0.642,0.0,0.0,-0.6609,-0.6609,-0.6609,-0.6609,-0.6609,-0.6482,0.0,0.0,-0.642,-0.642,-0.642,-0.642,-0.642,-0.6354,-0.6354,-0.635,-0.6288,-0.6152,-0.6001,-0.5959,-0.4954,-0.4022,-0.3472,-0.2881,-0.2358,-0.19,-0.1444,-0.1052,-1.2642,-1.1975,-1.1859,-1.1813,-1.1778,-1.1703,-1.1696,-1.1771,-1.1908,-1.1908,-1.1908,-1.2112,-1.218,-1.218,-1.2187,0.0,0.0,0.0,-1.2187,-1.2187,-1.218,-1.2255,-1.239,-1.239,-1.2456,-1.2709,-1.2579,-1.2706,-1.2906,-1.2706,-1.2477,-1.2289,0.0,0.0,-1.2233,-1.2555,-1.2811,-1.3016,-1.3331,-1.3492,-1.3492,-1.3492,-1.3397,-1.3214,-1.3199,-1.3104,-1.2914,-1.2782,-1.2636,-1.2378,-1.2107,-1.1615,0.0,0.0,0.0,0.0,0.0,0.0,0.0,0.0,0.0,0.0,0.0,-0.6815,0.0,0.0,0.0,0.0,-0.6482,-0.6544,-0.6544,-0.6548,0.0,0.0,0.0,0.0,0.0,0.0,0.0,-0.6679,-0.6679,-0.6741,-0.6671,-0.6609,-0.6482,-0.6416,-0.6482,-0.6548,-0.6548,0.0,-0.6741,-0.6741,-0.6609,-0.6548,-0.6548,-0.6482,-0.642,-0.642,-0.642,-0.642,-0.642,-0.642,-0.642,-0.642,-0.642,-0.642,-0.642,-0.5613,-0.4683,-0.3885,-0.3351,-0.2815,-0.208,-0.1545,-0.1277,-1.3304,-1.3029,-1.2748,-1.2508,-1.2334,-1.2121,-1.219,-1.2334,-1.2334,-1.2402,-1.2402,-1.2538,-1.2599,-1.2599,-1.2599,0.0,-1.2599,-1.2599,-1.2606,-1.2599,-1.2599,-1.2599,-1.2592,-1.2599,-1.2753,-1.3045,-1.2827,-1.2985,-1.3462,-1.2971,-1.2827,-1.3038,-1.2745,-1.2584,-1.2577,-1.2855,-1.3016,-1.3053,-1.3345,-1.3492,-1.3492,-1.3492,-1.3492,-1.3484,-1.3492,-1.3492,-1.3477,-1.3206,-1.3201,-1.3412,-1.2753,-1.2155,-1.1795,0.0,0.0,0.0,0.0,0.0,0.0,0.0,0.0,0.0,0.0,0.0,0.0,0.0,0.0,0.0,-0.6609,0.0,-0.6675,-0.6811,0.0,0.0,0.0,-0.6675,-0.6486,-0.6609,-0.6675,-0.6482,0.0,0.0,-0.6762,0.0,-0.6717,-0.6527,-0.6502,-0.6482,-0.6482,-0.6613,-0.6741,-0.6736,-0.6741,-0.6741,-0.6675,-0.6544,-0.6486,-0.642,-0.6416,-0.642,-0.642,-0.642,-0.642,-0.642,-0.642,-0.642,-0.642,-0.6354,-0.5951,-0.4417,-0.4084,-0.3616,-0.235,-0.1882,-0.1747,-1.4149,-1.4146,-1.4074,-1.3561,-1.2762,-1.2683,-1.2676,-1.2748,-1.2899,-1.2978,-1.2971,-1.3186,-1.3265,-1.3265,-1.3265,-1.3265,-1.3265,-1.3265,-1.3265,-1.3265,-1.3258,-1.3265,-1.3265,-1.3265,-1.3309,-1.3375,-1.331,-1.3426,-1.3492,-1.3346,-1.3302,-1.3375,-1.3301,-1.314,-1.2899,-1.2972,-1.3126,-1.3375,-1.3455,-1.3492,-1.3492,-1.3492,-1.3492,-1.3492,-1.3492,-1.3492,-1.3492,-1.3426,-1.343,-1.3512,-1.3105,-1.2935,-1.3051,-1.1696,0.0,0.0,0.0,0.0,0.0,0.0,0.0,0.0,0.0,-0.7335,-0.6863,0.0,-0.6942,0.0,-0.6745,-0.6675,-0.6486,-0.6613,0.0,0.0,-0.6942,-0.7073,-0.7003,-0.7068,-0.7134,-0.7199,-0.7274,-0.7306,-0.7306,-0.7427,-0.7451,-0.7311,-0.7131,-0.7003,-0.7007,-0.7007,-0.7068,-0.7077,-0.6955,-0.6876,-0.6889,-0.6815,-0.6758,-0.6679,-0.6613,-0.6544,-0.642,-0.642,-0.642,-0.642,-0.642,-0.642,-0.6428,-0.642,-0.609,-0.5282,-0.4951,-0.4686,-0.4148,-0.3218,-0.242,-1.4596,-1.4465,-1.4465,-1.4176,-1.3622,-1.3622,-1.3622,-1.3615,-1.3697,-1.3773,-1.378,-1.3923,-1.3931,-1.3931,-1.3923,-1.3923,-1.3923,-1.3931,-1.3931,-1.3931,-1.3931,-1.3931,-1.3931,-1.3923,-1.3923,-1.3923,-1.3931,-1.385,-1.3718,-1.3711,-1.3631,-1.3492,-1.3492,-1.3404,-1.3236,-1.3228,-1.3316,-1.3484,-1.3492,-1.3492,-1.3492,-1.3492,-1.3492,-1.3492,-1.3492,-1.3492,-1.3492,-1.3492,-1.3498,-1.3487,-1.3243,-1.3104,-1.3056,-1.1791,-1.0922,0.0,0.0,0.0,0.0,0.0,0.0,0.0,0.0,0.0,0.0,0.0,-0.7138,-0.6946,-0.6942,-0.6876,-0.6745,-0.6937,-0.6999,-0.6937,-0.7149,-0.7341,-0.7265,-0.7346,-0.7468,-0.7536,-0.7569,-0.7642,-0.7646,-0.7733,-0.7806,-0.7806,-0.7683,-0.7541,-0.7405,-0.7405,-0.7468,-0.7468,-0.7401,-0.7269,-0.7205,-0.7205,-0.7205,-0.7133,-0.7065,-0.7065,-0.6933,-0.6933,-0.6933,-0.686,-0.6792,-0.6792,-0.6724,-0.6656,-0.6515,-0.6238,-0.6032,-0.5634,-0.4776,-0.3685,-0.296,-1.4962,-1.4714,-1.4714,-1.4714,-1.4706,-1.467,-1.4582,-1.4465,-1.4465,-1.4465,-1.4465,-1.4465,-1.4465,-1.4465,-1.4465,-1.4465,-1.4465,-1.4465,-1.4465,-1.4465,-1.4465,-1.4465,-1.4465,-1.4465,-1.4465,-1.4465,-1.4465,-1.4326,-1.4048,-1.4048,-1.3901,-1.3631,-1.3623,-1.3623,-1.3616,-1.3579,-1.3543,-1.3492,-1.3492,-1.3492,-1.3492,-1.3492,-1.3492,-1.3492,-1.3492,-1.3492,-1.3492,-1.3492,-1.3492,-1.3492,-1.3339,-1.3064,-1.2629,-1.1713,-1.1103,0.0,-0.9843,0.0,0.0,0.0,0.0,0.0,0.0,0.0,0.0,-0.7661,-0.7279,-0.7109,-0.7179,-0.725,-0.7211,-0.7409,-0.7475,-0.7281,-0.7441,-0.755,-0.7413,-0.7626,-0.7806,-0.7668,-0.7757,-0.7914,-0.7914,-0.7861,-0.8022,-0.8112,-0.8179,-0.8093,-0.7807,-0.7824,-0.784,-0.7872,-0.7801,-0.7756,-0.7699,-0.7646,-0.765,-0.7584,-0.7566,-0.7597,-0.758,-0.758,-0.7517,-0.7362,-0.7274,-0.7287,-0.7095,-0.7086,-0.7086,-0.6995,-0.692,-0.6405,-0.495,-0.4011,-0.3413,-1.606,-1.6016,-1.6009,-1.6009,-1.5994,-1.5745,-1.5196,-1.4465,-1.4465,-1.4465,-1.4465,-1.4465,-1.4465,-1.4465,-1.4465,-1.4465,-1.4465,-1.4465,-1.4465,-1.4465,-1.4465,-1.4465,-1.4465,-1.4465,-1.4465,-1.4465,-1.4465,-1.4435,-1.4377,-1.4377,-1.4348,-1.4282,-1.4282,-1.4282,-1.4275,0.0,0.0,0.0,-1.3492,-1.3492,-1.3492,-1.3492,-1.3492,-1.3492,-1.3492,0.0,-1.3492,-1.3492,-1.3492,-1.3492,-1.3266,0.0,0.0,0.0,0.0,0.0,0.0,0.0,0.0,0.0,0.0,0.0,-0.8842,-0.8779,-0.9655,-0.8823,-0.8239,-0.8214,-0.7716,-0.7455,-0.7539,-0.7622,-0.7757,-0.7692,-0.7859,-0.7953,-0.7953,-0.799,-0.8009,-0.8018,-0.8164,-0.8271,-0.8276,-0.8403,-0.8501,-0.8562,-0.8581,-0.8585,-0.8501,-0.8225,-0.8023,-0.8009,-0.8042,-0.8023,-0.8014,-0.8028,-0.7985,-0.7806,-0.773,-0.7744,-0.7691,-0.7615,-0.7606,-0.7539,-0.7526,-0.7535,-0.7468,-0.7455,-0.7405,-0.7237,-0.7241,-0.6853,-0.5722,-0.4856,-0.4151,-1.6367,0.0,-1.6367,-1.6367,0.0,-1.6206,-1.5862,-1.5387,-1.5072,-1.494,-1.494,-1.4948,-1.494,-1.494,-1.494,-1.494,-1.494,-1.494,-1.4948,-1.494,-1.494,-1.494,-1.4948,-1.4948,-1.4948,-1.4948,-1.4948,-1.486,-1.4714,-1.4699,-1.4618,-1.4472,-1.4465,-1.4465,-1.4465,-1.4304,-1.3982,-1.3499,-1.3492,-1.3492,-1.3492,-1.3492,-1.3492,-1.3492,0.0,0.0,0.0,0.0,0.0,0.0,0.0,0.0,0.0,0.0,0.0,-1.2219,-1.0956,-1.0514,-1.1198,-1.0672,-1.0596,-1.1243,-1.0823,-1.0206,-0.9349,-0.8643,-0.8278,-0.8319,-0.7993,-0.7836,-0.7863,-0.7872,-0.7938,-0.7943,-0.8107,-0.8236,-0.825,-0.8325,-0.8382,-0.8392,-0.8481,-0.8552,-0.8552,-0.8628,-0.8699,-0.8703,-0.8703,-0.8703,-0.8689,-0.8529,-0.8387,-0.8387,-0.8387,-0.8392,-0.8387,-0.8387,-0.8387,-0.8245,-0.824,-0.8245,-0.8176,-0.8176,-0.8102,-0.8033,-0.8033,-0.7959,-0.7886,-0.7886,-0.7812,-0.7734,-0.7734,-0.736,-0.6303,-0.5609,-0.5168,-1.6535,-1.6535,-1.6543,-1.6535,-1.6535,-1.6477,-1.6418,-1.6338,0.0,0.0,0.0,-1.5592,-1.5599,-1.5599,-1.5592,-1.5592,-1.5599,-1.5599,-1.5599,-1.5592,-1.554,-1.5518,-1.5518,-1.5452,-1.5431,-1.5431,-1.5431,-1.5292,-1.4954,-1.5028,-1.4896,-1.4655,-1.464,-1.4611,-1.4553,-1.4553,-1.426,-1.3689,-1.3609,-1.3579,-1.3579,-1.3521,-1.3492,-1.3492,-1.3492,-1.3492,-1.3492,-1.3492,-1.3492,-1.3492,-1.268,-1.2526,-1.3112,-1.1781,-1.1369,-1.2301,-1.1653,-1.162,-1.2359,-1.1927,-1.1817,-1.2203,-1.213,-1.1184,-0.9146,-0.885,-0.8654,-0.8548,-0.8416,-0.836,-0.8398,-0.8408,-0.8403,-0.8408,-0.8568,-0.868,-0.8689,-0.882,-0.8908,-0.8927,-0.8917,-0.8851,-0.8694,-0.8699,-0.8703,-0.8703,-0.8703,-0.8703,-0.8703,-0.8685,-0.8661,-0.8661,-0.8647,-0.8685,-0.8694,-0.868,-0.8703,-0.867,-0.868,-0.8703,-0.8703,-0.8703,-0.8627,-0.8443,-0.8475,-0.8385,-0.8246,-0.8228,-0.8178,-0.8178,-0.8183,-0.7868,-0.6984,-0.6503,-0.6159,-1.7186,-1.7186,-1.7194,-1.7194,-1.7172,-1.6901,-1.6713,-1.636,-1.6272,-1.6235,-1.6235,-1.6235,-1.6235,-1.6235,-1.6235,-1.6235,-1.6235,-1.6235,-1.6235,-1.6221,-1.5965,-1.5848,-1.5833,-1.5562,-1.5431,-1.5431,-1.5438,-1.5409,-1.5365,-1.5357,-1.5335,-1.5292,-1.5299,-1.5153,-1.4896,-1.4874,-1.4699,-1.434,-1.4055,-1.3916,-1.3909,-1.3645,-1.3492,-1.3492,-1.3492,-1.3492,-1.3492,-1.3492,-1.3492,-1.3492,-1.32,-1.3193,-1.3339,-1.181,-1.1575,-1.3055,-1.1316,-1.0799,-1.2164,-1.1015,-0.9905,-0.9401,-0.9905,-1.0658,-1.1813,-1.1341,-1.0817,-1.0265,-0.9646,-0.9447,-0.9633,-0.9574,-0.9489,-0.9579,-0.9622,-0.9718,-0.9557,-0.9588,-0.9614,-0.9614,-0.9695,-0.9463,-0.8851,-0.878,-0.8851,-0.8703,-0.878,-0.8703,-0.8703,-0.8703,-0.8703,-0.8703,-0.8703,-0.8703,-0.8703,-0.8703,-0.8703,-0.8703,-0.8703,-0.8703,-0.8703,-0.8703,-0.8703,-0.8627,-0.8627,-0.8627,-0.8551,-0.8627,-0.8551,-0.8403,-0.8327,-0.8174,-0.7787,-0.7719,-0.7167,-1.7333,-1.7333,-1.7333,-1.7333,-1.7318,-1.7172,-1.7026,-1.6894,-1.6887,-1.6689,-1.6374,-1.6367,-1.6367,-1.6367,-1.6367,-1.6367,-1.6367,-1.6367,-1.6367,-1.636,-1.6221,-1.6155,-1.6148,-1.6016,-1.5943,-1.5921,-1.5767,-1.5694,-1.5679,-1.5518,-1.5431,-1.5431,-1.5431,-1.535,-1.5218,-1.5211,-1.5138,-1.4984,-1.4509,-1.4245,-1.4238,-1.3931,-1.3755,-1.3762,-1.3601,-1.3492,-1.3492,-1.3492,-1.3492,-1.3492,-1.298,-1.2973,-1.3426,-1.2298,-1.215,-1.3346,-1.2452,-1.215,-1.2893,-1.2298,-1.17,-1.1323,-1.1626,-1.2191,-1.2933,-1.1533,-1.0356,-0.9659,-0.9304,-0.9115,-0.9226,-0.9231,-0.9236,-0.9231,-0.9236,-0.9236,-0.9236,-0.9236,-0.9236,-0.9311,-0.9614,-0.9765,-0.9387,-0.976,-0.9755,-0.9458,-0.9079,-0.8703,-0.8703,-0.8703,-0.8703,-0.8703,-0.8703,-0.8703,-0.8703,-0.8703,-0.8703,-0.8703,-0.8703,-0.8703,-0.8703,-0.8703,-0.8703,-0.8703,-0.8703,-0.8703,-0.8703,-0.8703,-0.8627,-0.8627,-0.8551,-0.8475,-0.8327,-0.8174,-0.7557,-1.7326,-1.7434,-1.7333,-1.7333,-1.7333,-1.7333,-1.7333,-1.7333,-1.7326,-1.7047,-1.6623,-1.6587,-1.6587,-1.6587,-1.6587,-1.6587,-1.6587,-1.6587,-1.6587,-1.6579,-1.6506,-1.6477,-1.6462,-1.6411,-1.6367,-1.6345,-1.6126,-1.5987,-1.5891,-1.5657,-1.5504,-1.5438,-1.5431,-1.5431,-1.5431,-1.5431,-1.5431,-1.5401,-1.494,-1.4648,-1.4575,-1.426,-1.4099,-1.407,-1.3777,-1.3609,-1.3601,-1.3536,-1.3492,-1.3492,-1.29,-1.29,-1.3419,-1.2753,-1.2673,-1.3346,-1.3346,-1.3193,-1.32,-1.32,-1.3127,-1.2973,-1.3127,-1.3127,-1.2826,-1.1484,-1.0212,-0.9609,-0.9669,-0.9599,-0.9679,-0.9377,-0.9306,-0.9453,-0.9155,-0.9155,-0.9231,-0.9079,-0.9003,-0.9084,-0.9544,-0.9922,-0.9992,-1.0288,-1.0288,-0.9836,-0.9458,-0.9231,-0.9003,-0.8932,-0.8927,-0.8703,-0.8703,-0.8703,-0.8703,-0.8703,-0.8703,-0.8703,-0.8703,-0.8703,-0.8703,-0.8703,-0.8703,-0.8703,-0.8703,-0.8703,-0.8703,-0.8703,-0.8703,-0.8703,-0.8703,-0.8627,-0.8475,-0.8327,-0.7944,-1.7426,-1.7628,-1.7426,-1.7333,-1.7333,-1.7333,-1.7333,-1.7333,-1.7333,-1.7304,-1.7208,-1.7238,-1.7216,-1.7238,-1.7216,-1.7208,-1.7216,-1.7238,-1.7216,-1.7179,-1.6938,-1.6806,-1.6875,-1.6521,-1.6367,-1.6382,-1.6345,-1.6199,-1.5979,-1.5884,-1.5716,-1.5467,-1.5431,-1.5431,-1.5431,-1.5431,-1.5431,-1.5431,-1.5372,-1.5196,-1.4816,-1.4589,-1.4428,-1.4421,-1.4114,-1.3938,-1.3916,-1.3653,-1.3492,-1.3492,-1.3419,-1.3419,-1.3426,-1.2746,-1.2673,-1.3411,-1.282,-1.2445,-1.2452,-1.2372,-1.2157,-1.1484,-1.2077,-1.2224,-1.1632,-1.1855,-1.2077,-1.1848,-1.1922,-1.17,-1.1922,-1.118,-1.0956,-1.1403,-1.053,-1.0067,-1.0611,-1.0218,-0.9765,-0.9771,-0.9976,-0.9927,-0.9894,-0.9575,-0.9397,-1.0143,-1.0288,-1.0288,-0.9911,-0.969,-0.9463,-0.8932,-0.8703,-0.8703,-0.8703,-0.8703,-0.8703,-0.8703,-0.8703,-0.8703,-0.8703,-0.8703,-0.8703,-0.8703,-0.8703,-0.8703,-0.8703,-0.8703,-0.8703,-0.8703,-0.8703,-0.8703,-0.8627,-0.8479,-0.8174,-1.7807,-1.7908,-1.7621,-1.7426,-1.7333,-1.7333,-1.7333,-1.7333,-1.7333,-1.7333,-1.7333,-1.7333,-1.7333,-1.7333,-1.7333,-1.7333,-1.7333,-1.7333,-1.7333,-1.7318,-1.7186,-1.7135,-1.7113,-1.7004,-1.6938,-1.6916,-1.6748,-1.6601,-1.6426,-1.6104,-1.5745,-1.5467,-1.5431,-1.5431,-1.5431,-1.5431,-1.5431,-1.5431,-1.5431,-1.5365,-1.5211,-1.4918,-1.475,-1.4714,-1.4435,-1.4172,-1.3996,-1.3843,-1.3697,-1.3514,-1.3492,-1.3492,-1.3492,-1.3193,-1.3119,-1.3419,-1.32,-1.2973,-1.2973,-1.3046,-1.29,-1.2526,-1.2826,-1.2893,-1.2599,-1.282,-1.2973,-1.29,-1.215,-1.1558,-1.1639,-1.1341,-1.126,-1.1502,-1.1175,-1.1047,-1.1353,-1.126,-1.1036,-1.0567,-1.0796,-1.0863,-1.0377,-0.9891,-1.0144,-1.0859,-1.0962,-1.053,-1.0524,-1.0218,-0.9765,-0.9463,-0.9008,-0.8703,-0.8703,-0.8703,-0.8703,-0.8703,-0.8703,-0.8703,-0.8703,-0.8703,-0.8703,-0.8703,-0.8703,-0.8703,-0.8703,-0.8703,-0.8703,-0.8703,-0.8703,-0.8703,-0.8703,-0.8627,-0.8556,-1.8456,-1.8456,-1.8078,-1.7793,-1.7589,-1.7596,-1.7596,-1.7596,-1.7596,-1.7596,-1.7596,-1.7596,-1.7596,-1.7574,-1.7421,-1.7333,-1.7333,-1.7333,-1.7333,-1.7333,-1.7333,-1.7333,-1.7333,-1.7333,-1.7333,-1.7296,-1.7091,-1.6938,-1.6791,-1.6213,-1.5796,-1.5584,-1.5482,-1.5431,-1.5431,-1.5431,-1.5431,-1.5431,-1.5431,-1.5431,-1.5394,-1.5196,-1.5072,-1.5043,-1.4765,-1.4479,-1.4253,-1.407,-1.3872,-1.3645,-1.355,-1.3492,-1.3492,-1.3492,-1.3492,-1.3492,-1.3492,-1.3492,-1.3492,-1.3492,-1.3492,-1.3492,-1.3492,-1.3492,-1.3506,-1.3579,-1.3623,-1.3564,-1.2648,-1.2086,-1.1902,-1.1671,-1.1702,-1.1935,-1.1985,-1.178,-1.202,-1.2122,-1.1798,-1.1249,-1.1523,-1.1576,-1.09,-1.101,-1.1701,-1.1542,-1.1356,-1.0843,-1.1127,-1.079,-1.0513,-1.0218,-0.9533,-0.9008,-0.878,-0.8703,-0.8703,-0.8703,-0.8703,-0.8703,-0.8703,-0.8703,-0.8703,-0.8703,-0.8703,-0.8703,-0.8703,-0.8703,-0.8703,-0.8703,-0.8703,-0.8703,-0.8703,-0.8703,-0.8703,-1.9146,-1.9326,-1.8829,-1.8505,-1.8247,-1.8233,-1.824,-1.8189,-1.8225,-1.824,-1.8211,-1.8218,-1.824,-1.8174,-1.764,-1.734,-1.734,-1.734,-1.7333,-1.7333,-1.7333,-1.7333,-1.7333,-1.7333,-1.7333,-1.7333,-1.7289,-1.7128,-1.6835,-1.625,-1.5913,-1.587,-1.5599,-1.5445,-1.5431,-1.5431,-1.5431,-1.5431,-1.5431,-1.5431,-1.5431,-1.5409,-1.5387,-1.535,-1.5094,-1.4823,-1.4809,-1.4304,-1.3982,-1.3953,-1.3675,-1.3506,-1.3499,-1.3492,-1.3492,-1.3492,-1.3492,-1.3492,-1.3492,-1.3492,-1.3492,-1.3492,-1.3521,-1.3506,-1.3558,-1.3806,-1.3953,-1.396,-1.4041,-1.4007,-1.3737,-1.3051,-1.3146,-1.3846,-1.2975,-1.2612,-1.3173,-1.2737,-1.2215,-1.2086,-1.2129,-1.1894,-1.1042,-1.2857,-1.2653,-1.2,-1.2479,-1.3182,-1.1986,-1.1966,-1.1764,-1.1141,-1.038,-0.9539,-0.8932,-0.8703,-0.8703,-0.8703,-0.8703,-0.8703,-0.8703,-0.8703,-0.8703,-0.8703,-0.8703,-0.8703,-0.8703,-0.8703,-0.8703,-0.8703,-0.8703,-0.8703,-0.8703,-0.8703,-0.8703,-1.9583,-1.9486,-1.9282,-1.9086,-1.8799,-1.8587,-1.8587,-1.8489,-1.8397,-1.8299,-1.8299,-1.8299,-1.8299,-1.8291,-1.8064,-1.7838,-1.7633,-1.7428,-1.7333,-1.7333,-1.7333,-1.7333,-1.7333,-1.7333,-1.7333,-1.7333,-1.7333,-1.7165,-1.6865,-1.6616,-1.6301,-1.5957,-1.5804,-1.565,-1.5474,-1.5431,-1.5431,-1.5431,-1.5431,-1.5431,-1.5431,-1.5431,-1.5431,-1.5431,-1.5313,-1.5153,-1.486,-1.4714,-1.4414,-1.4004,-1.3872,-1.3711,-1.3521,-1.3492,-1.3492,-1.3492,-1.3492,-1.3492,-1.3492,-1.3492,-1.3492,-1.3506,-1.3689,-1.3806,-1.3865,-1.4099,-1.4289,-1.4326,-1.4384,-1.4465,-1.4474,-1.418,-1.4016,-1.4294,-1.4165,-1.3957,-1.424,-1.4198,-1.3988,-1.348,-1.2901,-1.2419,-1.2594,-1.2962,-1.3139,-1.3127,-1.3406,-1.343,-1.3374,-1.3002,-1.251,-1.2017,-1.0924,-0.9846,-0.9614,-0.9008,-0.8703,-0.8703,-0.8703,-0.8703,-0.8703,-0.8703,-0.8703,-0.8703,-0.8703,-0.8703,-0.8703,-0.8703,-0.8703,-0.8703,-0.8703,-0.8703,-0.8703,-0.8703,-0.8703,-2.0111,-1.9821,-1.9821,-1.9721,-1.9422,-1.9107,-1.9007,-1.9007,-1.8714,-1.8621,-1.8621,-1.8613,-1.8621,-1.8591,-1.8503,-1.8357,-1.8094,-1.7691,-1.7486,-1.7479,-1.7377,-1.7333,-1.7333,-1.7333,-1.7333,-1.7333,-1.7333,-1.7208,-1.7011,-1.6901,-1.663,-1.625,-1.603,-1.5818,-1.5606,-1.5489,-1.5431,-1.5431,-1.5431,-1.5431,-1.5431,-1.5431,-1.5431,-1.5431,-1.5431,-1.5328,-1.502,-1.4925,-1.4757,-1.434,-1.4099,-1.3836,-1.3543,-1.3492,-1.3492,-1.3492,-1.3492,-1.3492,-1.3514,-1.3594,-1.3653,-1.3667,-1.3945,-1.4143,-1.4165,-1.4435,-1.4596,-1.4633,-1.4743,-1.4882,-1.4992,-1.4904,-1.4779,-1.4794,-1.497,-1.5101,-1.5109,-1.5292,-1.5054,-1.4531,-1.4015,-1.3761,-1.3718,-1.3513,-1.3585,-1.3971,-1.3801,-1.405,-1.4015,-1.3797,-1.3362,-1.3251,-1.2031,-1.0995,-1.041,-0.9845,-0.9027,-0.8861,-0.8703,-0.8703,-0.8703,-0.8703,-0.8703,-0.8703,-0.8703,-0.8703,-0.8703,-0.8703,-0.8703,-0.8703,-0.8703,-0.8703,-0.8703,-0.8703,-0.8703,-2.0688,-2.0467,-2.0514,-2.0341,-2.0097,-1.9789,-1.9746,-1.9598,-1.942,-1.9273,-1.9147,-1.922,-1.9169,-1.9169,-1.8906,-1.8782,-1.865,-1.8138,-1.783,-1.775,-1.7501,-1.7355,-1.7333,-1.7333,-1.7333,-1.7333,-1.7333,-1.7326,-1.7274,-1.704,-1.6857,-1.6718,-1.625,-1.5979,-1.5891,-1.5621,-1.5452,-1.5431,-1.5431,-1.5431,-1.5431,-1.5431,-1.5431,-1.5431,-1.5431,-1.5423,-1.5394,-1.5042,-1.4948,-1.4831,-1.4355,-1.3865,-1.3638,-1.3587,-1.3543,-1.3579,-1.3543,-1.3528,-1.3572,-1.3828,-1.3989,-1.4026,-1.4282,-1.4465,-1.4509,-1.4757,-1.4948,-1.4984,-1.5182,-1.5394,-1.5379,-1.535,-1.5335,-1.5409,-1.5365,-1.5372,-1.5394,-1.5423,-1.5431,-1.5347,-1.509,-1.4999,-1.4566,-1.4608,-1.4552,-1.3818,-1.4008,-1.4448,-1.4089,-1.4099,-1.433,-1.4258,-1.3192,-1.2152,-1.1419,-1.0707,-0.9774,-0.9022,-0.8784,-0.8703,-0.8703,-0.8703,-0.8703,-0.8703,-0.8703,-0.8703,-0.8703,-0.8703,-0.8703,-0.8703,-0.8703,-0.8703,-0.8703,-0.8703,-0.8703,-2.0822,-2.0822,-2.0814,-2.0719,-2.0609,-2.0403,-2.0197,-1.9983,-1.968,-1.948,-1.9272,-1.9272,-1.9272,-1.9257,-1.9162,-1.9118,-1.9081,-1.8672,-1.8255,-1.7867,-1.7713,-1.7538,-1.7369,-1.7333,-1.7333,-1.7333,-1.7333,-1.7333,-1.7311,-1.7223,-1.7091,-1.6843,-1.6667,-1.633,-1.5957,-1.5804,-1.5672,-1.5452,-1.5431,-1.5431,-1.5431,-1.5431,-1.5431,-1.5431,-1.5431,-1.5431,-1.5423,-1.5328,-1.5167,-1.4881,-1.4757,-1.4494,-1.4231,-1.4165,-1.4165,-1.4165,-1.4165,-1.4165,-1.4165,-1.4245,-1.4318,-1.4377,-1.4611,-1.4772,-1.4823,-1.5079,-1.5255,-1.527,-1.5379,-1.5431,-1.5431,-1.5431,-1.5431,-1.5431,-1.5431,-1.5431,-1.5431,-1.5431,-1.5431,-1.5431,-1.5431,-1.5264,-1.509,-1.5347,-1.5173,-1.4566,-1.4462,-1.4407,-1.471,-1.4314,-1.4233,-1.4525,-1.3636,-1.3131,-1.2427,-1.1588,-1.0584,-0.9612,-0.9086,-0.8713,-0.8703,-0.8703,-0.8703,-0.8703,-0.8703,-0.8703,-0.8703,-0.8703,-0.8703,-0.8703,-0.8703,-0.8703,-0.8703,-0.8703,-0.8703,-2.0925,-2.0925,-2.0925,-2.0925,-2.0917,-2.0617,-2.0411,-2.0197,-1.9887,-1.9576,-1.948,-1.9376,-1.9272,-1.9272,-1.9272,-1.9272,-1.9257,-1.906,-1.8686,-1.8182,-1.7889,-1.7699,-1.7494,-1.7377,-1.7333,-1.7333,-1.7333,-1.7333,-1.7333,-1.7326,-1.7223,-1.7047,-1.6916,-1.6674,-1.6257,-1.6023,-1.5796,-1.5621,-1.5496,-1.5423,-1.5506,-1.5423,-1.5506,-1.5597,-1.5514,-1.5431,-1.5499,-1.5423,-1.5335,-1.5138,-1.5013,-1.4794,-1.4509,-1.4457,-1.4465,-1.4465,-1.4465,-1.4457,-1.4479,-1.456,-1.4648,-1.4692,-1.494,-1.5116,-1.516,-1.5343,-1.5423,-1.5431,-1.5431,-1.5431,-1.5431,-1.5431,-1.5431,-1.5431,-1.5431,-1.5431,-1.5431,-1.5431,-1.5431,-1.5431,-1.5431,-1.5431,-1.5431,-1.5431,-1.5431,-1.534,-1.4915,-1.4657,-1.5137,-1.4738,-1.4825,-1.4799,-1.4429,-1.3888,-1.342,-1.2435,-1.1359,-1.0328,-0.9421,-0.9005,-0.8703,-0.8703,-0.8703,-0.8703,-0.8703,-0.8703,-0.8703,-0.8703,-0.8703,-0.8703,-0.8703,-0.8703,-0.8703,-0.8703,-0.8703,-2.0925,-2.0925,-2.0925,-2.0925,-2.0917,-2.0617,-2.0522,-2.0418,-1.9998,-1.9783,-1.9687,-1.948,-1.9272,-1.9279,-1.9272,-1.9272,-1.9272,-1.925,-1.9081,-1.8686,-1.8255,-1.7896,-1.7743,-1.7472,-1.7333,-1.7333,-1.7333,-1.7333,-1.7333,-1.7333,-1.7333,-1.7267,-1.704,-1.6865,-1.6696,-1.625,-1.5987,-1.5848,-1.5613,-1.5558,-1.5665,-1.559,-1.568,-1.6004,-1.568,-1.559,-1.5658,-1.5499,-1.5431,-1.5379,-1.5138,-1.4896,-1.4611,-1.4523,-1.4589,-1.4611,-1.4545,-1.4582,-1.4618,-1.4831,-1.497,-1.4992,-1.5211,-1.5431,-1.5401,-1.5401,-1.5431,-1.5431,-1.5431,-1.5431,-1.5431,-1.5431,-1.5431,-1.5431,-1.5431,-1.5431,-1.5431,-1.5431,-1.5431,-1.5431,-1.5431,-1.5431,-1.5431,-1.5431,-1.5431,-1.5347,-1.5257,-1.509,-1.5249,-1.5115,-1.5235,-1.5112,-1.4924,-1.4703,-1.413,-1.3333,-1.232,-1.1665,-1.0437,-0.9393,-0.8846,-0.8741,-0.8703,-0.8703,-0.8703,-0.8703,-0.8703,-0.8703,-0.8703,-0.8703,-0.8703,-0.8703,-0.8703,-0.8703,-0.8703,-2.0925,-2.0925,-2.0925,-2.0925,-2.0917,-2.0814,-2.0719,-2.0522,-2.0308,-2.0101,-1.9783,-1.9576,-1.948,-1.9279,-1.9272,-1.9272,-1.9272,-1.9272,-1.925,-1.9096,-1.8745,-1.824,-1.783,-1.7494,-1.7333,-1.7333,-1.7333,-1.7333,-1.7333,-1.7333,-1.7333,-1.7333,-1.7238,-1.7069,-1.6843,-1.6674,-1.6352,-1.5979,-1.6011,-1.5896,-1.5778,-1.5846,-1.6004,-1.6095,-1.6004,-1.5839,-1.5733,-1.5499,-1.5431,-1.5431,-1.5357,-1.527,-1.5145,-1.5131,-1.5116,-1.5116,-1.5145,-1.516,-1.5174,-1.5233,-1.5292,-1.5299,-1.5357,-1.5431,-1.5431,-1.5431,-1.5431,-1.5431,-1.5431,-1.5431,-1.5431,-1.5431,-1.5431,-1.5431,-1.5431,-1.5431,-1.5431,-1.5431,-1.5431,-1.5431,-1.5431,-1.5431,-1.5431,-1.5431,-1.5431,-1.534,-1.4999,-1.4831,-1.5173,-1.4999,-1.4908,-1.5257,-1.5238,-1.5148,-1.4807,-1.4076,-1.3345,-1.2881,-1.1623,-0.9941,-0.9282,-0.8822,-0.8755,-0.8703,-0.8703,-0.8703,-0.8703,-0.8703,-0.8703,-0.8703,-0.8703,-0.8703,-0.8703,-0.8703,-0.8703,-2.0925,-2.0925,-2.0925,-2.0925,-2.0925,-2.0925,-2.0822,-2.0624,-2.0522,-2.0308,-1.9998,-1.9791,-1.9576,-1.948,-1.9383,-1.9272,-1.9272,-1.9272,-1.9272,-1.922,-1.8921,-1.8416,-1.7904,-1.7596,-1.7465,-1.7333,-1.7333,-1.7333,-1.7333,-1.7333,-1.7333,-1.7333,-1.7333,-1.7223,-1.7077,-1.6985,-1.6786,-1.6536,-1.6446,-1.6372,-1.6225,-1.6293,-1.6277,-1.6299,-1.6252,-1.5997,-1.5831,-1.5756,-1.559,-1.5499,-1.5492,-1.5582,-1.5582,-1.5582,-1.5499,-1.5506,-1.5506,-1.5492,-1.5431,-1.5506,-1.5499,-1.5416,-1.5409,-1.5409,-1.5423,-1.5506,-1.5582,-1.5499,-1.5582,-1.559,-1.5499,-1.5499,-1.559,-1.5673,-1.5673,-1.5597,-1.5431,-1.5431,-1.5431,-1.5431,-1.5431,-1.5431,-1.5431,-1.5431,-1.5431,-1.5347,-1.5082,-1.509,-1.5257,-1.4824,-1.4741,-1.5173,-1.5431,-1.5311,-1.5296,-1.4696,-1.3933,-1.3467,-1.2316,-1.0676,-0.9547,-0.8944,-0.8831,-0.877,-0.8732,-0.8703,-0.8703,-0.8703,-0.8703,-0.8703,-0.8703,-0.8703,-0.8703,-0.8703,-0.8703,-2.1019,-2.0925,-2.0925,-2.0925,-2.0925,-2.1019,-2.1019,-2.0917,-2.1113,-2.0917,-2.0712,-2.0189,-2.0078,-1.9887,-1.9887,-1.9472,-1.9376,-1.9776,-1.9887,-1.9701,-1.9271,-1.8662,-1.8454,-1.7927,-1.7647,-1.745,-1.7369,-1.7333,-1.7426,-1.7426,-1.7426,-1.7426,-1.7426,-1.7426,-1.7424,-1.7231,-1.7182,-1.7124,-1.6996,-1.6972,-1.6861,-1.6792,-1.683,-1.6731,-1.6343,-1.617,-1.617,-1.6087,-1.5906,-1.553,-1.5643,-1.5824,-1.5906,-1.5824,-1.5741,-1.5741,-1.5748,-1.5665,-1.5506,-1.5665,-1.5665,-1.559,-1.5462,-1.5462,-1.5575,-1.5748,-1.5816,-1.5741,-1.6004,-1.5922,-1.5831,-1.5741,-1.5831,-1.6004,-1.6095,-1.5846,-1.5597,-1.5431,-1.5514,-1.5506,-1.5514,-1.5514,-1.5431,-1.5423,-1.5431,-1.5431,-1.5173,-1.5257,-1.5347,-1.5173,-1.509,-1.5264,-1.5431,-1.5431,-1.5431,-1.5318,-1.4511,-1.3787,-1.2541,-1.1067,-0.972,-0.9119,-0.8963,-0.8869,-0.885,-0.8784,-0.8703,-0.8703,-0.8722,-0.8703,-0.8703,-0.8703,-0.8703,-0.8703,-0.8703,-2.1623,-2.0925,-2.0925,-2.0925,-2.1027,-2.1725,-2.1725,-2.1121,-2.2601,-2.2593,-2.1895,-2.1582,-2.1387,-2.0987,-2.0885,-2.0285,-1.9776,-2.0885,-2.1794,-2.1574,-1.993,-1.9555,-1.9384,-1.8686,-1.8001,-1.7853,-1.7732,-1.7636,-1.7628,-1.7807,-1.7807,-1.7628,-1.7807,-1.79,-1.787,-1.7802,-1.7735,-1.7629,-1.7596,-1.7494,-1.7399,-1.7486,-1.7423,-1.7175,-1.6648,-1.6425,-1.6327,-1.617,-1.6072,-1.5959,-1.5974,-1.6087,-1.6177,-1.6087,-1.5997,-1.5997,-1.5997,-1.5997,-1.5922,-1.5997,-1.6004,-1.5922,-1.5628,-1.5523,-1.5922,-1.6004,-1.6079,-1.6004,-1.6087,-1.6087,-1.6079,-1.5997,-1.6079,-1.617,-1.617,-1.6087,-1.6004,-1.5922,-1.5839,-1.5922,-1.5922,-1.5839,-1.5665,-1.5575,-1.5582,-1.5431,-1.5431,-1.5431,-1.5431,-1.5431,-1.5431,-1.5431,-1.5431,-1.5431,-1.5431,-1.5347,-1.4915,-1.4223,-1.309,-1.1899,-1.0517,-0.9519,-0.9465,-0.925,-0.8982,-0.8907,-0.885,-0.8774,-0.8803,-0.8755,-0.8718,-0.8722,-0.8727,-0.8718,-0.8703,-2.2911,-2.2409,-2.2409,-2.2409,-2.2509,-2.3003,-2.2911,-2.271,-2.3493,-2.3692,-2.3085,-2.2894,-2.2693,-2.2391,-2.2282,-2.1785,-2.1387,-2.2089,-2.2793,-2.2584,-2.1574,-2.118,-2.0769,-1.987,-1.9113,-1.8452,-1.8145,-1.8082,-1.7953,-1.8001,-1.7994,-1.7908,-1.8087,-1.8087,-1.8087,-1.8087,-1.8095,-1.8072,-1.8102,-1.8029,-1.7911,-1.7929,-1.7858,-1.7517,-1.7099,-1.6818,-1.6834,-1.6562,-1.6409,-1.6386,-1.6402,-1.6417,-1.6433,-1.6335,-1.6245,-1.6245,-1.6237,-1.6162,-1.617,-1.6162,-1.6154,-1.6087,-1.5869,-1.5959,-1.6154,-1.6252,-1.6327,-1.6327,-1.6327,-1.6417,-1.6409,-1.6245,-1.6327,-1.6417,-1.6417,-1.6335,-1.6335,-1.6079,-1.5914,-1.5914,-1.5914,-1.5748,-1.5658,-1.5741,-1.5575,-1.5423,-1.5431,-1.5431,-1.5431,-1.5431,-1.5431,-1.5431,-1.5431,-1.5431,-1.5431,-1.5347,-1.5173,-1.4566,-1.3931,-1.2856,-1.178,-1.0794,-1.002,-0.9596,-0.9167,-0.9143,-0.9086,-0.8996,-0.8916,-0.8902,-0.8869,-0.8807,-0.8751,-0.8737,-0.8718,-2.4285,-2.4088,-2.4088,-2.4088,-2.4088,-2.4285,-2.4196,-2.4088,-2.4482,-2.4688,-2.4295,-2.4088,-2.3989,-2.3881,-2.3692,-2.3493,-2.3393,-2.2985,-2.3194,-2.389,-2.3194,-2.2767,-2.2247,-2.1677,-2.0598,-1.8877,-1.8598,-1.8509,-1.8333,-1.8202,-1.828,-1.8179,-1.8172,-1.8272,-1.8272,-1.8179,-1.835,-1.8419,-1.8503,-1.8501,-1.8348,-1.8375,-1.82,-1.7866,-1.7533,-1.7358,-1.7294,-1.7036,-1.6846,-1.67,-1.6751,-1.6735,-1.6711,-1.6574,-1.6476,-1.6484,-1.6476,-1.6402,-1.6327,-1.6327,-1.6402,-1.6252,-1.6312,-1.6312,-1.6327,-1.6507,-1.6621,-1.67,-1.6755,-1.6901,-1.6814,-1.681,-1.6794,-1.6838,-1.6889,-1.6818,-1.6727,-1.6193,-1.5989,-1.5989,-1.6072,-1.5997,-1.5831,-1.5748,-1.559,-1.5506,-1.5431,-1.5431,-1.5431,-1.5431,-1.5514,-1.5514,-1.5514,-1.5431,-1.5431,-1.5347,-1.5173,-1.4741,-1.4307,-1.3516,-1.2553,-1.1527,-1.0526,-0.9756,-0.9288,-0.9346,-0.9294,-0.92,-0.9129,-0.9091,-0.9044,-0.9001,-0.8897,-0.8774,-0.8755,-2.4894,-2.4088,-2.4088,-2.4088,-2.4285,-2.4992,-2.4982,-2.4482,-2.5974,-2.6177,-2.5489,-2.5392,-2.5275,-2.5061,-2.4982,-2.5285,-2.5187,-2.4393,-2.4384,-2.5187,-2.4492,-2.3683,-2.3952,-2.3476,-2.2403,-2.1014,-1.9918,-1.909,-1.8832,-1.8715,-1.8636,-1.8489,-1.855,-1.8643,-1.8643,-1.8635,-1.8643,-1.8651,-1.8743,-1.8672,-1.8716,-1.8669,-1.8549,-1.8208,-1.7874,-1.7715,-1.7683,-1.7628,-1.7384,-1.6845,-1.7024,-1.7007,-1.6836,-1.6747,-1.6719,-1.6648,-1.6648,-1.6566,-1.6574,-1.6598,-1.6664,-1.6566,-1.6629,-1.6621,-1.6621,-1.6711,-1.6877,-1.7175,-1.739,-1.7556,-1.7596,-1.7399,-1.7556,-1.7517,-1.7342,-1.7191,-1.7051,-1.675,-1.6405,-1.6487,-1.6456,-1.6327,-1.6079,-1.5922,-1.5831,-1.5673,-1.5597,-1.5597,-1.5597,-1.559,-1.5582,-1.5582,-1.5582,-1.5506,-1.5431,-1.5347,-1.5173,-1.4741,-1.4307,-1.3789,-1.2838,-1.1912,-1.0931,-0.9996,-0.9568,-0.953,-0.9469,-0.9408,-0.9505,-0.9538,-0.9413,-0.9209,-0.924,-0.9267,-0.8961,-2.6264,-2.5771,-2.5771,-2.5771,-2.5868,-2.6274,-2.6274,-2.5964,-2.687,-2.7061,-2.6668,-2.6572,-2.6466,-2.636,-2.636,-2.6572,-2.638,-2.5887,-2.5877,-2.6486,-2.5868,-2.5178,-2.5392,-2.4884,-2.3987,-2.2805,-2.1387,-2.0143,-1.9502,-1.9186,-1.9036,-1.8972,-1.8854,-1.8827,-1.8827,-1.8735,-1.8827,-1.8827,-1.8827,-1.8827,-1.8827,-1.8827,-1.8708,-1.8533,-1.8247,-1.8073,-1.8009,-1.7834,-1.766,-1.7407,-1.7502,-1.7447,-1.7368,-1.7241,-1.7096,-1.6833,-1.6762,-1.6746,-1.6794,-1.6881,-1.7024,-1.704,-1.7143,-1.7262,-1.727,-1.7318,-1.7342,-1.7501,-1.7612,-1.7763,-1.7739,-1.7787,-1.7763,-1.7747,-1.7628,-1.7556,-1.7493,-1.7265,-1.7107,-1.6925,-1.6716,-1.6397,-1.617,-1.6087,-1.5997,-1.5922,-1.5763,-1.5763,-1.5673,-1.5748,-1.5824,-1.5748,-1.5673,-1.5506,-1.5423,-1.5347,-1.5347,-1.4908,-1.4482,-1.4048,-1.3281,-1.2425,-1.1209,-1.0091,-0.9857,-0.9875,-0.9738,-0.979,-0.9858,-1.0083,-1.0213,-1.0223,-0.9994,-0.9787,-0.9562,-2.7272,-2.7272,-2.7272,-2.7272,-2.7272,-2.7272,-2.7262,-2.7272,-2.7262,-2.7262,-2.7272,-2.7262,-2.7262,-2.7272,-2.7262,-2.7262,-2.7262,-2.6976,-2.6976,-2.7167,-2.7156,-2.6678,-2.6274,-2.5877,-2.545,-2.4282,-2.3474,-2.1867,-2.0549,-1.9822,-1.9495,-1.9383,-1.9113,-1.8939,-1.897,-1.8883,-1.8859,-1.8827,-1.8827,-1.8827,-1.8827,-1.8827,-1.8827,-1.8819,-1.8549,-1.8406,-1.8383,-1.8208,-1.8081,-1.8025,-1.7946,-1.7882,-1.7962,-1.7898,-1.7509,-1.7056,-1.6945,-1.6945,-1.7032,-1.7191,-1.7366,-1.7382,-1.7612,-1.7715,-1.7771,-1.7739,-1.7858,-1.7882,-1.7993,-1.8041,-1.8089,-1.8017,-1.8017,-1.8001,-1.7969,-1.7874,-1.785,-1.7739,-1.7556,-1.7257,-1.6896,-1.6573,-1.6436,-1.6245,-1.6154,-1.6087,-1.5929,-1.5929,-1.5922,-1.6079,-1.6072,-1.6004,-1.5839,-1.559,-1.5423,-1.5431,-1.5347,-1.5257,-1.4999,-1.4734,-1.388,-1.3021,-1.1798,-1.0758,-1.0423,-1.0459,-1.0279,-1.0381,-1.066,-1.0974,-1.1204,-1.1266,-1.1089,-1.067,-1.0288,-2.7272,-2.7272,-2.7272,-2.7272,-2.7272,-2.7272,-2.7272,-2.7272,-2.7272,-2.7272,-2.7272,-2.7272,-2.7272,-2.7272,-2.7272,-2.7272,-2.7272,-2.7262,-2.7262,-2.7272,-2.7262,-2.7262,-2.7061,-2.7061,-2.637,-2.5577,-2.5227,-2.391,-2.1982,-2.0557,-1.9917,-1.9838,-1.9495,-1.9288,-1.9217,-1.9018,-1.8835,-1.8827,-1.8827,-1.8827,-1.8827,-1.8827,-1.8827,-1.8812,-1.8772,-1.8716,-1.87,-1.8597,-1.8597,-1.8589,-1.8367,-1.8369,-1.8515,-1.8042,-1.7882,-1.7668,-1.7644,-1.7644,-1.7596,-1.766,-1.7715,-1.7723,-1.7826,-1.7779,-1.793,-1.8112,-1.824,-1.8255,-1.847,-1.8589,-1.8565,-1.8645,-1.8684,-1.8549,-1.8367,-1.8271,-1.8216,-1.8144,-1.7962,-1.7787,-1.747,-1.7022,-1.6719,-1.6503,-1.6312,-1.6245,-1.6095,-1.6177,-1.617,-1.6327,-1.6319,-1.6162,-1.5922,-1.5673,-1.5506,-1.5431,-1.5431,-1.5431,-1.5347,-1.5166,-1.4132,-1.319,-1.2851,-1.1901,-1.1488,-1.1235,-1.1494,-1.1569,-1.1724,-1.202,-1.2283,-1.2344,-1.2212,-1.1728,-1.1189,-2.7272,-2.7272,-2.7272,-2.7272,-2.7272,-2.7272,-2.7272,-2.7272,-2.7272,-2.7272,-2.7272,-2.7272,-2.7272,-2.7272,-2.7272,-2.7272,-2.7272,-2.7272,-2.7272,-2.7272,-2.7272,-2.7272,-2.7272,-2.7262,-2.6965,-2.6572,-2.5877,-2.4827,-2.3144,-2.182,-2.0835,-2.0213,-1.9828,-1.9519,-1.9455,-1.9233,-1.9018,-1.8899,-1.8827,-1.8827,-1.8827,-1.8827,-1.8827,-1.8827,-1.8827,-1.8827,-1.8827,-1.8827,-1.8827,-1.8804,-1.8645,-1.8613,-1.8696,-1.8568,-1.8375,-1.8375,-1.8367,-1.8176,-1.7858,-1.7977,-1.8041,-1.8039,-1.8216,-1.839,-1.8406,-1.847,-1.8581,-1.8605,-1.8732,-1.8819,-1.8827,-1.8827,-1.8827,-1.8764,-1.8645,-1.8621,-1.8541,-1.8494,-1.8383,-1.8216,-1.8041,-1.762,-1.7211,-1.7038,-1.692,-1.6719,-1.6557,-1.6448,-1.6515,-1.6574,-1.6484,-1.6319,-1.6079,-1.5839,-1.5673,-1.5506,-1.5431,-1.5431,-1.5431,-1.4999,-1.3964,-1.3275,-1.3021,-1.2681,-1.2083,-1.2083,-1.2516,-1.2595,-1.2498,-1.293,-1.3444,-1.3413,-1.331,-1.3259,-1.2708,-2.7272,-2.7272,-2.7272,-2.7272,-2.7272,-2.7272,-2.7272,-2.7272,-2.7272,-2.7272,-2.7272,-2.7272,-2.7272,-2.7272,-2.7272,-2.7272,-2.7272,-2.7272,-2.7272,-2.7272,-2.7272,-2.7272,-2.7272,-2.7262,-2.7262,-2.7272,-2.6572,-2.5557,-2.4487,-2.3421,-2.2287,-2.0604,-2.017,-1.9916,-1.9669,-1.9415,-1.9169,-1.8851,-1.8827,-1.8827,-1.8827,-1.8827,-1.8827,-1.8827,-1.8827,-1.8827,-1.8827,-1.8827,-1.8827,-1.8819,-1.8812,-1.878,-1.8772,-1.8748,-1.8724,-1.8724,-1.8716,-1.8557,-1.8311,-1.8303,-1.83,-1.8403,-1.8506,-1.8724,-1.8764,-1.8827,-1.8819,-1.878,-1.8804,-1.8827,-1.8827,-1.8827,-1.8827,-1.8827,-1.8796,-1.8819,-1.8812,-1.87,-1.8645,-1.8541,-1.8406,-1.8335,-1.8025,-1.7731,-1.7509,-1.7278,-1.7072,-1.6873,-1.6711,-1.6696,-1.6515,-1.6275,-1.5937,-1.5778,-1.5619,-1.5529,-1.5445,-1.5445,-1.5445,-1.5173,-1.4314,-1.3795,-1.3535,-1.3105,-1.2681,-1.2936,-1.3366,-1.3281,-1.3281,-1.3964,-1.4398,-1.4398,-1.4364,-1.4314,-1.3782,-2.7272,-2.7272,-2.7272,-2.7272,-2.7272,-2.7272,-2.7272,-2.7272,-2.7272,-2.7272,-2.7272,-2.7272,-2.7272,-2.7272,-2.7272,-2.7272,-2.7272,-2.7272,-2.7272,-2.7272,-2.7272,-2.7272,-2.7272,-2.7272,-2.7272,-2.7272,-2.6965,-2.637,-2.5674,-2.5032,-2.3313,-2.1221,-2.0797,-2.0484,-2.0075,-1.963,-1.9209,-1.8907,-1.8827,-1.8827,-1.8827,-1.8827,-1.8827,-1.8827,-1.8827,-1.8827,-1.8827,-1.8827,-1.8827,-1.8827,-1.8827,-1.8827,-1.8827,-1.8827,-1.8827,-1.8827,-1.8827,-1.8724,-1.8653,-1.8637,-1.874,-1.8788,-1.8812,-1.8827,-1.8827,-1.8827,-1.8827,-1.8827,-1.8827,-1.8827,-1.8827,-1.8827,-1.8827,-1.8827,-1.8827,-1.8827,-1.8827,-1.8819,-1.8772,-1.8788,-1.8724,-1.8605,-1.8541,-1.8224,-1.789,-1.7652,-1.7382,-1.7175,-1.6846,-1.6708,-1.642,-1.6156,-1.5808,-1.5649,-1.5573,-1.5511,-1.557,-1.5533,-1.5489,-1.5376,-1.4999,-1.4573,-1.4139,-1.388,-1.3626,-1.388,-1.4132,-1.4048,-1.4307,-1.4915,-1.5257,-1.4999,-1.4824,-1.4657,-1.4055,-2.7272,-2.7272,-2.7272,-2.7272,-2.7272,-2.7272,-2.7272,-2.7272,-2.7272,-2.7272,-2.7272,-2.7272,-2.7272,-2.7272,-2.7272,-2.7272,-2.7272,-2.7272,-2.7272,-2.7272,-2.7272,-2.7272,-2.7272,-2.7272,-2.7272,-2.7272,-2.7262,-2.6764,-2.579,-2.579,-2.4205,-2.2541,-2.1737,-2.107,-2.0555,-1.9765,-1.9248,-1.8939,-1.8835,-1.8827,-1.8827,-1.8827,-1.8827,-1.8827,-1.8827,-1.8827,-1.8827,-1.8827,-1.8827,-1.8827,-1.8827,-1.8827,-1.8827,-1.8827,-1.8827,-1.8827,-1.8827,-1.8827,-1.8827,-1.8827,-1.8827,-1.8827,-1.8827,-1.8827,-1.8827,-1.8827,-1.8827,-1.8827,-1.8827,-1.8827,-1.8827,-1.8827,-1.8827,-1.8827,-1.8827,-1.8827,-1.8827,-1.8827,-1.8827,-1.8812,-1.8819,-1.8772,-1.8732,-1.8676,-1.8343,-1.8025,-1.7747,-1.7477,-1.7146,-1.6904,-1.6737,-1.6484,-1.6224,-1.6074,-1.6019,-1.5882,-1.5731,-1.5643,-1.5562,-1.5329,-1.5202,-1.5257,-1.4915,-1.4657,-1.4489,-1.4657,-1.4824,-1.4824,-1.5082,-1.5347,-1.5431,-1.5347,-1.5173,-1.4999,-1.4566,-2.7272,-2.7272,-2.7272,-2.7272,-2.7272,-2.7272,-2.7272,-2.7272,-2.7272,-2.7272,-2.7272,-2.7272,-2.7272,-2.7272,-2.7272,-2.7272,-2.7272,-2.7272,-2.7272,-2.7272,-2.7272,-2.7272,-2.7272,-2.7272,-2.7272,-2.7272,-2.7262,-2.6774,-2.579,-2.5984,-2.4894,-2.3601,-2.2902,-2.2029,-2.068,-1.9763,-1.9241,-1.9066,-1.8867,-1.8835,-1.8827,-1.8827,-1.8827,-1.8827,-1.8827,-1.8827,-1.8827,-1.8827,-1.8827,-1.8827,-1.8827,-1.8827,-1.8827,-1.8827,-1.8827,-1.8827,-1.8827,-1.8827,-1.8827,-1.8827,-1.8827,-1.8827,-1.8827,-1.8827,-1.8827,-1.8827,-1.8827,-1.8827,-1.8827,-1.8827,-1.8827,-1.8827,-1.8827,-1.8827,-1.8827,-1.8827,-1.8827,-1.8827,-1.8827,-1.8827,-1.8827,-1.8827,-1.8812,-1.8756,-1.8541,-1.82,-1.7866,-1.766,-1.7533,-1.7336,-1.7173,-1.7001,-1.6822,-1.6692,-1.674,-1.6431,-1.6189,-1.5804,-1.5624,-1.5303,-1.5245,-1.53,-1.5347,-1.4999,-1.4999,-1.5347,-1.5347,-1.5173,-1.5257,-1.5347,-1.5431,-1.5431,-1.5347,-1.5257,-1.5264,-2.7272,-2.7272,-2.7272,-2.7272,-2.7272,-2.7272,-2.7272,-2.7272,-2.7272,-2.7272,-2.7272,-2.7272,-2.7272,-2.7272,-2.7272,-2.7272,-2.7272,-2.7272,-2.7272,-2.7272,-2.7272,-2.7272,-2.7272,-2.7272,-2.7272,-2.7272,-2.7262,-2.6764,-2.5887,-2.638,-2.5577,-2.4393,-2.3493,-2.2641,-2.0907,-1.9956,-1.9461,-1.9344,-1.9002,-1.8859,-1.8827,-1.8827,-1.8827,-1.8827,-1.8827,-1.8827,-1.8827,-1.8827,-1.8827,-1.8827,-1.8827,-1.8827,-1.8827,-1.8827,-1.8827,-1.8827,-1.8827,-1.8827,-1.8827,-1.8827,-1.8827,-1.8827,-1.8827,-1.8827,-1.8827,-1.8827,-1.8827,-1.8827,-1.8827,-1.8827,-1.8827,-1.8827,-1.8827,-1.8827,-1.8827,-1.8827,-1.8827,-1.8827,-1.8827,-1.8827,-1.8827,-1.8827,-1.8827,-1.878,-1.8629,-1.8351,-1.7993,-1.7826,-1.7787,-1.7684,-1.7612,-1.7342,-1.7167,-1.7039,-1.6952,-1.6817,-1.6557,-1.6146,-1.5769,-1.5539,-1.5394,-1.5405,-1.5376,-1.5264,-1.534,-1.5431,-1.5431,-1.5347,-1.5431,-1.5431,-1.5431,-1.5431,-1.5431,-1.5431,-1.5431,-2.7272,-2.7272,-2.7272,-2.7272,-2.7272,-2.7272,-2.7272,-2.7272,-2.7272,-2.7272,-2.7272,-2.7272,-2.7272,-2.7272,-2.7272,-2.7272,-2.7272,-2.7272,-2.7272,-2.7272,-2.7272,-2.7272,-2.7272,-2.7272,-2.7272,-2.7272,-2.7262,-2.7156,-2.6764,-2.6764,-2.5577,-2.4285,-2.3683,-2.2172,-2.0905,-1.9952,-1.9685,-1.9368,-1.9042,-1.8827,-1.8827,-1.8827,-1.8827,-1.8827,-1.8827,-1.8827,-1.8827,-1.8827,-1.8827,-1.8827,-1.8827,-1.8827,-1.8827,-1.8827,-1.8827,-1.8827,-1.8827,-1.8827,-1.8827,-1.8827,-1.8827,-1.8827,-1.8827,-1.8827,-1.8827,-1.8827,-1.8827,-1.8827,-1.8827,-1.8827,-1.8827,-1.8827,-1.8827,-1.8827,-1.8827,-1.8827,-1.8827,-1.8827,-1.8827,-1.8827,-1.8827,-1.8827,-1.8827,-1.8827,-1.8708,-1.8669,-1.8383,-1.8224,-1.8168,-1.8136,-1.7951,-1.7683,-1.7438,-1.7296,-1.7243,-1.7131,-1.6929,-1.6566,-1.6162,-1.5777,-1.5638,-1.5584,-1.5474,-1.5362,-1.5354,-1.5431,-1.5431,-1.5431,-1.5431,-1.5431,-1.5431,-1.5431,-1.5431,-1.5431,-1.5431,-2.7272,-2.7272,-2.7272,-2.7272,-2.7272,-2.7272,-2.7272,-2.7272,-2.7272,-2.7272,-2.7272,-2.7272,-2.7272,-2.7272,-2.7272,-2.7272,-2.7272,-2.7272,-2.7272,-2.7272,-2.7272,-2.7272,-2.7272,-2.7272,-2.7272,-2.7272,-2.7262,-2.7167,-2.6572,-2.638,-2.5781,-2.4884,-2.3881,-2.3081,-2.1863,-2.1003,-2.016,-1.9757,-1.9177,-1.8827,-1.8827,-1.8827,-1.8827,-1.8827,-1.8827,-1.8827,-1.8827,-1.8827,-1.8827,-1.8827,-1.8827,-1.8827,-1.8827,-1.8827,-1.8827,-1.8827,-1.8827,-1.8827,-1.8827,-1.8827,-1.8827,-1.8827,-1.8827,-1.8827,-1.8827,-1.8827,-1.8827,-1.8827,-1.8827,-1.8827,-1.8827,-1.8827,-1.8827,-1.8827,-1.8827,-1.8827,-1.8827,-1.8827,-1.8827,-1.8827,-1.8827,-1.8827,-1.8827,-1.8827,-1.8788,-1.8804,-1.8796,-1.8653,-1.851,-1.8379,-1.8257,-1.7985,-1.772,-1.7629,-1.7497,-1.7375,-1.7165,-1.6963,-1.6535,-1.6162,-1.5877,-1.5738,-1.5599,-1.546,-1.5445,-1.5431,-1.5431,-1.5431,-1.5431,-1.5431,-1.5431,-1.5431,-1.5431,-1.5431,-1.5431,-2.7241,-2.7262,-2.7272,-2.7272,-2.7272,-2.7272,-2.7272,-2.7272,-2.7272,-2.7272,-2.7272,-2.7272,-2.7272,-2.7272,-2.7272,-2.7272,-2.7272,-2.7272,-2.7272,-2.7272,-2.7272,-2.7272,-2.7272,-2.7272,-2.7272,-2.7272,-2.7262,-2.6965,-2.6081,-2.6284,-2.6177,-2.5761,-2.5101,-2.4272,-2.3157,-2.2187,-2.1094,-2.0153,-1.9698,-1.9412,-1.9279,-1.9271,-1.9371,-1.9455,-1.9363,-1.9271,-1.918,-1.9096,-1.892,-1.8827,-1.8827,-1.8827,-1.8827,-1.8827,-1.8827,-1.8827,-1.8827,-1.8827,-1.8827,-1.8827,-1.8827,-1.8827,-1.8827,-1.8827,-1.8827,-1.8827,-1.8827,-1.8827,-1.8827,-1.8827,-1.8827,-1.8827,-1.8827,-1.8827,-1.8827,-1.8827,-1.8827,-1.8827,-1.8827,-1.8827,-1.8827,-1.8827,-1.8827,-1.8827,-1.8827,-1.8735,-1.8735,-1.8711,-1.8609,-1.854,-1.8333,-1.8157,-1.7987,-1.784,-1.7762,-1.7439,-1.7379,-1.7047,-1.6865,-1.6528,-1.6228,-1.5921,-1.5752,-1.5613,-1.5482,-1.5431,-1.5431,-1.5431,-1.5431,-1.5431,-1.5431,-1.5431,-1.5431,-1.5431,-1.5347,-2.6962,-2.7251,-2.7272,-2.7272,-2.7272,-2.7272,-2.7272,-2.7272,-2.7272,-2.7272,-2.7272,-2.7272,-2.7272,-2.7272,-2.7272,-2.7272,-2.7272,-2.7272,-2.7272,-2.7272,-2.7272,-2.7272,-2.7272,-2.7272,-2.7272,-2.7272,-2.7262,-2.7061,-2.6764,-2.6764,-2.6254,-2.5674,-2.5457,-2.4946,-2.4306,-2.3549,-2.2128,-2.1052,-2.0654,-2.0335,-2.0167,-2.0348,-2.0538,-2.0619,-2.0619,-2.0348,-1.9903,-1.972,-1.9546,-1.892,-1.8827,-1.8827,-1.8827,-1.8827,-1.8827,-1.8827,-1.8827,-1.8827,-1.8827,-1.8827,-1.8827,-1.8827,-1.8827,-1.8827,-1.8827,-1.8827,-1.8827,-1.8827,-1.8827,-1.8827,-1.8827,-1.8827,-1.8827,-1.8827,-1.8827,-1.8827,-1.8827,-1.8827,-1.8827,-1.8827,-1.8827,-1.8827,-1.8827,-1.8827,-1.8827,-1.8735,-1.8735,-1.8735,-1.8651,-1.8473,-1.8381,-1.8195,-1.7908,-1.7714,-1.7613,-1.7296,-1.7274,-1.7208,-1.7033,-1.685,-1.6587,-1.6279,-1.5979,-1.5745,-1.557,-1.5474,-1.5431,-1.5431,-1.5431,-1.5431,-1.5431,-1.5431,-1.5431,-1.5431,-1.5431,-2.6455,-2.6724,-2.692,-2.7086,-2.7251,-2.7272,-2.7272,-2.7272,-2.7272,-2.7272,-2.7272,-2.7272,-2.7272,-2.7272,-2.7272,-2.7272,-2.7272,-2.7272,-2.7272,-2.7272,-2.7272,-2.7272,-2.7272,-2.7272,-2.7272,-2.7272,-2.7272,-2.7262,-2.701,-2.655,-2.6099,-2.6049,-2.5565,-2.5295,-2.4975,-2.4395,-2.3432,-2.2314,-2.1653,-2.1356,-2.1329,-2.1427,-2.1606,-2.1784,-2.1784,-2.1248,-2.0529,-2.043,-1.9812,-1.9004,-1.8827,-1.8827,-1.8827,-1.8827,-1.8827,-1.8827,-1.8827,-1.8827,-1.8827,-1.8827,-1.8827,-1.8827,-1.8827,-1.8827,-1.8827,-1.8827,-1.8827,-1.8827,-1.8827,-1.8827,-1.8827,-1.8827,-1.8827,-1.8827,-1.8827,-1.8827,-1.8827,-1.8827,-1.8827,-1.8827,-1.8827,-1.8827,-1.8827,-1.8827,-1.8827,-1.8827,-1.8735,-1.8651,-1.8465,-1.8195,-1.8187,-1.8087,-1.7714,-1.7527,-1.7333,-1.7333,-1.7311,-1.7282,-1.7216,-1.704,-1.6857,-1.6623,-1.6301,-1.5957,-1.5628,-1.5533,-1.5445,-1.5438,-1.5431,-1.5431,-1.5431,-1.5431,-1.5431,-1.5431,-1.5431,-2.5854,-2.5937,-2.633,-2.6724,-2.7117,-2.7086,-2.7096,-2.7253,-2.7076,-2.7189,-2.7231,-2.7272,-2.7272,-2.7272,-2.7272,-2.7272,-2.7272,-2.7272,-2.7272,-2.7262,-2.7272,-2.7272,-2.7272,-2.7272,-2.7272,-2.7272,-2.7241,-2.72,-2.7044,-2.6588,-2.6218,-2.6475,-2.596,-2.554,-2.5173,-2.4927,-2.4105,-2.334,-2.2549,-2.2227,-2.1961,-2.1872,-2.1872,-2.205,-2.1961,-2.1695,-2.0962,-2.043,-2.0076,-1.9455,-1.9096,-1.9279,-1.9096,-1.9096,-1.9004,-1.892,-1.892,-1.9004,-1.9004,-1.9004,-1.8827,-1.8827,-1.8827,-1.8827,-1.8827,-1.8827,-1.8827,-1.8827,-1.8827,-1.8827,-1.8827,-1.8827,-1.8827,-1.8827,-1.8827,-1.8827,-1.8827,-1.8827,-1.8827,-1.8827,-1.8827,-1.8827,-1.8827,-1.8827,-1.8827,-1.8827,-1.8743,-1.8651,-1.8465,-1.8094,-1.8001,-1.79,-1.7613,-1.7426,-1.7333,-1.7333,-1.7333,-1.7311,-1.7289,-1.7223,-1.704,-1.6828,-1.6616,-1.6177,-1.5723,-1.5555,-1.546,-1.5445,-1.5431,-1.5431,-1.5431,-1.5431,-1.5431,-1.5431,-1.5431,-2.5585,-2.5875,-2.5999,-2.6113,-2.6206,-2.6206,-2.6227,-2.6206,-2.6206,-2.662,-2.7158,-2.7241,-2.722,-2.7148,-2.7138,-2.7138,-2.7169,-2.7065,-2.7241,-2.722,-2.721,-2.7169,-2.7231,-2.7179,-2.72,-2.7272,-2.722,-2.6982,-2.6693,-2.632,-2.603,-2.5989,-2.5606,-2.5264,-2.5161,-2.4954,-2.4415,-2.3917,-2.3744,-2.3202,-2.2843,-2.3464,-2.3831,-2.3744,-2.3657,-2.3115,-2.257,-2.2296,-2.1774,-2.1248,-2.1069,-2.0709,-1.9985,-1.9985,-1.9894,-1.9812,-1.9188,-1.9188,-1.9271,-1.9096,-1.8827,-1.8827,-1.8827,-1.8827,-1.8827,-1.8827,-1.8827,-1.8827,-1.8827,-1.8827,-1.8827,-1.8827,-1.8827,-1.8827,-1.8827,-1.8827,-1.8827,-1.8827,-1.8827,-1.8827,-1.8827,-1.8827,-1.8827,-1.8827,-1.8827,-1.8743,-1.8658,-1.8566,-1.8465,-1.8187,-1.7908,-1.7807,-1.752,-1.7326,-1.7333,-1.7333,-1.7333,-1.7333,-1.7311,-1.726,-1.7194,-1.6952,-1.6674,-1.6221,-1.5833,-1.5687,-1.5548,-1.5445,-1.5431,-1.5431,-1.5431,-1.5431,-1.5431,-1.5431,-1.5431,-2.5068,-2.5295,-2.5513,-2.5699,-2.5865,-2.5885,-2.5885,-2.5885,-2.5885,-2.6165,-2.6589,-2.6651,-2.6651,-2.6662,-2.6651,-2.6703,-2.6693,-2.663,-2.6734,-2.6868,-2.6951,-2.6931,-2.6951,-2.6941,-2.6713,-2.6724,-2.6651,-2.6434,-2.6216,-2.5854,-2.5575,-2.5523,-2.5181,-2.4856,-2.4912,-2.4664,-2.455,-2.4454,-2.455,-2.4186,-2.3637,-2.4186,-2.4454,-2.455,-2.4368,-2.3917,-2.3464,-2.3008,-2.2482,-2.1961,-2.1606,-2.1427,-2.0889,-2.043,-2.0249,-1.9985,-1.9538,-1.9004,-1.9363,-1.9279,-1.8827,-1.8827,-1.8827,-1.8827,-1.8827,-1.8827,-1.8827,-1.8827,-1.8827,-1.8827,-1.8827,-1.8827,-1.8827,-1.8827,-1.8827,-1.8827,-1.8827,-1.8827,-1.8827,-1.8827,-1.8827,-1.8827,-1.8827,-1.8827,-1.8735,-1.8658,-1.8481,-1.8381,-1.828,-1.8187,-1.7908,-1.7621,-1.7426,-1.7326,-1.7333,-1.7333,-1.7333,-1.7333,-1.7333,-1.7304,-1.7238,-1.7004,-1.6704,-1.6389,-1.6096,-1.5848,-1.5709,-1.554,-1.5445,-1.5431,-1.5431,-1.5431,-1.5431,-1.5431,-1.5431,-2.4571,-2.4526,-2.4985,-2.5347,-2.5668,-2.5699,-2.5678,-2.5668,-2.5689,-2.5678,-2.5699,-2.5709,-2.574,-2.5865,-2.5885,-2.5885,-2.5958,-2.6123,-2.6268,-2.6403,-2.6475,-2.6486,-2.6475,-2.6455,-2.6289,-2.6082,-2.5947,-2.5896,-2.5782,-2.5388,-2.5109,-2.5057,-2.484,-2.456,-2.455,-2.455,-2.455,-2.455,-2.455,-2.455,-2.4454,-2.455,-2.455,-2.455,-2.4454,-2.4003,-2.3551,-2.3193,-2.2746,-2.258,-2.2315,-2.1961,-2.1516,-2.097,-2.052,-2.0167,-1.9355,-1.9096,-1.9096,-1.9096,-1.8827,-1.8827,-1.8827,-1.8827,-1.8827,-1.8827,-1.8827,-1.8827,-1.8827,-1.8827,-1.8827,-1.8827,-1.8827,-1.8827,-1.8827,-1.8827,-1.8827,-1.8827,-1.8827,-1.8827,-1.8827,-1.8827,-1.8827,-1.8827,-1.8743,-1.8574,-1.8388,-1.8288,-1.8187,-1.8001,-1.7815,-1.7621,-1.7434,-1.7333,-1.7333,-1.7333,-1.7333,-1.7333,-1.7333,-1.7333,-1.7289,-1.7128,-1.6952,-1.6748,-1.6455,-1.6089,-1.5804,-1.5606,-1.5526,-1.5438,-1.5431,-1.5431,-1.5431,-1.5431,-1.5431,-2.455,-2.455,-2.4643,-2.4747,-2.4809,-2.4819,-2.4799,-2.4799,-2.483,-2.4799,-2.4871,-2.4881,-2.513,-2.5875,-2.5885,-2.5823,-2.5658,-2.573,-2.5844,-2.6009,-2.602,-2.6009,-2.5978,-2.5916,-2.5947,-2.5751,-2.5492,-2.5368,-2.5316,-2.4943,-2.4685,-2.4695,-2.4685,-2.455,-2.455,-2.455,-2.455,-2.455,-2.455,-2.455,-2.455,-2.455,-2.455,-2.455,-2.4464,-2.4368,-2.4272,-2.4272,-2.41,-2.4003,-2.3734,-2.294,-2.2138,-2.1427,-2.097,-2.0167,-1.9363,-1.9271,-1.918,-1.9004,-1.8912,-1.8827,-1.8827,-1.8827,-1.8827,-1.8827,-1.8827,-1.8827,-1.8827,-1.8827,-1.8827,-1.8827,-1.8827,-1.8827,-1.8827,-1.8827,-1.8827,-1.8827,-1.8827,-1.8827,-1.8827,-1.8827,-1.8827,-1.8735,-1.8651,-1.8566,-1.8473,-1.828,-1.7994,-1.7807,-1.7721,-1.7527,-1.7434,-1.7333,-1.7333,-1.7333,-1.7333,-1.7333,-1.7333,-1.7333,-1.7333,-1.7326,-1.7157,-1.696,-1.6616,-1.6228,-1.5965,-1.5709,-1.5526,-1.5431,-1.5431,-1.5431,-1.5431,-1.5431,-1.5431]},{"header":{"parameterUnit":"m.s-1","parameterCategory":1,"la1":31.0,"la2":29.5877,"lo1":-88.7671,"lo2":-86.6584,"dy":0.0162,"dx":0.0185,"nx":115,"ny":88,"refTime":"2023-06-30T18:00:00:Z","depth":0,"parameterNumber":3,"parameterNumberName":"V-component_of_WINDS"},"data":[0.0,0.0,0.0,0.0,0.0,0.0,0.0,0.0,0.0,0.0,0.0,0.0,0.0,0.0,0.0,0.0,0.0,0.0,0.0,0.0,0.0,0.0,0.0,0.0,0.0,0.0,0.0,0.0,0.0,0.0,0.0,0.0,0.0,0.0,0.0,0.0,0.0,0.0,0.0,0.0,0.0,0.0,0.0,0.0,0.0,0.0,0.0,0.0,0.0,0.0,0.0,0.0,0.0,0.0,0.0,0.0,0.0,0.0,0.0,0.0,0.0,0.0,0.0,0.0,0.0,0.0,0.0,0.0,0.0,0.0,0.0,0.0,0.0,0.0,0.0,0.0,0.0,0.0,0.0,0.0,0.0,0.0,0.0,0.0,0.0,0.0,0.0,0.0,0.0,0.0,0.0,0.0,0.0,0.0,0.0,0.0,0.0,0.0,0.0,0.0,0.0,0.0,0.0,0.0,0.0,0.0,0.0,0.0,0.0,0.0,0.0,0.0,0.0,0.0,0.0,0.0,0.0,0.0,0.0,0.0,0.0,0.0,0.0,0.0,0.0,0.0,0.0,0.0,0.0,0.0,0.0,0.0,0.0,0.0,0.0,0.0,0.0,0.0,0.0,0.0,0.0,0.0,0.0,0.0,0.0,0.0,0.0,0.0,0.0,0.0,0.0,0.0,0.0,0.0,0.0,0.0,0.0,0.0,0.0,0.0,0.0,0.0,0.0,0.0,0.0,0.0,0.0,0.0,0.0,0.0,0.0,0.0,0.0,0.0,0.0,0.0,0.0,0.0,0.0,0.0,0.0,0.0,0.0,0.0,0.0,0.0,0.0,0.0,0.0,0.0,0.0,0.0,0.0,0.0,0.0,0.0,0.0,0.0,0.0,0.0,0.0,0.0,0.0,0.0,0.0,0.0,0.0,0.0,0.0,0.0,0.0,0.0,0.0,0.0,0.0,0.0,0.0,0.0,0.0,0.0,0.0,0.0,0.0,0.0,0.0,0.0,0.0,0.0,0.0,0.0,0.0,0.0,0.0,0.0,0.0,0.0,0.0,0.0,0.0,0.0,0.0,0.0,0.0,0.0,0.0,0.0,0.0,0.0,0.0,0.0,0.0,0.0,0.0,0.0,0.0,0.0,0.0,0.0,0.0,0.0,0.0,0.0,0.0,0.0,0.0,0.0,0.0,0.0,0.0,0.0,0.0,0.0,0.0,0.0,0.0,0.0,0.0,0.0,0.0,0.0,0.0,0.0,0.0,0.0,0.0,0.0,0.0,0.0,0.0,0.0,0.0,0.0,0.0,0.0,0.0,0.0,0.0,0.0,0.0,0.0,0.0,0.0,0.0,0.0,0.0,0.0,0.0,0.0,0.0,0.0,0.0,0.0,0.0,0.0,0.0,0.0,0.0,0.0,0.0,0.0,0.0,0.0,0.0,0.0,0.0,0.0,0.0,0.0,0.0,0.0,0.0,0.0,0.0,0.0,0.0,0.0,0.0,0.0,0.0,0.0,0.0,0.0,0.0,0.0,0.0,0.0,0.0,0.0,0.0,0.0,0.0,0.0,0.0,0.0,0.0,0.0,0.0,0.0,0.0,0.0,0.0,0.0,0.0,0.0,0.0,0.0,0.0,0.0,0.0,0.0,0.0,0.0,0.0,0.0,0.0,0.0,0.0,0.0,0.0,0.0,0.0,0.0,0.0,0.0,0.0,0.0,0.0,0.0,0.0,0.0,0.0,0.0,0.0,0.0,0.0,0.0,0.0,0.0,0.0,0.0,0.0,0.0,0.0,0.0,0.0,0.0,0.0,0.0,0.0,0.0,0.0,0.0,0.0,0.0,0.0,0.0,0.0,0.0,0.0,0.0,0.0,0.0,0.0,0.0,0.0,0.0,0.0,0.0,0.0,0.0,0.0,0.0,0.0,0.0,0.0,0.0,0.0,0.0,0.0,0.0,0.0,0.0,0.0,0.0,0.0,0.0,0.0,0.0,0.0,0.0,0.0,0.0,0.0,0.0,0.0,0.0,0.0,0.0,0.0,0.0,0.0,0.0,0.0,0.0,0.0,0.0,0.0,0.0,0.0,0.0,0.0,0.0,0.0,0.0,0.0,0.0,0.0,0.0,0.0,0.0,0.0,0.0,0.0,0.0,0.0,0.0,0.0,0.0,0.0,0.0,0.0,0.0,0.0,0.0,0.0,0.0,0.0,0.0,0.0,0.0,0.0,0.0,0.0,0.0,0.0,0.0,0.0,0.0,0.0,0.0,0.0,0.0,0.0,0.0,0.0,0.0,0.0,0.0,0.0,0.0,0.0,0.0,0.0,0.0,0.0,0.0,0.0,0.0,0.0,0.0,0.0,0.0,0.0,0.0,0.0,0.0,0.0,0.0,0.0,0.0,0.0,0.0,0.0,0.0,0.0,0.0,0.0,0.0,0.0,0.0,0.0,0.0,0.0,0.0,0.0,0.0,0.0,0.0,0.0,0.0,0.0,0.0,0.0,0.0,0.0,0.0,0.0,0.0,0.0,0.0,0.0,0.0,0.0,0.0,0.0,0.0,0.0,0.0,0.0,0.0,0.0,0.0,0.0,0.0,0.0,0.0,0.0,0.0,0.0,0.0,0.0,0.0,0.0,0.0,0.0,0.0,0.0,0.0,0.0,0.0,0.0,0.0,0.0,0.0,0.0,0.0,0.0,0.0,0.0,0.0,0.0,0.0,0.0,0.0,0.0,0.0,0.0,0.0,0.0,0.0,0.0,0.0,0.0,0.0,0.0,0.0,0.0,0.0,0.0,0.0,0.0,0.0,0.0,0.0,0.0,0.0,0.0,0.0,0.0,0.0,0.0,0.0,0.0,0.0,0.0,0.0,0.0,0.0,0.0,0.0,0.0,0.0,0.0,0.0,0.0,0.0,0.0,0.0,0.0,0.0,0.0,0.0,0.0,0.0,0.0,0.0,0.0,0.0,0.0,0.0,0.0,0.0,0.0,0.0,0.0,0.0,0.0,0.0,0.0,0.0,0.0,0.0,0.0,0.0,0.0,0.0,0.0,0.0,0.0,0.0,0.0,0.0,0.0,0.0,0.0,0.0,0.0,0.0,0.0,0.0,0.0,0.0,0.0,0.0,0.0,0.0,0.0,0.0,0.0,0.0,0.0,0.0,0.0,0.0,0.0,0.0,0.0,0.0,0.0,0.0,0.0,0.0,0.0,0.0,0.0,0.0,0.0,0.0,0.0,0.0,0.0,0.0,0.0,0.0,0.0,0.0,0.0,0.0,0.0,0.0,0.0,0.0,0.0,0.0,0.0,0.0,0.0,0.0,0.0,0.0,0.0,0.0,0.0,0.0,0.0,0.0,0.0,0.0,0.0,0.0,0.0,0.0,0.0,0.0,0.0,0.0,0.0,0.0,0.0,0.0,0.0,0.0,0.0,0.0,0.0,0.0,0.0,0.0,0.0,0.0,0.0,0.0,0.0,0.0,0.0,0.0,0.0,0.0,0.0,0.0,0.0,0.0,0.0,0.0,0.0,0.0,0.0,0.0,0.0,0.0,0.0,0.0,0.0,0.0,0.0,0.0,0.0,0.0,0.0,0.0,0.0,0.0,0.0,0.0,0.0,0.0,0.0,0.0,0.0,0.0,0.0,0.0,0.0,0.0,0.0,0.0,0.0,0.0,0.0,0.0,0.0,0.0,0.0,0.0,0.0,0.0,0.0,0.0,0.0,0.0,0.0,0.0,0.0,0.0,0.0,0.0,0.0,0.0,0.0,0.0,0.0,0.0,0.0,0.0,0.0,0.0,0.0,0.0,0.0,0.0,0.0,0.0,0.0,0.0,0.0,0.0,0.0,0.0,0.0,0.0,0.0,0.0,0.0,0.0,0.0,0.0,0.0,0.0,0.0,0.0,0.0,0.0,0.0,0.0,0.0,0.0,0.0,0.0,0.0,0.0,0.0,0.0,0.0,0.0,0.0,0.0,0.0,0.0,0.0,0.0,0.0,0.0,0.0,0.0,0.0,0.0,0.0,0.0,0.0,0.0,0.0,0.0,0.0,0.0,0.0,0.0,0.0,0.0,0.0,0.0,0.0,0.0,0.0,0.0,0.0,0.0,0.0,0.0,0.0,0.0,0.0,0.0,0.0,0.0,0.0,0.0,0.0,0.0,0.0,0.0,0.0,0.0,0.0,0.0,0.0,0.0,0.0,0.0,0.0,0.0,0.0,0.0,0.0,0.0,0.0,0.0,0.0,0.0,0.0,0.0,0.0,0.0,0.0,0.0,0.0,0.0,-1.8266,0.0,0.0,0.0,0.0,0.0,0.0,0.0,0.0,0.0,0.0,0.0,0.0,0.0,0.0,0.0,0.0,0.0,0.0,0.0,0.0,0.0,0.0,0.0,0.0,0.0,0.0,0.0,0.0,0.0,0.0,0.0,0.0,0.0,0.0,0.0,0.0,0.0,0.0,0.0,0.0,0.0,0.0,0.0,0.0,0.0,0.0,0.0,0.0,0.0,0.0,0.0,0.0,0.0,0.0,0.0,0.0,0.0,0.0,0.0,0.0,0.0,0.0,0.0,0.0,0.0,0.0,0.0,0.0,0.0,0.0,0.0,0.0,0.0,0.0,0.0,0.0,0.0,0.0,0.0,0.0,0.0,0.0,0.0,0.0,0.0,0.0,0.0,0.0,0.0,0.0,0.0,0.0,0.0,0.0,0.0,0.0,0.0,0.0,0.0,0.0,0.0,0.0,0.0,0.0,0.0,0.0,0.0,0.0,0.0,0.0,-1.8388,-1.8348,-1.8348,-1.8348,-1.8328,0.0,0.0,0.0,0.0,0.0,0.0,0.0,0.0,0.0,0.0,0.0,0.0,0.0,0.0,0.0,0.0,0.0,0.0,0.0,0.0,0.0,0.0,0.0,0.0,0.0,0.0,0.0,0.0,0.0,0.0,0.0,0.0,0.0,0.0,0.0,0.0,0.0,0.0,0.0,0.0,0.0,0.0,0.0,0.0,0.0,0.0,0.0,0.0,0.0,0.0,0.0,0.0,0.0,0.0,0.0,0.0,0.0,0.0,0.0,0.0,0.0,0.0,0.0,0.0,0.0,0.0,0.0,0.0,0.0,0.0,0.0,0.0,0.0,0.0,0.0,0.0,0.0,0.0,0.0,0.0,0.0,0.0,0.0,0.0,0.0,0.0,0.0,0.0,0.0,0.0,0.0,0.0,0.0,0.0,0.0,0.0,0.0,0.0,0.0,0.0,0.0,0.0,0.0,0.0,0.0,0.0,0.0,0.0,0.0,0.0,0.0,0.0,-1.8445,-1.8408,-1.8371,0.0,0.0,0.0,0.0,0.0,0.0,0.0,0.0,0.0,0.0,0.0,0.0,0.0,0.0,0.0,0.0,0.0,0.0,0.0,0.0,0.0,0.0,0.0,0.0,0.0,0.0,0.0,0.0,0.0,0.0,0.0,0.0,0.0,0.0,0.0,0.0,0.0,0.0,0.0,0.0,0.0,0.0,0.0,0.0,0.0,0.0,0.0,0.0,0.0,0.0,0.0,0.0,0.0,0.0,0.0,0.0,0.0,0.0,0.0,0.0,0.0,0.0,0.0,0.0,0.0,0.0,0.0,0.0,0.0,0.0,0.0,0.0,0.0,0.0,0.0,0.0,0.0,0.0,0.0,0.0,0.0,0.0,0.0,0.0,0.0,0.0,0.0,0.0,0.0,0.0,0.0,0.0,0.0,0.0,0.0,0.0,0.0,0.0,0.0,0.0,0.0,0.0,0.0,0.0,0.0,0.0,0.0,0.0,0.0,0.0,-1.8581,-1.8584,-1.8601,0.0,-1.8566,0.0,0.0,0.0,0.0,0.0,0.0,0.0,0.0,0.0,0.0,0.0,0.0,0.0,0.0,0.0,0.0,0.0,0.0,0.0,0.0,0.0,0.0,0.0,0.0,0.0,0.0,0.0,0.0,0.0,0.0,0.0,0.0,0.0,0.0,0.0,0.0,0.0,0.0,0.0,0.0,0.0,0.0,0.0,0.0,0.0,0.0,0.0,0.0,0.0,0.0,0.0,0.0,0.0,0.0,0.0,0.0,0.0,0.0,0.0,0.0,0.0,0.0,0.0,0.0,0.0,0.0,0.0,0.0,0.0,0.0,0.0,0.0,0.0,0.0,0.0,0.0,0.0,0.0,0.0,0.0,0.0,0.0,0.0,0.0,0.0,0.0,0.0,0.0,0.0,0.0,0.0,0.0,0.0,0.0,0.0,0.0,0.0,0.0,0.0,0.0,0.0,0.0,0.0,0.0,0.0,0.0,0.0,0.0,0.0,0.0,-2.0038,-2.0023,-2.0023,-1.981,0.0,0.0,0.0,0.0,0.0,0.0,0.0,0.0,0.0,0.0,0.0,0.0,0.0,0.0,0.0,0.0,0.0,0.0,0.0,0.0,0.0,0.0,0.0,0.0,0.0,0.0,0.0,0.0,0.0,0.0,0.0,0.0,0.0,0.0,0.0,0.0,0.0,0.0,0.0,0.0,0.0,0.0,0.0,0.0,0.0,0.0,0.0,0.0,0.0,0.0,0.0,0.0,0.0,0.0,0.0,0.0,0.0,0.0,0.0,0.0,0.0,0.0,0.0,0.0,0.0,0.0,0.0,0.0,0.0,0.0,0.0,0.0,0.0,0.0,0.0,0.0,0.0,0.0,0.0,0.0,0.0,0.0,0.0,0.0,0.0,0.0,0.0,0.0,0.0,0.0,0.0,0.0,0.0,0.0,0.0,0.0,0.0,0.0,0.0,0.0,0.0,0.0,0.0,0.0,0.0,0.0,0.0,0.0,0.0,0.0,-2.1018,-2.104,-2.1043,-2.1043,-2.0776,-2.0245,0.0,0.0,0.0,0.0,0.0,0.0,0.0,0.0,0.0,0.0,0.0,0.0,0.0,0.0,0.0,0.0,0.0,0.0,0.0,0.0,0.0,0.0,0.0,0.0,0.0,0.0,0.0,0.0,0.0,0.0,0.0,0.0,0.0,0.0,0.0,0.0,0.0,0.0,0.0,0.0,0.0,0.0,0.0,0.0,0.0,0.0,0.0,0.0,0.0,0.0,0.0,0.0,0.0,0.0,0.0,0.0,0.0,0.0,0.0,0.0,0.0,0.0,0.0,0.0,0.0,0.0,0.0,0.0,0.0,0.0,0.0,0.0,0.0,0.0,0.0,0.0,0.0,0.0,0.0,0.0,0.0,0.0,0.0,0.0,0.0,0.0,0.0,0.0,0.0,0.0,0.0,0.0,0.0,0.0,0.0,0.0,0.0,0.0,0.0,0.0,0.0,0.0,0.0,0.0,0.0,0.0,0.0,0.0,-2.1149,-2.1132,-2.1141,-2.1223,-2.1128,-2.1149,0.0,0.0,0.0,0.0,0.0,0.0,0.0,0.0,0.0,0.0,0.0,0.0,0.0,0.0,0.0,0.0,0.0,0.0,0.0,0.0,0.0,0.0,0.0,0.0,0.0,0.0,0.0,0.0,0.0,0.0,0.0,0.0,0.0,0.0,0.0,0.0,0.0,0.0,0.0,0.0,0.0,0.0,0.0,0.0,0.0,0.0,0.0,0.0,0.0,0.0,0.0,0.0,0.0,0.0,0.0,0.0,0.0,0.0,0.0,0.0,0.0,0.0,0.0,0.0,0.0,0.0,0.0,0.0,0.0,0.0,0.0,0.0,0.0,0.0,0.0,0.0,0.0,0.0,0.0,0.0,0.0,0.0,0.0,0.0,0.0,0.0,0.0,0.0,0.0,0.0,0.0,0.0,0.0,0.0,0.0,0.0,0.0,0.0,0.0,0.0,0.0,0.0,0.0,0.0,0.0,0.0,0.0,0.0,0.0,-2.2722,-2.2747,-2.2751,-2.2794,-2.2794,-2.256,0.0,0.0,0.0,0.0,0.0,0.0,0.0,0.0,0.0,0.0,0.0,0.0,0.0,0.0,0.0,0.0,0.0,0.0,0.0,0.0,0.0,0.0,0.0,0.0,0.0,0.0,0.0,0.0,0.0,0.0,0.0,0.0,0.0,0.0,0.0,0.0,0.0,0.0,0.0,0.0,0.0,0.0,0.0,0.0,0.0,0.0,0.0,0.0,0.0,0.0,0.0,0.0,0.0,0.0,0.0,0.0,0.0,0.0,0.0,0.0,0.0,0.0,0.0,0.0,0.0,0.0,0.0,0.0,0.0,0.0,0.0,0.0,0.0,0.0,0.0,0.0,0.0,0.0,0.0,0.0,0.0,0.0,0.0,0.0,0.0,0.0,0.0,0.0,0.0,0.0,0.0,0.0,0.0,0.0,0.0,0.0,0.0,0.0,0.0,0.0,0.0,0.0,0.0,0.0,0.0,0.0,0.0,0.0,0.0,-2.3616,0.0,-2.37,-2.3721,-2.37,-2.3469,0.0,0.0,0.0,0.0,0.0,0.0,0.0,0.0,0.0,0.0,0.0,0.0,0.0,0.0,0.0,0.0,0.0,0.0,0.0,0.0,0.0,0.0,0.0,0.0,0.0,0.0,0.0,0.0,0.0,0.0,0.0,0.0,0.0,0.0,0.0,0.0,0.0,0.0,0.0,0.0,0.0,0.0,0.0,0.0,0.0,0.0,0.0,0.0,0.0,0.0,0.0,0.0,0.0,0.0,0.0,0.0,0.0,0.0,0.0,0.0,0.0,0.0,0.0,0.0,0.0,0.0,0.0,0.0,0.0,0.0,0.0,0.0,0.0,0.0,0.0,0.0,0.0,0.0,0.0,0.0,0.0,0.0,0.0,0.0,0.0,0.0,0.0,0.0,0.0,0.0,0.0,0.0,0.0,0.0,0.0,0.0,0.0,0.0,0.0,0.0,0.0,0.0,0.0,0.0,0.0,0.0,0.0,0.0,-2.37,-2.3718,-2.37,-2.3721,-2.3804,-2.3743,-2.3725,0.0,0.0,0.0,0.0,0.0,0.0,0.0,0.0,0.0,0.0,0.0,0.0,0.0,0.0,0.0,0.0,0.0,0.0,0.0,0.0,0.0,0.0,0.0,0.0,0.0,0.0,0.0,0.0,0.0,0.0,0.0,0.0,0.0,0.0,0.0,0.0,0.0,0.0,0.0,0.0,0.0,0.0,0.0,0.0,0.0,0.0,0.0,0.0,0.0,0.0,0.0,0.0,0.0,0.0,0.0,0.0,0.0,0.0,0.0,0.0,0.0,0.0,0.0,0.0,0.0,0.0,0.0,0.0,0.0,0.0,0.0,0.0,0.0,0.0,0.0,0.0,0.0,0.0,0.0,0.0,0.0,0.0,0.0,0.0,0.0,0.0,0.0,0.0,0.0,0.0,0.0,0.0,0.0,0.0,0.0,0.0,0.0,0.0,0.0,0.0,0.0,0.0,0.0,0.0,0.0,0.0,0.0,0.0,0.0,-2.3783,-2.3768,-2.3771,-2.381,-2.3774,-2.3774,0.0,0.0,0.0,0.0,0.0,0.0,0.0,0.0,0.0,0.0,0.0,0.0,0.0,0.0,0.0,0.0,0.0,0.0,0.0,0.0,0.0,0.0,0.0,0.0,0.0,0.0,0.0,0.0,0.0,0.0,0.0,0.0,0.0,0.0,0.0,0.0,0.0,0.0,0.0,0.0,0.0,0.0,0.0,0.0,0.0,0.0,0.0,0.0,0.0,0.0,0.0,0.0,0.0,0.0,0.0,0.0,0.0,0.0,0.0,0.0,0.0,0.0,0.0,0.0,0.0,0.0,0.0,0.0,0.0,0.0,0.0,0.0,0.0,0.0,0.0,0.0,0.0,0.0,0.0,0.0,0.0,0.0,0.0,0.0,0.0,0.0,0.0,0.0,0.0,0.0,0.0,0.0,0.0,0.0,0.0,0.0,0.0,0.0,0.0,0.0,0.0,0.0,0.0,0.0,0.0,0.0,0.0,0.0,0.0,-2.4675,-2.4407,-2.4248,-2.4248,-2.4248,-2.4103,-2.3813,0.0,0.0,0.0,0.0,0.0,0.0,0.0,0.0,0.0,0.0,0.0,0.0,0.0,0.0,0.0,0.0,0.0,0.0,0.0,0.0,0.0,0.0,0.0,0.0,0.0,0.0,0.0,0.0,0.0,0.0,0.0,0.0,0.0,0.0,0.0,0.0,0.0,0.0,0.0,0.0,0.0,0.0,0.0,0.0,0.0,0.0,0.0,0.0,0.0,0.0,0.0,0.0,0.0,0.0,0.0,0.0,0.0,0.0,0.0,0.0,0.0,0.0,0.0,0.0,0.0,0.0,0.0,0.0,0.0,0.0,0.0,0.0,0.0,0.0,0.0,0.0,0.0,0.0,0.0,0.0,0.0,0.0,0.0,0.0,0.0,0.0,0.0,0.0,0.0,0.0,0.0,0.0,0.0,0.0,0.0,0.0,0.0,0.0,0.0,0.0,0.0,0.0,0.0,0.0,0.0,0.0,0.0,0.0,-2.6258,-2.5534,-2.5117,-2.5063,-2.5063,-2.4701,0.0,0.0,0.0,0.0,0.0,0.0,0.0,0.0,0.0,0.0,0.0,0.0,0.0,0.0,0.0,0.0,0.0,0.0,0.0,0.0,0.0,0.0,0.0,0.0,0.0,0.0,0.0,0.0,0.0,0.0,0.0,0.0,0.0,0.0,0.0,0.0,0.0,0.0,0.0,0.0,0.0,0.0,0.0,0.0,0.0,0.0,0.0,0.0,0.0,0.0,0.0,0.0,0.0,0.0,0.0,0.0,0.0,0.0,0.0,0.0,0.0,0.0,0.0,0.0,0.0,0.0,0.0,0.0,0.0,0.0,0.0,0.0,0.0,0.0,0.0,0.0,0.0,0.0,0.0,0.0,0.0,0.0,0.0,0.0,0.0,0.0,0.0,0.0,0.0,0.0,0.0,0.0,0.0,0.0,0.0,0.0,0.0,0.0,0.0,0.0,0.0,0.0,0.0,0.0,0.0,0.0,0.0,0.0,0.0,-2.7055,-2.6892,-2.6475,-2.5914,-2.5896,-2.5787,0.0,0.0,0.0,0.0,0.0,0.0,0.0,0.0,0.0,0.0,0.0,0.0,0.0,0.0,0.0,0.0,0.0,0.0,0.0,0.0,0.0,0.0,0.0,0.0,0.0,0.0,0.0,0.0,0.0,0.0,0.0,0.0,0.0,0.0,0.0,0.0,0.0,0.0,0.0,0.0,0.0,0.0,0.0,0.0,0.0,0.0,0.0,0.0,0.0,0.0,0.0,0.0,0.0,0.0,0.0,0.0,0.0,0.0,0.0,0.0,0.0,0.0,0.0,0.0,0.0,0.0,0.0,0.0,0.0,0.0,0.0,0.0,0.0,0.0,0.0,0.0,0.0,0.0,0.0,0.0,0.0,0.0,0.0,0.0,0.0,0.0,0.0,0.0,0.0,0.0,0.0,0.0,0.0,0.0,0.0,0.0,0.0,0.0,0.0,0.0,0.0,0.0,0.0,0.0,0.0,0.0,0.0,0.0,-2.7435,-2.7881,-2.7924,-2.7707,-2.7212,-2.6874,-2.6548,0.0,0.0,0.0,0.0,0.0,0.0,0.0,0.0,0.0,0.0,0.0,0.0,0.0,0.0,0.0,0.0,0.0,0.0,0.0,0.0,0.0,0.0,0.0,0.0,0.0,0.0,0.0,0.0,0.0,0.0,0.0,0.0,0.0,0.0,0.0,0.0,0.0,0.0,0.0,0.0,0.0,0.0,0.0,0.0,0.0,0.0,0.0,0.0,0.0,0.0,0.0,0.0,0.0,0.0,0.0,0.0,0.0,0.0,0.0,0.0,0.0,0.0,0.0,0.0,0.0,0.0,0.0,0.0,0.0,0.0,0.0,0.0,0.0,0.0,0.0,0.0,0.0,0.0,0.0,0.0,0.0,0.0,0.0,0.0,0.0,0.0,0.0,0.0,0.0,0.0,0.0,0.0,0.0,0.0,0.0,0.0,0.0,0.0,0.0,0.0,0.0,0.0,0.0,0.0,0.0,0.0,0.0,0.0,-2.8587,-2.8587,-2.8587,-2.8587,-2.8569,-2.7899,-2.72,0.0,0.0,0.0,0.0,0.0,0.0,0.0,0.0,0.0,0.0,0.0,0.0,0.0,0.0,0.0,0.0,0.0,0.0,0.0,0.0,0.0,0.0,0.0,0.0,0.0,0.0,0.0,0.0,0.0,0.0,0.0,0.0,0.0,0.0,0.0,0.0,0.0,0.0,0.0,0.0,0.0,0.0,0.0,0.0,0.0,0.0,0.0,0.0,0.0,0.0,0.0,0.0,0.0,0.0,0.0,0.0,0.0,0.0,0.0,0.0,0.0,0.0,0.0,0.0,0.0,0.0,0.0,0.0,0.0,0.0,0.0,0.0,0.0,0.0,0.0,0.0,0.0,0.0,0.0,0.0,0.0,0.0,0.0,0.0,0.0,0.0,0.0,0.0,0.0,0.0,0.0,0.0,0.0,0.0,0.0,0.0,0.0,0.0,0.0,0.0,0.0,0.0,0.0,0.0,0.0,0.0,0.0,0.0,-2.8587,-2.8587,-2.8587,-2.8587,-2.8587,-2.8424,-2.8286,0.0,0.0,0.0,0.0,0.0,0.0,0.0,0.0,0.0,0.0,0.0,0.0,0.0,0.0,0.0,0.0,0.0,0.0,0.0,0.0,0.0,0.0,0.0,0.0,0.0,0.0,0.0,0.0,0.0,0.0,0.0,0.0,0.0,0.0,0.0,0.0,0.0,0.0,0.0,0.0,0.0,0.0,0.0,0.0,0.0,0.0,0.0,0.0,-2.1024,0.0,0.0,0.0,0.0,0.0,0.0,0.0,0.0,0.0,0.0,0.0,0.0,0.0,0.0,0.0,0.0,0.0,0.0,0.0,0.0,0.0,0.0,0.0,0.0,0.0,0.0,0.0,0.0,0.0,0.0,0.0,0.0,0.0,0.0,0.0,0.0,0.0,0.0,0.0,0.0,0.0,0.0,0.0,0.0,0.0,0.0,0.0,0.0,0.0,0.0,0.0,0.0,0.0,0.0,0.0,0.0,0.0,0.0,0.0,-2.8587,-2.8587,-2.8587,-2.8587,-2.8587,-2.8587,-2.8587,0.0,0.0,0.0,0.0,0.0,0.0,0.0,0.0,0.0,0.0,0.0,0.0,0.0,0.0,0.0,0.0,0.0,0.0,0.0,0.0,0.0,0.0,0.0,0.0,0.0,0.0,0.0,0.0,0.0,0.0,0.0,0.0,0.0,0.0,0.0,0.0,0.0,0.0,0.0,0.0,0.0,0.0,0.0,0.0,0.0,0.0,0.0,0.0,0.0,0.0,0.0,0.0,0.0,0.0,0.0,0.0,0.0,0.0,0.0,0.0,0.0,0.0,0.0,0.0,0.0,0.0,0.0,0.0,0.0,0.0,0.0,0.0,0.0,0.0,0.0,0.0,0.0,0.0,0.0,0.0,0.0,0.0,0.0,0.0,0.0,0.0,0.0,0.0,0.0,0.0,0.0,0.0,0.0,0.0,0.0,0.0,0.0,0.0,0.0,0.0,0.0,0.0,0.0,0.0,0.0,0.0,0.0,-2.8587,-2.8587,-2.8587,-2.8587,-2.8587,-2.8587,-2.8587,-2.8587,-2.8587,0.0,0.0,0.0,0.0,0.0,0.0,0.0,0.0,0.0,0.0,0.0,0.0,0.0,0.0,0.0,0.0,0.0,0.0,0.0,0.0,0.0,0.0,0.0,0.0,0.0,0.0,0.0,0.0,0.0,0.0,0.0,0.0,0.0,0.0,0.0,0.0,0.0,0.0,-2.01,-2.0167,0.0,0.0,0.0,0.0,0.0,0.0,0.0,0.0,-2.1154,0.0,0.0,0.0,0.0,0.0,0.0,0.0,0.0,0.0,0.0,0.0,0.0,0.0,0.0,0.0,0.0,0.0,0.0,0.0,0.0,0.0,0.0,0.0,0.0,0.0,0.0,0.0,0.0,0.0,0.0,0.0,0.0,0.0,0.0,0.0,0.0,0.0,0.0,0.0,0.0,0.0,0.0,0.0,0.0,0.0,0.0,0.0,0.0,0.0,0.0,0.0,0.0,0.0,0.0,0.0,0.0,-2.8587,-2.8587,-2.8587,-2.8587,-2.8587,-2.8587,-2.8587,-2.8587,-2.8587,-2.8587,0.0,0.0,0.0,0.0,0.0,0.0,0.0,0.0,0.0,0.0,0.0,0.0,0.0,0.0,0.0,0.0,0.0,0.0,0.0,0.0,0.0,0.0,0.0,0.0,0.0,0.0,0.0,0.0,0.0,0.0,0.0,0.0,0.0,0.0,0.0,0.0,0.0,0.0,0.0,-2.1109,-2.1424,0.0,0.0,0.0,0.0,0.0,0.0,0.0,0.0,-2.2575,0.0,0.0,0.0,0.0,0.0,0.0,0.0,0.0,0.0,0.0,0.0,0.0,0.0,0.0,0.0,0.0,0.0,0.0,0.0,0.0,0.0,0.0,0.0,0.0,0.0,0.0,0.0,0.0,0.0,0.0,0.0,0.0,0.0,0.0,0.0,0.0,0.0,0.0,0.0,0.0,0.0,0.0,0.0,0.0,0.0,0.0,0.0,0.0,0.0,0.0,0.0,0.0,0.0,0.0,0.0,-2.8587,-2.8587,-2.8587,-2.8587,-2.8587,-2.8587,-2.8587,-2.8587,-2.8587,0.0,0.0,0.0,0.0,0.0,0.0,0.0,0.0,0.0,0.0,0.0,0.0,0.0,0.0,0.0,0.0,0.0,0.0,0.0,0.0,0.0,0.0,0.0,0.0,0.0,0.0,0.0,0.0,0.0,0.0,0.0,0.0,0.0,0.0,0.0,0.0,0.0,0.0,0.0,0.0,-2.2284,-2.2304,-2.3184,0.0,0.0,0.0,0.0,0.0,0.0,-2.3295,-2.3055,0.0,0.0,0.0,0.0,0.0,0.0,0.0,0.0,0.0,0.0,0.0,0.0,0.0,0.0,0.0,0.0,0.0,0.0,0.0,0.0,0.0,0.0,0.0,0.0,0.0,0.0,0.0,0.0,0.0,0.0,0.0,0.0,0.0,0.0,0.0,0.0,0.0,0.0,0.0,0.0,0.0,0.0,0.0,0.0,0.0,0.0,0.0,0.0,0.0,0.0,0.0,0.0,0.0,0.0,0.0,-2.8587,-2.8587,-2.8587,-2.8587,-2.8587,-2.8587,-2.8587,-2.8587,-2.8587,0.0,0.0,0.0,0.0,0.0,0.0,0.0,0.0,0.0,0.0,0.0,0.0,0.0,0.0,0.0,0.0,0.0,0.0,0.0,0.0,0.0,0.0,0.0,0.0,0.0,0.0,0.0,0.0,0.0,0.0,0.0,0.0,0.0,0.0,0.0,0.0,0.0,0.0,0.0,0.0,0.0,-2.3174,-2.4025,-2.3575,0.0,0.0,0.0,0.0,-2.4148,-2.3707,0.0,0.0,0.0,0.0,0.0,0.0,0.0,0.0,0.0,0.0,0.0,0.0,0.0,0.0,0.0,0.0,0.0,0.0,0.0,0.0,0.0,0.0,0.0,0.0,0.0,0.0,0.0,0.0,0.0,0.0,0.0,0.0,0.0,0.0,0.0,0.0,0.0,0.0,0.0,0.0,0.0,0.0,0.0,0.0,0.0,0.0,0.0,0.0,0.0,0.0,0.0,0.0,0.0,0.0,0.0,0.0,-2.8587,-2.8587,-2.8587,-2.8587,-2.8587,-2.8587,-2.8587,-2.8587,-2.8587,0.0,0.0,0.0,0.0,0.0,0.0,0.0,0.0,0.0,0.0,0.0,0.0,0.0,0.0,0.0,0.0,0.0,0.0,0.0,0.0,0.0,0.0,0.0,0.0,0.0,0.0,0.0,0.0,0.0,0.0,0.0,0.0,0.0,0.0,0.0,0.0,0.0,0.0,0.0,0.0,0.0,-2.4064,-2.4938,-2.4973,-2.4916,0.0,0.0,-2.4941,-2.5058,-2.5022,0.0,0.0,0.0,0.0,0.0,0.0,0.0,0.0,0.0,0.0,0.0,0.0,0.0,0.0,0.0,0.0,0.0,0.0,0.0,0.0,0.0,0.0,0.0,0.0,0.0,0.0,0.0,0.0,0.0,0.0,0.0,0.0,0.0,0.0,0.0,0.0,0.0,0.0,0.0,0.0,0.0,0.0,0.0,0.0,0.0,0.0,0.0,0.0,0.0,0.0,0.0,0.0,0.0,0.0,0.0,-2.8587,-2.8587,-2.8587,-2.8587,-2.8587,-2.8587,-2.8587,-2.8587,-2.8587,-2.8587,0.0,0.0,0.0,0.0,0.0,0.0,0.0,0.0,0.0,0.0,0.0,0.0,0.0,0.0,0.0,0.0,0.0,0.0,0.0,0.0,0.0,0.0,0.0,0.0,0.0,0.0,0.0,0.0,0.0,0.0,0.0,0.0,0.0,0.0,0.0,0.0,0.0,0.0,0.0,0.0,0.0,0.0,-2.5834,-2.591,0.0,0.0,0.0,-2.5903,-2.5926,0.0,0.0,0.0,0.0,0.0,0.0,0.0,0.0,0.0,0.0,0.0,0.0,0.0,0.0,0.0,0.0,0.0,0.0,0.0,0.0,0.0,0.0,0.0,0.0,0.0,0.0,0.0,0.0,0.0,0.0,0.0,0.0,0.0,0.0,0.0,0.0,0.0,0.0,0.0,0.0,0.0,0.0,0.0,0.0,0.0,0.0,0.0,0.0,0.0,0.0,0.0,0.0,0.0,0.0,0.0,0.0,0.0,-2.8587,-2.8587,-2.8587,-2.8587,-2.8587,-2.8587,-2.8587,-2.8587,0.0,0.0,0.0,0.0,0.0,0.0,0.0,0.0,0.0,0.0,0.0,0.0,0.0,0.0,0.0,0.0,0.0,0.0,0.0,0.0,0.0,0.0,0.0,0.0,0.0,0.0,0.0,-2.4827,0.0,0.0,0.0,0.0,0.0,0.0,0.0,0.0,0.0,0.0,0.0,0.0,0.0,0.0,-2.6465,-2.6402,-2.6637,-2.679,0.0,0.0,-2.6752,-2.6783,-2.7355,-2.7589,0.0,0.0,0.0,0.0,0.0,0.0,0.0,0.0,0.0,0.0,0.0,0.0,0.0,0.0,0.0,0.0,0.0,0.0,0.0,0.0,0.0,0.0,0.0,0.0,0.0,0.0,0.0,0.0,0.0,0.0,0.0,0.0,0.0,0.0,0.0,0.0,0.0,0.0,0.0,0.0,0.0,0.0,0.0,0.0,0.0,0.0,0.0,0.0,0.0,0.0,0.0,0.0,0.0,0.0,0.0,-2.8587,-2.8587,-2.8587,-2.8587,-2.8587,-2.8587,-2.8587,-2.8587,-2.8587,0.0,0.0,0.0,0.0,0.0,0.0,0.0,0.0,0.0,0.0,0.0,0.0,0.0,0.0,0.0,0.0,0.0,0.0,0.0,0.0,0.0,0.0,0.0,0.0,0.0,0.0,0.0,0.0,0.0,0.0,0.0,0.0,0.0,0.0,0.0,0.0,0.0,0.0,0.0,0.0,0.0,-2.6402,-2.6402,-2.7109,-2.7606,0.0,0.0,-2.7605,-2.7625,-2.7719,-2.7762,-2.7704,0.0,0.0,0.0,0.0,0.0,0.0,0.0,0.0,0.0,0.0,0.0,0.0,0.0,0.0,0.0,0.0,0.0,0.0,0.0,0.0,0.0,0.0,0.0,0.0,0.0,0.0,0.0,0.0,0.0,0.0,0.0,0.0,0.0,0.0,0.0,0.0,0.0,0.0,0.0,0.0,0.0,0.0,0.0,0.0,0.0,0.0,0.0,0.0,0.0,0.0,0.0,0.0,0.0,-2.8587,-2.8587,-2.8587,-2.8587,-2.8587,-2.8587,-2.8587,-2.8587,-2.8587,-2.8587,0.0,0.0,0.0,0.0,0.0,0.0,0.0,0.0,0.0,0.0,0.0,0.0,0.0,0.0,0.0,0.0,0.0,0.0,0.0,0.0,0.0,0.0,0.0,0.0,0.0,0.0,0.0,0.0,-2.7296,-2.7431,-2.7603,0.0,0.0,0.0,0.0,0.0,0.0,0.0,0.0,0.0,0.0,-2.7975,-2.795,-2.8268,0.0,0.0,-2.8427,-2.846,-2.844,-2.8906,-2.9123,-2.8626,-2.8248,0.0,0.0,0.0,0.0,0.0,0.0,0.0,0.0,0.0,0.0,0.0,0.0,0.0,0.0,0.0,0.0,0.0,0.0,0.0,0.0,0.0,0.0,0.0,0.0,0.0,0.0,0.0,0.0,0.0,0.0,0.0,0.0,0.0,0.0,0.0,0.0,0.0,0.0,0.0,0.0,0.0,0.0,0.0,0.0,0.0,0.0,0.0,0.0,0.0,0.0,0.0,0.0,-2.8587,-2.8587,-2.8587,-2.8587,-2.8587,-2.8587,-2.8587,-2.8587,-2.8587,-2.8587,0.0,0.0,0.0,0.0,0.0,0.0,0.0,0.0,0.0,0.0,0.0,0.0,0.0,0.0,0.0,0.0,0.0,0.0,0.0,0.0,0.0,0.0,0.0,0.0,0.0,0.0,0.0,0.0,-2.8409,-2.8474,-2.8493,0.0,0.0,0.0,0.0,0.0,0.0,0.0,0.0,0.0,0.0,-2.897,-2.8905,-2.9167,-2.9333,-2.9306,-2.9287,-2.9306,-2.9292,-2.9798,-3.0016,-2.9461,0.0,0.0,0.0,0.0,0.0,0.0,0.0,0.0,0.0,0.0,0.0,0.0,0.0,0.0,0.0,0.0,0.0,0.0,0.0,0.0,0.0,0.0,0.0,0.0,0.0,0.0,0.0,0.0,0.0,0.0,-2.8902,0.0,0.0,0.0,0.0,0.0,0.0,0.0,0.0,0.0,0.0,0.0,0.0,0.0,0.0,0.0,0.0,0.0,0.0,0.0,0.0,0.0,0.0,-2.8605,-2.8587,-2.8641,-2.8623,-2.8623,-2.8605,-2.8641,-2.8641,-2.8587,-2.8587,-2.8587,0.0,0.0,0.0,0.0,0.0,0.0,0.0,0.0,0.0,0.0,0.0,0.0,0.0,0.0,0.0,0.0,0.0,0.0,0.0,0.0,0.0,0.0,0.0,0.0,0.0,0.0,-2.7444,-2.8153,-2.866,0.0,0.0,0.0,0.0,0.0,0.0,0.0,0.0,0.0,0.0,-2.8395,-2.8911,-2.893,-2.9631,-3.0147,-3.0147,-3.0147,-3.0147,-3.0147,-3.0166,-3.0204,0.0,0.0,0.0,0.0,0.0,0.0,0.0,0.0,0.0,0.0,0.0,0.0,0.0,0.0,0.0,0.0,0.0,0.0,0.0,0.0,0.0,0.0,0.0,0.0,0.0,0.0,0.0,-2.8975,-2.8975,0.0,0.0,0.0,0.0,0.0,0.0,0.0,0.0,0.0,0.0,0.0,-2.8929,-2.8929,0.0,0.0,0.0,0.0,0.0,0.0,0.0,0.0,0.0,0.0,0.0,0.0,-2.9391,-2.9409,-2.9934,-3.0188,-3.0206,-3.0206,-3.0188,-3.0188,-2.9663,-2.9137,-2.8605,0.0,0.0,0.0,0.0,0.0,0.0,0.0,0.0,0.0,0.0,0.0,0.0,0.0,0.0,0.0,0.0,0.0,0.0,0.0,0.0,0.0,0.0,0.0,0.0,0.0,-2.9197,0.0,0.0,0.0,0.0,0.0,0.0,0.0,0.0,0.0,0.0,0.0,-2.9363,-2.9363,-2.9593,-2.9765,-2.9746,-3.0013,-3.0204,0.0,0.0,0.0,0.0,0.0,0.0,0.0,0.0,0.0,0.0,0.0,0.0,0.0,0.0,-2.9197,-2.7906,-2.7751,-2.7768,-2.7482,0.0,0.0,0.0,0.0,0.0,0.0,0.0,0.0,0.0,0.0,0.0,0.0,0.0,0.0,-2.8952,0.0,-2.8947,0.0,0.0,0.0,0.0,0.0,0.0,0.0,0.0,-2.8929,-2.8905,-2.8858,-2.8858,-2.898,0.0,-2.9253,-2.9406,0.0,0.0,0.0,0.0,0.0,0.0,0.0,0.0,-2.9797,-2.9826,-3.0586,-3.1003,-3.1003,-3.1003,-3.1003,-3.0985,-3.0477,-2.997,-2.9463,-2.9174,-2.9029,0.0,0.0,0.0,0.0,0.0,0.0,0.0,0.0,0.0,0.0,0.0,0.0,0.0,0.0,0.0,0.0,0.0,0.0,0.0,0.0,0.0,0.0,0.0,-3.0094,0.0,0.0,0.0,0.0,0.0,0.0,0.0,0.0,0.0,-3.0204,-3.0204,-3.0204,-3.0204,-3.0204,-3.0204,-3.0204,0.0,0.0,0.0,0.0,0.0,0.0,0.0,-3.0204,-3.0204,-3.0204,-3.0218,-3.0207,-3.0253,-3.0279,-3.0299,0.0,0.0,-2.8686,-2.8534,-2.8549,-2.8275,-2.8232,-2.8246,-2.8298,-2.8281,-2.8401,0.0,0.0,0.0,0.0,0.0,0.0,0.0,0.0,-2.8997,-2.9033,0.0,-2.8961,0.0,0.0,0.0,0.0,0.0,-2.8937,0.0,0.0,-2.8913,-2.8858,-2.8895,-2.8895,-2.9302,-2.9995,-3.0088,-3.049,-3.1071,-2.9624,0.0,0.0,0.0,0.0,0.0,0.0,-2.9844,-2.9942,-3.0695,-3.1093,-3.1093,-3.1093,-3.1075,-3.1039,-3.1039,-3.1003,-3.0948,-3.0224,-2.986,-2.989,-2.9223,0.0,0.0,0.0,0.0,0.0,0.0,0.0,0.0,0.0,0.0,0.0,0.0,0.0,0.0,0.0,0.0,0.0,0.0,0.0,0.0,-3.0102,0.0,0.0,0.0,0.0,0.0,0.0,0.0,0.0,0.0,0.0,-3.0185,-3.0185,-3.0204,-3.0204,0.0,0.0,0.0,0.0,-3.0185,-3.0204,-3.0204,-3.0204,-3.0204,-3.0204,-3.0204,-3.0204,0.0,0.0,-3.0207,-3.0207,-3.0221,-3.0279,-3.0336,-3.0136,-2.9297,-2.9206,-2.905,-2.8417,-2.8312,-2.8252,-2.8363,-2.8533,-2.8732,-3.2224,0.0,0.0,0.0,0.0,-3.0705,-3.0705,-3.0681,-3.0631,-3.0625,-3.0606,-3.0531,0.0,0.0,0.0,0.0,0.0,0.0,-3.0524,-3.0524,-3.0524,-3.0498,-3.042,-3.0438,-3.0529,-3.0721,-3.0721,-3.0848,-3.1021,-3.0585,-3.0085,-2.9566,0.0,0.0,0.0,0.0,-3.093,-3.1528,-3.2306,-3.2723,-3.2723,-3.2705,-3.2433,-3.1872,-3.1854,-3.1564,-3.1021,-3.0767,-3.0422,-2.9926,-2.9682,0.0,0.0,0.0,0.0,0.0,0.0,0.0,0.0,0.0,0.0,0.0,0.0,0.0,0.0,0.0,0.0,0.0,0.0,0.0,-3.0176,-3.0157,-3.0176,0.0,0.0,0.0,0.0,0.0,0.0,0.0,0.0,0.0,-3.0123,-3.019,-3.0204,0.0,0.0,-3.0123,-3.0123,-3.0123,-3.0123,-3.0123,-3.0171,0.0,0.0,-3.0204,-3.0204,-3.0204,-3.0204,-3.0204,-3.0218,-3.0218,-3.0199,-3.0232,-3.024,-3.0171,-2.996,-3.0004,-3.0044,-2.9897,-2.992,-2.9966,-2.9998,-3.0063,-3.0138,-3.3369,-3.2243,-3.1931,-3.1594,-3.1294,-3.1302,-3.1283,-3.1276,-3.1224,-3.1224,-3.1224,-3.1146,-3.1119,-3.1119,-3.1137,0.0,0.0,0.0,-3.1137,-3.1137,-3.1119,-3.1111,-3.1057,-3.1057,-3.122,-3.1455,-3.1529,-3.1646,-3.1944,-3.1646,-3.1275,-3.0803,0.0,0.0,-3.0278,-3.1075,-3.1709,-3.2216,-3.2995,-3.3393,-3.3393,-3.3393,-3.3158,-3.2705,-3.2669,-3.2433,-3.1962,-3.1636,-3.1274,-3.0831,-3.0539,-3.0061,0.0,0.0,0.0,0.0,0.0,0.0,0.0,0.0,0.0,0.0,0.0,-3.0117,0.0,0.0,0.0,0.0,-3.0171,-3.0138,-3.0138,-3.0157,0.0,0.0,0.0,0.0,0.0,0.0,0.0,-3.0128,-3.0128,-3.0094,-3.009,-3.0123,-3.0171,-3.0185,-3.0171,-3.0157,-3.0157,0.0,-3.0094,-3.0094,-3.0123,-3.0157,-3.0157,-3.0171,-3.0204,-3.0204,-3.0204,-3.0204,-3.0204,-3.0204,-3.0204,-3.0204,-3.0204,-3.0204,-3.0204,-3.0285,-3.0423,-3.0535,-3.0598,-3.0633,-3.0711,-3.0762,-3.0794,-3.4433,-3.3723,-3.2994,-3.2165,-3.1311,-3.1372,-3.1346,-3.1311,-3.1311,-3.1284,-3.1284,-3.1229,-3.1184,-3.1184,-3.1184,0.0,-3.1184,-3.1184,-3.1202,-3.1184,-3.1184,-3.1184,-3.1166,-3.1184,-3.1564,-3.2288,-3.2355,-3.2754,-3.3321,-3.2718,-3.2355,-3.227,-3.1546,-3.1148,-3.1129,-3.1818,-3.2216,-3.2306,-3.3031,-3.3393,-3.3393,-3.3393,-3.3393,-3.3375,-3.3393,-3.3393,-3.3357,-3.2687,-3.2267,-3.218,-3.1564,-3.0856,-3.0137,0.0,0.0,0.0,0.0,0.0,0.0,0.0,0.0,0.0,0.0,0.0,0.0,0.0,0.0,0.0,-3.0123,0.0,-3.0109,-3.0098,0.0,0.0,0.0,-3.0109,-3.019,-3.0123,-3.0109,-3.0171,0.0,0.0,-3.0189,0.0,-3.0299,-3.0381,-3.0266,-3.0171,-3.0171,-3.0142,-3.0094,-3.0075,-3.0094,-3.0094,-3.0109,-3.0138,-3.019,-3.0204,-3.0185,-3.0204,-3.0204,-3.0204,-3.0204,-3.0204,-3.0204,-3.0204,-3.0204,-3.0218,-3.026,-3.0463,-3.0509,-3.0548,-3.0711,-3.0763,-3.0771,-3.5465,-3.5235,-3.5054,-3.4207,-3.303,-3.304,-3.3022,-3.2994,-3.2956,-3.2946,-3.2928,-3.2842,-3.2832,-3.2832,-3.2832,-3.2832,-3.2832,-3.2832,-3.2832,-3.2832,-3.2814,-3.2832,-3.2832,-3.2832,-3.294,-3.3103,-3.3151,-3.323,-3.3393,-3.3241,-3.3132,-3.3103,-3.2922,-3.2524,-3.1926,-3.2107,-3.2488,-3.3103,-3.3302,-3.3393,-3.3393,-3.3393,-3.3393,-3.3393,-3.3393,-3.3393,-3.3393,-3.323,-3.2828,-3.2223,-3.2032,-3.1617,-3.0934,-3.0469,0.0,0.0,0.0,0.0,0.0,0.0,0.0,0.0,0.0,-2.9975,-3.0026,0.0,-3.0068,0.0,-3.0113,-3.0109,-3.019,-3.0142,0.0,0.0,-3.0068,-3.0038,-3.0034,-3.0019,-3.0003,-2.9988,-3.0592,-3.1026,-3.1026,-3.154,-3.1955,-3.1987,-3.0887,-3.0034,-3.0053,-3.0053,-3.0019,-3.0057,-3.0125,-3.0083,-3.0141,-3.0117,-3.017,-3.0128,-3.0142,-3.0138,-3.0204,-3.0204,-3.0204,-3.0204,-3.0204,-3.0204,-3.0242,-3.0204,-3.0272,-3.0344,-3.04,-3.0442,-3.0481,-3.0613,-3.0745,-3.6127,-3.5802,-3.5802,-3.5307,-3.4582,-3.4582,-3.4582,-3.4563,-3.4552,-3.4522,-3.454,-3.4461,-3.448,-3.448,-3.4461,-3.4461,-3.4461,-3.448,-3.448,-3.448,-3.448,-3.448,-3.448,-3.4461,-3.4461,-3.4461,-3.448,-3.428,-3.3954,-3.3936,-3.3737,-3.3393,-3.3393,-3.3176,-3.2759,-3.2741,-3.2958,-3.3375,-3.3393,-3.3393,-3.3393,-3.3393,-3.3393,-3.3393,-3.3393,-3.3393,-3.3393,-3.3393,-3.3201,-3.2762,-3.2777,-3.2433,-3.1715,-3.1122,-3.063,0.0,0.0,0.0,0.0,0.0,0.0,0.0,0.0,0.0,0.0,0.0,-3.0022,-3.0087,-3.0068,-3.0083,-3.0113,-3.0049,-3.0015,-3.0049,-3.0361,-3.0576,-3.0554,-3.0896,-3.1108,-3.1092,-3.1526,-3.183,-3.1849,-3.221,-3.2514,-3.2514,-3.1699,-3.1111,-3.1143,-3.1143,-3.1108,-3.1108,-3.1124,-3.1175,-3.121,-3.121,-3.121,-3.1207,-3.1222,-3.1222,-3.1272,-3.1272,-3.1272,-3.1268,-3.1283,-3.1283,-3.1298,-3.1312,-3.1322,-3.1358,-3.1398,-3.1155,-3.0586,-3.056,-3.0737,-3.7033,-3.6417,-3.6417,-3.6417,-3.6399,-3.6309,-3.6091,-3.5802,-3.5802,-3.5802,-3.5802,-3.5802,-3.5802,-3.5802,-3.5802,-3.5802,-3.5802,-3.5802,-3.5802,-3.5802,-3.5802,-3.5802,-3.5802,-3.5802,-3.5802,-3.5802,-3.5802,-3.5457,-3.4769,-3.4769,-3.4407,-3.3737,-3.3719,-3.3719,-3.3701,-3.361,-3.352,-3.3393,-3.3393,-3.3393,-3.3393,-3.3393,-3.3393,-3.3393,-3.3393,-3.3393,-3.3393,-3.3393,-3.3393,-3.3393,-3.3433,-3.3164,-3.2475,-3.1964,-3.1354,0.0,-3.0071,0.0,0.0,0.0,0.0,0.0,0.0,0.0,0.0,-2.9893,-3.0029,-3.019,-3.0193,-3.0197,-3.0326,-3.0278,-3.0262,-3.033,-3.0994,-3.145,-3.1483,-3.2074,-3.2514,-3.2566,-3.2626,-3.2648,-3.2648,-3.2741,-3.2783,-3.2841,-3.2804,-3.2765,-3.2835,-3.259,-3.2345,-3.2477,-3.2495,-3.2305,-3.2378,-3.2471,-3.249,-3.2526,-3.245,-3.2583,-3.2507,-3.2507,-3.2561,-3.2537,-3.2476,-3.2534,-3.2676,-3.2638,-3.2638,-3.2558,-3.2554,-3.2201,-3.1251,-3.0991,-3.1161,-3.9749,-3.9641,-3.9623,-3.9623,-3.9586,-3.8971,-3.7612,-3.5802,-3.5802,-3.5802,-3.5802,-3.5802,-3.5802,-3.5802,-3.5802,-3.5802,-3.5802,-3.5802,-3.5802,-3.5802,-3.5802,-3.5802,-3.5802,-3.5802,-3.5802,-3.5802,-3.5802,-3.5729,-3.5584,-3.5584,-3.5512,-3.5349,-3.5349,-3.5349,-3.5331,0.0,0.0,0.0,-3.3393,-3.3393,-3.3393,-3.3393,-3.3393,-3.3393,-3.3393,0.0,-3.3393,-3.3393,-3.3393,-3.3393,-3.3462,0.0,0.0,0.0,0.0,0.0,0.0,0.0,0.0,0.0,0.0,0.0,-3.1883,-3.1129,-2.9495,-2.9551,-2.9962,-3.0657,-3.0947,-3.1352,-3.2015,-3.2055,-3.2003,-3.2039,-3.2119,-3.2196,-3.2196,-3.2348,-3.2424,-3.2462,-3.305,-3.3486,-3.3505,-3.4017,-3.4415,-3.4339,-3.4415,-3.4434,-3.4415,-3.3296,-3.2481,-3.2424,-3.2557,-3.2481,-3.2443,-3.25,-3.2631,-3.2514,-3.2511,-3.2568,-3.2661,-3.2659,-3.2621,-3.2657,-3.2599,-3.2638,-3.2673,-3.2616,-3.2727,-3.2645,-3.2664,-3.2588,-3.2449,-3.2491,-3.2628,-4.051,0.0,-4.051,-4.051,0.0,-4.0111,-3.926,-3.8083,-3.7305,-3.6979,-3.6979,-3.6997,-3.6979,-3.6979,-3.6979,-3.6979,-3.6979,-3.6979,-3.6997,-3.6979,-3.6979,-3.6979,-3.6997,-3.6997,-3.6997,-3.6997,-3.6997,-3.6779,-3.6417,-3.6381,-3.6182,-3.582,-3.5802,-3.5802,-3.5802,-3.5403,-3.4606,-3.3411,-3.3393,-3.3393,-3.3393,-3.3393,-3.3393,-3.3393,0.0,0.0,0.0,0.0,0.0,0.0,0.0,0.0,0.0,0.0,0.0,-3.2464,-3.2046,-3.1885,-3.2066,-3.1895,-3.1899,-3.2195,-3.1885,-3.1411,-3.082,-3.0904,-3.1165,-3.1599,-3.1764,-3.2024,-3.2439,-3.2477,-3.2441,-3.246,-3.2822,-3.3032,-3.3089,-3.3392,-3.3619,-3.3657,-3.4017,-3.4301,-3.4301,-3.4605,-3.4889,-3.4908,-3.4908,-3.4908,-3.4851,-3.4207,-3.3638,-3.3638,-3.3638,-3.3657,-3.3638,-3.3638,-3.3638,-3.3693,-3.3674,-3.3693,-3.373,-3.373,-3.3748,-3.3785,-3.3785,-3.3802,-3.3819,-3.3819,-3.3836,-3.3834,-3.3834,-3.3898,-3.4011,-3.3518,-3.3095,-4.0926,-4.0926,-4.0944,-4.0926,-4.0926,-4.0782,-4.0637,-4.0437,0.0,0.0,0.0,-3.859,-3.8608,-3.8608,-3.859,-3.859,-3.8608,-3.8608,-3.8608,-3.859,-3.8464,-3.8409,-3.8409,-3.8246,-3.8192,-3.8192,-3.8192,-3.7848,-3.7247,-3.7196,-3.687,-3.6272,-3.6236,-3.6164,-3.6019,-3.6019,-3.5294,-3.3882,-3.3683,-3.361,-3.361,-3.3465,-3.3393,-3.3393,-3.3393,-3.3393,-3.3393,-3.3393,-3.3393,-3.3393,-3.3689,-3.3726,-3.3502,-3.3269,-3.3019,-3.2684,-3.2236,-3.2144,-3.262,-3.2114,-3.203,-3.2637,-3.2017,-3.1802,-3.2162,-3.2184,-3.2298,-3.2468,-3.2543,-3.2618,-3.2769,-3.2807,-3.2788,-3.2807,-3.3431,-3.3866,-3.3904,-3.4415,-3.4756,-3.4831,-3.4793,-3.4851,-3.487,-3.4889,-3.4908,-3.4908,-3.4908,-3.4908,-3.4908,-3.4832,-3.4737,-3.4737,-3.468,-3.4832,-3.487,-3.4813,-3.4908,-3.4775,-3.4813,-3.4908,-3.4908,-3.4908,-3.4927,-3.4831,-3.4964,-3.4925,-3.5019,-3.4943,-3.5075,-3.5075,-3.5094,-3.5126,-3.5113,-3.4251,-3.364,-4.2538,-4.2538,-4.2556,-4.2556,-4.2502,-4.1832,-4.1107,-4.0492,-4.0274,-4.0184,-4.0184,-4.0184,-4.0184,-4.0184,-4.0184,-4.0184,-4.0184,-4.0184,-4.0184,-4.0148,-3.9514,-3.9224,-3.9188,-3.8518,-3.8192,-3.8192,-3.821,-3.8138,-3.8029,-3.8011,-3.7957,-3.7848,-3.7866,-3.7504,-3.687,-3.6816,-3.6381,-3.5494,-3.4787,-3.4443,-3.4425,-3.3773,-3.3393,-3.3393,-3.3393,-3.3393,-3.3393,-3.3393,-3.3393,-3.3393,-3.3509,-3.3491,-3.3433,-3.3817,-3.3857,-3.3356,-3.3821,-3.399,-3.365,-3.39,-3.4261,-3.4484,-3.4261,-3.3297,-3.1386,-3.1372,-3.1866,-3.2806,-3.3095,-3.3498,-3.4156,-3.4233,-3.4216,-3.4252,-3.4402,-3.4457,-3.4461,-3.4574,-3.4668,-3.4668,-3.4666,-3.471,-3.4851,-3.4889,-3.4851,-3.4908,-3.4889,-3.4908,-3.4908,-3.4908,-3.4908,-3.4908,-3.4908,-3.4908,-3.4908,-3.4908,-3.4908,-3.4908,-3.4908,-3.4908,-3.4908,-3.4908,-3.4908,-3.4927,-3.4927,-3.4927,-3.4945,-3.4927,-3.4945,-3.5001,-3.502,-3.5056,-3.5124,-3.4819,-3.4837,-4.29,-4.29,-4.29,-4.29,-4.2864,-4.2502,-4.214,-4.1814,-4.1796,-4.1307,-4.0528,-4.051,-4.051,-4.051,-4.051,-4.051,-4.051,-4.051,-4.051,-4.0492,-4.0148,-3.9985,-3.9967,-3.9641,-3.946,-3.9405,-3.9025,-3.8844,-3.8808,-3.8409,-3.8192,-3.8192,-3.8192,-3.7993,-3.7667,-3.7649,-3.7468,-3.7087,-3.591,-3.5258,-3.524,-3.448,-3.4045,-3.4063,-3.3665,-3.3393,-3.3393,-3.3393,-3.3393,-3.3393,-3.3595,-3.3577,-3.3441,-3.3788,-3.3842,-3.3452,-3.3753,-3.3842,-3.3587,-3.3788,-3.3979,-3.4087,-3.4005,-3.3495,-3.2418,-3.2797,-3.3351,-3.3966,-3.4126,-3.4318,-3.4733,-3.4752,-3.4771,-3.4752,-3.4771,-3.4771,-3.4771,-3.4771,-3.4771,-3.4751,-3.4668,-3.4626,-3.473,-3.4607,-3.4588,-3.4691,-3.4792,-3.4908,-3.4908,-3.4908,-3.4908,-3.4908,-3.4908,-3.4908,-3.4908,-3.4908,-3.4908,-3.4908,-3.4908,-3.4908,-3.4908,-3.4908,-3.4908,-3.4908,-3.4908,-3.4908,-3.4908,-3.4908,-3.4927,-3.4927,-3.4945,-3.4964,-3.502,-3.5056,-3.5174,-4.2882,-4.288,-4.29,-4.29,-4.29,-4.29,-4.29,-4.29,-4.2882,-4.2194,-4.1144,-4.1053,-4.1053,-4.1053,-4.1053,-4.1053,-4.1053,-4.1053,-4.1053,-4.1035,-4.0854,-4.0782,-4.0745,-4.0619,-4.051,-4.0456,-3.9912,-3.9568,-3.9333,-3.8753,-3.8373,-3.821,-3.8192,-3.8192,-3.8192,-3.8192,-3.8192,-3.8119,-3.6979,-3.6254,-3.6073,-3.5294,-3.4896,-3.4824,-3.4099,-3.3683,-3.3665,-3.3502,-3.3393,-3.3393,-3.3605,-3.3605,-3.3422,-3.3661,-3.3671,-3.3452,-3.3452,-3.3491,-3.3509,-3.3509,-3.3538,-3.3577,-3.3538,-3.3538,-3.3633,-3.4074,-3.4476,-3.4649,-3.4572,-3.4612,-3.4609,-3.4693,-3.4732,-3.4672,-3.4772,-3.4772,-3.4752,-3.4792,-3.4812,-3.4811,-3.4708,-3.4602,-3.4561,-3.4454,-3.4454,-3.4586,-3.4691,-3.4752,-3.4812,-3.485,-3.4831,-3.4908,-3.4908,-3.4908,-3.4908,-3.4908,-3.4908,-3.4908,-3.4908,-3.4908,-3.4908,-3.4908,-3.4908,-3.4908,-3.4908,-3.4908,-3.4908,-3.4908,-3.4908,-3.4908,-3.4908,-3.4927,-3.4964,-3.502,-3.5108,-4.2862,-4.2822,-4.2862,-4.29,-4.29,-4.29,-4.29,-4.29,-4.29,-4.2828,-4.2592,-4.2665,-4.2611,-4.2665,-4.2611,-4.2592,-4.2611,-4.2665,-4.2611,-4.252,-4.1922,-4.1596,-4.1505,-4.089,-4.051,-4.0546,-4.0456,-4.0093,-3.955,-3.9315,-3.8898,-3.8282,-3.8192,-3.8192,-3.8192,-3.8192,-3.8192,-3.8192,-3.8047,-3.7612,-3.6902,-3.6109,-3.5711,-3.5693,-3.4932,-3.4498,-3.4443,-3.3791,-3.3393,-3.3393,-3.3422,-3.3422,-3.3441,-3.3643,-3.3671,-3.3404,-3.3615,-3.3734,-3.3753,-3.3762,-3.386,-3.4074,-3.3868,-3.3815,-3.4023,-3.3947,-3.3868,-3.3928,-3.3902,-3.3979,-3.3902,-3.4154,-3.4227,-3.408,-3.4442,-3.4539,-3.4437,-3.4495,-3.4626,-3.4645,-3.4789,-3.462,-3.4792,-3.4821,-3.4768,-3.4517,-3.4454,-3.4454,-3.4564,-3.4647,-3.471,-3.485,-3.4908,-3.4908,-3.4908,-3.4908,-3.4908,-3.4908,-3.4908,-3.4908,-3.4908,-3.4908,-3.4908,-3.4908,-3.4908,-3.4908,-3.4908,-3.4908,-3.4908,-3.4908,-3.4908,-3.4908,-3.4927,-3.4983,-3.5056,-4.2727,-4.2706,-4.2804,-4.2862,-4.29,-4.29,-4.29,-4.29,-4.29,-4.29,-4.29,-4.29,-4.29,-4.29,-4.29,-4.29,-4.29,-4.29,-4.29,-4.2864,-4.2538,-4.2411,-4.2357,-4.2085,-4.1922,-4.1868,-4.1452,-4.1089,-4.0655,-3.9858,-3.8971,-3.8282,-3.8192,-3.8192,-3.8192,-3.8192,-3.8192,-3.8192,-3.8192,-3.8029,-3.7649,-3.6924,-3.6508,-3.6417,-3.5729,-3.5077,-3.4643,-3.4262,-3.39,-3.3447,-3.3393,-3.3393,-3.3393,-3.3491,-3.352,-3.3422,-3.3509,-3.3577,-3.3577,-3.3549,-3.3605,-3.3726,-3.3633,-3.3587,-3.3698,-3.3615,-3.3577,-3.3605,-3.3842,-3.4049,-3.4042,-3.4142,-3.4148,-3.4129,-3.4649,-3.5038,-3.494,-3.5442,-3.5819,-3.596,-3.5871,-3.581,-3.5893,-3.5666,-3.5086,-3.4442,-3.4245,-3.4442,-3.4423,-3.4495,-3.4626,-3.471,-3.4831,-3.4908,-3.4908,-3.4908,-3.4908,-3.4908,-3.4908,-3.4908,-3.4908,-3.4908,-3.4908,-3.4908,-3.4908,-3.4908,-3.4908,-3.4908,-3.4908,-3.4908,-3.4908,-3.4908,-3.4908,-3.4927,-3.4964,-4.3216,-4.3216,-4.3376,-4.3493,-4.3534,-4.3552,-4.3552,-4.3552,-4.3552,-4.3552,-4.3552,-4.3552,-4.3552,-4.3498,-4.3118,-4.29,-4.29,-4.29,-4.29,-4.29,-4.29,-4.29,-4.29,-4.29,-4.29,-4.281,-4.2303,-4.1922,-4.156,-4.013,-3.9097,-3.8572,-3.8319,-3.8192,-3.8192,-3.8192,-3.8192,-3.8192,-3.8192,-3.8192,-3.8101,-3.7612,-3.7305,-3.7232,-3.6544,-3.5838,-3.5276,-3.4824,-3.4335,-3.3773,-3.3538,-3.3393,-3.3393,-3.3393,-3.3393,-3.3393,-3.3393,-3.3393,-3.3393,-3.3393,-3.3393,-3.3393,-3.3393,-3.3393,-3.3429,-3.361,-3.3719,-3.3785,-3.4284,-3.461,-3.4323,-3.4382,-3.4474,-3.4663,-3.5306,-3.5725,-3.5666,-3.6229,-3.6582,-3.6795,-3.6547,-3.6714,-3.6798,-3.6296,-3.5484,-3.5002,-3.4693,-3.4652,-3.45,-3.4484,-3.4386,-3.4495,-3.467,-3.4831,-3.4889,-3.4908,-3.4908,-3.4908,-3.4908,-3.4908,-3.4908,-3.4908,-3.4908,-3.4908,-3.4908,-3.4908,-3.4908,-3.4908,-3.4908,-3.4908,-3.4908,-3.4908,-3.4908,-3.4908,-3.4908,-4.4833,-4.4713,-4.4903,-4.4953,-4.5164,-4.5128,-4.5146,-4.5019,-4.511,-4.5146,-4.5073,-4.5091,-4.5146,-4.4983,-4.3661,-4.2918,-4.2918,-4.2918,-4.29,-4.29,-4.29,-4.29,-4.29,-4.29,-4.29,-4.29,-4.2792,-4.2393,-4.1669,-4.022,-3.9387,-3.9278,-3.8608,-3.8228,-3.8192,-3.8192,-3.8192,-3.8192,-3.8192,-3.8192,-3.8192,-3.8138,-3.8083,-3.7993,-3.7359,-3.692,-3.6653,-3.5403,-3.4606,-3.4534,-3.3846,-3.3429,-3.3411,-3.3393,-3.3393,-3.3393,-3.3393,-3.3393,-3.3393,-3.3393,-3.3393,-3.3393,-3.3465,-3.3429,-3.3556,-3.4172,-3.4534,-3.4552,-3.5193,-3.5333,-3.4872,-3.4906,-3.5162,-3.5606,-3.614,-3.6371,-3.6193,-3.6473,-3.6507,-3.6652,-3.6782,-3.6879,-3.698,-3.6306,-3.6233,-3.6125,-3.5487,-3.4794,-3.5058,-3.4507,-3.4164,-3.429,-3.4487,-3.4689,-3.485,-3.4908,-3.4908,-3.4908,-3.4908,-3.4908,-3.4908,-3.4908,-3.4908,-3.4908,-3.4908,-3.4908,-3.4908,-3.4908,-3.4908,-3.4908,-3.4908,-3.4908,-3.4908,-3.4908,-3.4908,-4.4771,-4.4814,-4.4881,-4.4964,-4.5106,-4.5152,-4.5152,-4.5192,-4.5251,-4.5291,-4.5291,-4.5291,-4.5291,-4.5273,-4.4711,-4.415,-4.3643,-4.3136,-4.29,-4.29,-4.29,-4.29,-4.29,-4.29,-4.29,-4.29,-4.29,-4.2484,-4.1741,-4.1126,-4.0347,-3.9496,-3.9115,-3.8735,-3.8301,-3.8192,-3.8192,-3.8192,-3.8192,-3.8192,-3.8192,-3.8192,-3.8192,-3.8192,-3.7902,-3.7504,-3.7011,-3.6417,-3.5675,-3.4661,-3.4335,-3.3936,-3.3465,-3.3393,-3.3393,-3.3393,-3.3393,-3.3393,-3.3393,-3.3393,-3.3393,-3.3429,-3.3882,-3.4172,-3.4317,-3.4896,-3.5367,-3.5457,-3.5602,-3.5802,-3.605,-3.5768,-3.5581,-3.5828,-3.6425,-3.6839,-3.6856,-3.7228,-3.7662,-3.7805,-3.8007,-3.7941,-3.7368,-3.7118,-3.6849,-3.6313,-3.5857,-3.5681,-3.5535,-3.5007,-3.4605,-3.4655,-3.4647,-3.4623,-3.4668,-3.4831,-3.4908,-3.4908,-3.4908,-3.4908,-3.4908,-3.4908,-3.4908,-3.4908,-3.4908,-3.4908,-3.4908,-3.4908,-3.4908,-3.4908,-3.4908,-3.4908,-3.4908,-3.4908,-3.4908,-4.5436,-4.5584,-4.5584,-4.5627,-4.5755,-4.5846,-4.5887,-4.5887,-4.6029,-4.6087,-4.6087,-4.6069,-4.6087,-4.6015,-4.5798,-4.5436,-4.4784,-4.3788,-4.3281,-4.3262,-4.3009,-4.29,-4.29,-4.29,-4.29,-4.29,-4.29,-4.2592,-4.2103,-4.1832,-4.1162,-4.022,-3.9677,-3.9152,-3.8627,-3.8337,-3.8192,-3.8192,-3.8192,-3.8192,-3.8192,-3.8192,-3.8192,-3.8192,-3.8192,-3.7938,-3.741,-3.7174,-3.6526,-3.5494,-3.4896,-3.4244,-3.352,-3.3393,-3.3393,-3.3393,-3.3393,-3.3393,-3.3447,-3.3647,-3.3791,-3.3828,-3.4516,-3.5005,-3.5059,-3.5729,-3.6127,-3.6218,-3.649,-3.6834,-3.7105,-3.6888,-3.658,-3.6616,-3.7051,-3.7377,-3.7395,-3.7848,-3.8216,-3.8355,-3.8505,-3.8327,-3.7948,-3.7897,-3.7581,-3.6876,-3.6668,-3.6364,-3.6273,-3.5709,-3.5268,-3.5206,-3.494,-3.487,-3.4866,-3.4908,-3.4906,-3.4888,-3.4908,-3.4908,-3.4908,-3.4908,-3.4908,-3.4908,-3.4908,-3.4908,-3.4908,-3.4908,-3.4908,-3.4908,-3.4908,-3.4908,-3.4908,-3.4908,-3.4908,-4.7017,-4.7071,-4.7178,-4.7062,-4.706,-4.7191,-4.7378,-4.7313,-4.747,-4.7404,-4.7391,-4.7572,-4.7446,-4.7446,-4.6794,-4.6486,-4.616,-4.4892,-4.4132,-4.3932,-4.3317,-4.2955,-4.29,-4.29,-4.29,-4.29,-4.29,-4.2882,-4.2755,-4.2176,-4.1723,-4.1379,-4.022,-3.955,-3.9333,-3.8663,-3.8246,-3.8192,-3.8192,-3.8192,-3.8192,-3.8192,-3.8192,-3.8192,-3.8192,-3.8174,-3.8101,-3.7464,-3.6997,-3.6707,-3.553,-3.4317,-3.3755,-3.3628,-3.352,-3.361,-3.352,-3.3484,-3.3592,-3.4226,-3.4624,-3.4715,-3.5349,-3.5802,-3.591,-3.6526,-3.6997,-3.7087,-3.7576,-3.8101,-3.8065,-3.7993,-3.7957,-3.8138,-3.8029,-3.8047,-3.8101,-3.8174,-3.8192,-3.8225,-3.8307,-3.8322,-3.8446,-3.8305,-3.8159,-3.8224,-3.7717,-3.7153,-3.7186,-3.6492,-3.5919,-3.5737,-3.552,-3.5291,-3.5144,-3.5021,-3.4948,-3.4887,-3.4908,-3.4908,-3.4908,-3.4908,-3.4908,-3.4908,-3.4908,-3.4908,-3.4908,-3.4908,-3.4908,-3.4908,-3.4908,-3.4908,-3.4908,-3.4908,-3.4908,-4.7043,-4.7043,-4.7025,-4.7088,-4.7116,-4.7205,-4.7294,-4.7363,-4.7511,-4.7615,-4.7699,-4.7699,-4.7699,-4.7663,-4.7428,-4.7319,-4.7228,-4.6214,-4.5182,-4.4222,-4.3842,-4.3407,-4.2991,-4.29,-4.29,-4.29,-4.29,-4.29,-4.2846,-4.2629,-4.2303,-4.1687,-4.1252,-4.0419,-3.9496,-3.9115,-3.879,-3.8246,-3.8192,-3.8192,-3.8192,-3.8192,-3.8192,-3.8192,-3.8192,-3.8192,-3.8174,-3.7938,-3.754,-3.7065,-3.6526,-3.5874,-3.5222,-3.5059,-3.5059,-3.5059,-3.5059,-3.5059,-3.5059,-3.5258,-3.5439,-3.5584,-3.6164,-3.6562,-3.6689,-3.7323,-3.7757,-3.7794,-3.8065,-3.8192,-3.8192,-3.8192,-3.8192,-3.8192,-3.8192,-3.8192,-3.8192,-3.8192,-3.8192,-3.8192,-3.8192,-3.8259,-3.8307,-3.8225,-3.8274,-3.8446,-3.8172,-3.8026,-3.7826,-3.7288,-3.6838,-3.664,-3.623,-3.5834,-3.5836,-3.5665,-3.5446,-3.5256,-3.5133,-3.4946,-3.4908,-3.4908,-3.4908,-3.4908,-3.4908,-3.4908,-3.4908,-3.4908,-3.4908,-3.4908,-3.4908,-3.4908,-3.4908,-3.4908,-3.4908,-4.6998,-4.6998,-4.6998,-4.6998,-4.698,-4.7133,-4.7223,-4.7294,-4.7425,-4.7554,-4.7615,-4.7657,-4.7699,-4.7699,-4.7699,-4.7699,-4.7663,-4.7174,-4.625,-4.5001,-4.4277,-4.3806,-4.3299,-4.3009,-4.29,-4.29,-4.29,-4.29,-4.29,-4.2882,-4.2629,-4.2194,-4.1868,-4.127,-4.0238,-3.9659,-3.9097,-3.8663,-3.8355,-3.8174,-3.814,-3.8174,-3.814,-3.8124,-3.8158,-3.8192,-3.8122,-3.8174,-3.7957,-3.7468,-3.716,-3.6616,-3.591,-3.5783,-3.5802,-3.5802,-3.5802,-3.5783,-3.5838,-3.6037,-3.6254,-3.6363,-3.6979,-3.7413,-3.7522,-3.7975,-3.8174,-3.8192,-3.8192,-3.8192,-3.8192,-3.8192,-3.8192,-3.8192,-3.8192,-3.8192,-3.8192,-3.8192,-3.8192,-3.8192,-3.8192,-3.8192,-3.8192,-3.8192,-3.8192,-3.8207,-3.8354,-3.8433,-3.8183,-3.7899,-3.7635,-3.733,-3.6867,-3.6656,-3.6622,-3.637,-3.6025,-3.5724,-3.5469,-3.5134,-3.4908,-3.4908,-3.4908,-3.4908,-3.4908,-3.4908,-3.4908,-3.4908,-3.4908,-3.4908,-3.4908,-3.4908,-3.4908,-3.4908,-3.4908,-4.6998,-4.6998,-4.6998,-4.6998,-4.698,-4.7133,-4.7196,-4.7241,-4.7399,-4.7468,-4.7529,-4.7615,-4.7699,-4.7717,-4.7699,-4.7699,-4.7699,-4.7645,-4.7228,-4.625,-4.5182,-4.4295,-4.3914,-4.3244,-4.29,-4.29,-4.29,-4.29,-4.29,-4.29,-4.29,-4.2737,-4.2176,-4.1741,-4.1325,-4.022,-3.9568,-3.9224,-3.8645,-3.8267,-3.8054,-3.8106,-3.809,-3.7934,-3.809,-3.8106,-3.8036,-3.8122,-3.8192,-3.8065,-3.7468,-3.687,-3.6164,-3.5946,-3.6109,-3.6164,-3.6001,-3.6091,-3.6182,-3.6707,-3.7051,-3.7105,-3.7649,-3.8192,-3.8119,-3.8119,-3.8192,-3.8192,-3.8192,-3.8192,-3.8192,-3.8192,-3.8192,-3.8192,-3.8192,-3.8192,-3.8192,-3.8192,-3.8192,-3.8192,-3.8192,-3.8192,-3.8192,-3.8192,-3.8192,-3.8225,-3.8241,-3.8307,-3.8223,-3.8129,-3.8186,-3.7878,-3.7406,-3.7326,-3.7296,-3.6883,-3.6554,-3.644,-3.61,-3.5679,-3.5154,-3.5059,-3.4908,-3.4908,-3.4908,-3.4908,-3.4908,-3.4908,-3.4908,-3.4908,-3.4908,-3.4908,-3.4908,-3.4908,-3.4908,-4.6998,-4.6998,-4.6998,-4.6998,-4.698,-4.7025,-4.7088,-4.7196,-4.7267,-4.7356,-4.7468,-4.7554,-4.7615,-4.7717,-4.7699,-4.7699,-4.7699,-4.7699,-4.7645,-4.7265,-4.6395,-4.5146,-4.4132,-4.3299,-4.29,-4.29,-4.29,-4.29,-4.29,-4.29,-4.29,-4.29,-4.2665,-4.2248,-4.1687,-4.127,-4.0474,-3.955,-3.9137,-3.8614,-3.8092,-3.8021,-3.7934,-3.7917,-3.7934,-3.8003,-3.7984,-3.8122,-3.8192,-3.8192,-3.8011,-3.7794,-3.7486,-3.7449,-3.7413,-3.7413,-3.7486,-3.7522,-3.7558,-3.7703,-3.7848,-3.7866,-3.8011,-3.8192,-3.8192,-3.8192,-3.8192,-3.8192,-3.8192,-3.8192,-3.8192,-3.8192,-3.8192,-3.8192,-3.8192,-3.8192,-3.8192,-3.8192,-3.8192,-3.8192,-3.8192,-3.8192,-3.8192,-3.8192,-3.8192,-3.8207,-3.8322,-3.8387,-3.8274,-3.8322,-3.8336,-3.8241,-3.7954,-3.7969,-3.7831,-3.74,-3.7169,-3.7146,-3.6863,-3.6462,-3.5889,-3.5382,-3.5116,-3.4908,-3.4908,-3.4908,-3.4908,-3.4908,-3.4908,-3.4908,-3.4908,-3.4908,-3.4908,-3.4908,-3.4908,-4.6998,-4.6998,-4.6998,-4.6998,-4.6998,-4.6998,-4.7043,-4.7151,-4.7196,-4.7267,-4.7399,-4.7486,-4.7554,-4.7615,-4.7675,-4.7699,-4.7699,-4.7699,-4.7699,-4.7572,-4.683,-4.558,-4.4313,-4.3552,-4.3226,-4.29,-4.29,-4.29,-4.29,-4.29,-4.29,-4.29,-4.29,-4.2629,-4.2266,-4.1777,-4.1288,-4.042,-3.995,-3.9283,-3.8456,-3.8384,-3.8115,-3.7936,-3.7828,-3.7916,-3.7985,-3.8038,-3.8106,-3.8122,-3.8104,-3.8088,-3.8088,-3.8088,-3.8122,-3.814,-3.814,-3.8104,-3.8192,-3.814,-3.8122,-3.8156,-3.8138,-3.8138,-3.8174,-3.814,-3.8088,-3.8122,-3.8088,-3.8106,-3.8122,-3.8122,-3.8106,-3.8072,-3.8072,-3.8124,-3.8192,-3.8192,-3.8192,-3.8192,-3.8192,-3.8192,-3.8192,-3.8192,-3.8192,-3.8225,-3.8289,-3.8307,-3.8241,-3.8368,-3.8401,-3.8274,-3.8192,-3.8135,-3.8099,-3.779,-3.7766,-3.7768,-3.7625,-3.723,-3.6587,-3.5874,-3.542,-3.5173,-3.5022,-3.4908,-3.4908,-3.4908,-3.4908,-3.4908,-3.4908,-3.4908,-3.4908,-3.4908,-3.4908,-4.6934,-4.6998,-4.6998,-4.6998,-4.6998,-4.6934,-4.6934,-4.698,-4.687,-4.698,-4.707,-4.7276,-4.7302,-4.7425,-4.7425,-4.7597,-4.7657,-4.745,-4.7425,-4.727,-4.6813,-4.5902,-4.4552,-4.4093,-4.3679,-4.319,-4.2991,-4.29,-4.2862,-4.2862,-4.2862,-4.2862,-4.2862,-4.2862,-4.2589,-4.2119,-4.1738,-4.134,-4.078,-3.9984,-3.9246,-3.9084,-3.8706,-3.8025,-3.7811,-3.7864,-3.7864,-3.7899,-3.7933,-3.7962,-3.8,-3.7967,-3.7933,-3.7967,-3.8002,-3.8002,-3.802,-3.8054,-3.814,-3.8054,-3.8054,-3.8106,-3.8032,-3.8032,-3.807,-3.802,-3.7949,-3.8002,-3.7934,-3.7969,-3.7985,-3.8002,-3.7985,-3.7934,-3.7917,-3.8021,-3.8124,-3.8192,-3.8158,-3.814,-3.8158,-3.8158,-3.8192,-3.8174,-3.8192,-3.8192,-3.8274,-3.8241,-3.8225,-3.8274,-3.8307,-3.8259,-3.8192,-3.8192,-3.8192,-3.8153,-3.83,-3.8401,-3.8312,-3.7971,-3.7249,-3.6576,-3.595,-3.5571,-3.5495,-3.523,-3.4908,-3.4908,-3.4984,-3.4908,-3.4908,-3.4908,-3.4908,-3.4908,-3.4908,-4.6637,-4.6998,-4.6998,-4.6998,-4.6952,-4.659,-4.659,-4.6888,-4.6084,-4.6067,-4.6424,-4.6548,-4.666,-4.6863,-4.6908,-4.7214,-4.745,-4.6908,-4.6472,-4.6531,-4.7237,-4.6632,-4.539,-4.4561,-4.3999,-4.3638,-4.3075,-4.284,-4.2822,-4.2727,-4.2727,-4.2822,-4.2727,-4.2688,-4.2616,-4.2454,-4.2037,-4.153,-4.1205,-4.0717,-4.0014,-3.9741,-3.9363,-3.8576,-3.8061,-3.7775,-3.7775,-3.7864,-3.7863,-3.7826,-3.7862,-3.7899,-3.7882,-3.7899,-3.7916,-3.7916,-3.7916,-3.7916,-3.7969,-3.7916,-3.7934,-3.7969,-3.7964,-3.7943,-3.7969,-3.7934,-3.7881,-3.7934,-3.7899,-3.7899,-3.7881,-3.7916,-3.7881,-3.7864,-3.7864,-3.7899,-3.7934,-3.7969,-3.8003,-3.7969,-3.7969,-3.8003,-3.8054,-3.807,-3.8088,-3.8192,-3.8192,-3.8192,-3.8192,-3.8192,-3.8192,-3.8192,-3.8192,-3.8192,-3.8192,-3.8225,-3.8354,-3.8554,-3.8561,-3.8618,-3.7924,-3.7482,-3.6931,-3.6422,-3.6026,-3.5723,-3.5495,-3.5192,-3.5306,-3.5116,-3.4965,-3.4984,-3.5003,-3.4965,-3.4908,-4.5953,-4.62,-4.62,-4.62,-4.6151,-4.5885,-4.5953,-4.6052,-4.5614,-4.5511,-4.58,-4.5918,-4.6017,-4.6165,-4.6196,-4.6454,-4.666,-4.631,-4.5968,-4.6049,-4.6531,-4.6475,-4.6104,-4.5158,-4.4486,-4.4003,-4.3538,-4.312,-4.2814,-4.2667,-4.2649,-4.2706,-4.2609,-4.2609,-4.2609,-4.2609,-4.2372,-4.2063,-4.188,-4.1465,-4.0706,-4.0506,-4.011,-3.9343,-3.8631,-3.8221,-3.8257,-3.7864,-3.7739,-3.7685,-3.7721,-3.7757,-3.7793,-3.7793,-3.781,-3.781,-3.7792,-3.7846,-3.7864,-3.7846,-3.7828,-3.7899,-3.7843,-3.7826,-3.7828,-3.7828,-3.7775,-3.7775,-3.7775,-3.7757,-3.7739,-3.781,-3.7775,-3.7757,-3.7757,-3.7793,-3.7793,-3.7881,-3.7951,-3.7951,-3.7951,-3.802,-3.8036,-3.8002,-3.807,-3.8174,-3.8192,-3.8192,-3.8192,-3.8192,-3.8192,-3.8192,-3.8192,-3.8192,-3.8192,-3.8225,-3.8274,-3.8446,-3.8536,-3.8702,-3.8532,-3.8273,-3.8058,-3.7442,-3.6765,-3.667,-3.6443,-3.6083,-3.5761,-3.5704,-3.5571,-3.5325,-3.5097,-3.504,-3.4965,-4.5197,-4.5303,-4.5303,-4.5303,-4.5303,-4.5197,-4.5267,-4.5303,-4.5091,-4.5001,-4.5214,-4.5303,-4.5355,-4.539,-4.5511,-4.5614,-4.5665,-4.585,-4.5767,-4.5407,-4.5767,-4.5915,-4.5866,-4.5446,-4.4938,-4.4204,-4.3814,-4.3342,-4.2929,-4.2624,-4.2548,-4.257,-4.2552,-4.253,-4.253,-4.257,-4.2454,-4.236,-4.2302,-4.2047,-4.1453,-4.127,-4.0877,-4.0128,-3.9379,-3.8986,-3.8843,-3.8488,-3.806,-3.7953,-3.7845,-3.7809,-3.7756,-3.7667,-3.7667,-3.7685,-3.7667,-3.7721,-3.7775,-3.7775,-3.7721,-3.7828,-3.7739,-3.7739,-3.7775,-3.7739,-3.7774,-3.7953,-3.8078,-3.8185,-3.7988,-3.8203,-3.8168,-3.8042,-3.7933,-3.7773,-3.7792,-3.7918,-3.7898,-3.7898,-3.7863,-3.7916,-3.7985,-3.802,-3.8106,-3.814,-3.8192,-3.8192,-3.8192,-3.8192,-3.8158,-3.8158,-3.8158,-3.8192,-3.8192,-3.8225,-3.8274,-3.8401,-3.8523,-3.8704,-3.8924,-3.8915,-3.861,-3.8066,-3.76,-3.7485,-3.7277,-3.6898,-3.6613,-3.6462,-3.6272,-3.6102,-3.5685,-3.5192,-3.5116,-4.491,-4.5303,-4.5303,-4.5303,-4.5197,-4.4855,-4.4838,-4.5091,-4.4316,-4.4219,-4.4597,-4.4652,-4.4674,-4.4749,-4.4838,-4.4691,-4.4746,-4.5161,-4.5144,-4.4746,-4.5108,-4.5494,-4.5286,-4.5337,-4.518,-4.4809,-4.4217,-4.3644,-4.3309,-4.2785,-4.2606,-4.2521,-4.2409,-4.2369,-4.2369,-4.2351,-4.2369,-4.2387,-4.2346,-4.2185,-4.2037,-4.193,-4.1663,-4.0895,-4.0146,-3.9789,-3.9718,-3.9593,-3.9508,-3.9444,-3.892,-3.865,-3.8491,-3.806,-3.7774,-3.7613,-3.7613,-3.7649,-3.7667,-3.7721,-3.7649,-3.7649,-3.7792,-3.7774,-3.7774,-3.7756,-3.8131,-3.8576,-3.9058,-3.9432,-3.9521,-3.931,-3.9432,-3.9343,-3.895,-3.8611,-3.8524,-3.8294,-3.7954,-3.7918,-3.7847,-3.7775,-3.7881,-3.7969,-3.7985,-3.8072,-3.8124,-3.8124,-3.8124,-3.8106,-3.8088,-3.8088,-3.8088,-3.814,-3.8192,-3.8225,-3.8274,-3.8401,-3.8523,-3.867,-3.8934,-3.9268,-3.9086,-3.865,-3.8376,-3.8224,-3.7978,-3.7732,-3.7425,-3.7215,-3.7065,-3.6936,-3.6384,-3.5833,-3.5608,-4.4145,-4.4412,-4.4412,-4.4412,-4.4356,-4.4162,-4.4162,-4.4299,-4.3848,-4.373,-4.3948,-4.4006,-4.4047,-4.4088,-4.4088,-4.4006,-4.4121,-4.439,-4.4373,-4.408,-4.4356,-4.4729,-4.4652,-4.4892,-4.5113,-4.5,-4.4589,-4.4201,-4.406,-4.3346,-4.3007,-4.2864,-4.2596,-4.2287,-4.2287,-4.2328,-4.2287,-4.2287,-4.2287,-4.2287,-4.2287,-4.2287,-4.2019,-4.1627,-4.0985,-4.0592,-4.0449,-4.0057,-3.9899,-3.9797,-3.9542,-3.9417,-3.9238,-3.8953,-3.8397,-3.7809,-3.7648,-3.7612,-3.7719,-3.7916,-3.8237,-3.8272,-3.8504,-3.8772,-3.879,-3.8897,-3.895,-3.9307,-3.9557,-3.9896,-3.9843,-3.995,-3.9896,-3.986,-3.9593,-3.9432,-3.9289,-3.9006,-3.8649,-3.8238,-3.7989,-3.7936,-3.7864,-3.7899,-3.7916,-3.7969,-3.8056,-3.8056,-3.8072,-3.802,-3.7967,-3.802,-3.8072,-3.814,-3.8174,-3.8225,-3.8225,-3.8336,-3.8478,-3.8597,-3.8847,-3.9109,-3.9414,-3.9372,-3.9169,-3.8883,-3.9058,-3.8904,-3.8464,-3.7961,-3.7785,-3.7498,-3.6974,-3.6524,-3.6321,-4.3645,-4.3645,-4.3645,-4.3645,-4.3645,-4.3645,-4.3628,-4.3645,-4.3628,-4.3628,-4.3645,-4.3628,-4.3628,-4.3645,-4.3628,-4.3628,-4.3628,-4.3805,-4.3805,-4.3687,-4.3671,-4.3964,-4.4162,-4.4373,-4.4529,-4.4955,-4.4854,-4.4834,-4.4573,-4.4003,-4.3786,-4.3536,-4.2929,-4.2537,-4.2608,-4.2412,-4.2358,-4.2287,-4.2287,-4.2287,-4.2287,-4.2287,-4.2287,-4.2269,-4.1663,-4.1341,-4.1288,-4.0895,-4.061,-4.0485,-4.0307,-4.0164,-4.0107,-3.9964,-3.9325,-3.8308,-3.8058,-3.8058,-3.8255,-3.8611,-3.9004,-3.904,-3.9557,-3.9789,-3.9914,-3.9843,-4.011,-4.0164,-4.0414,-4.0521,-4.0628,-4.0467,-4.0467,-4.0431,-4.036,-4.0146,-4.0092,-3.9843,-3.9432,-3.8988,-3.84,-3.8115,-3.8026,-3.781,-3.7828,-3.7899,-3.7987,-3.7987,-3.7969,-3.7881,-3.7863,-3.7934,-3.8003,-3.8106,-3.8174,-3.8192,-3.8225,-3.8241,-3.8322,-3.8382,-3.8658,-3.8915,-3.92,-3.9458,-3.9588,-3.9377,-3.9747,-3.9781,-3.91,-3.8587,-3.8439,-3.8034,-3.7435,-3.7211,-3.7096,-4.3645,-4.3645,-4.3645,-4.3645,-4.3645,-4.3645,-4.3645,-4.3645,-4.3645,-4.3645,-4.3645,-4.3645,-4.3645,-4.3645,-4.3645,-4.3645,-4.3645,-4.3628,-4.3628,-4.3645,-4.3628,-4.3628,-4.373,-4.373,-4.4105,-4.4524,-4.4589,-4.4733,-4.4822,-4.4591,-4.4474,-4.4296,-4.3786,-4.3322,-4.3161,-4.2715,-4.2305,-4.2287,-4.2287,-4.2287,-4.2287,-4.2287,-4.2287,-4.2251,-4.2162,-4.2037,-4.2002,-4.177,-4.177,-4.1752,-4.1252,-4.1016,-4.0864,-4.0285,-3.9929,-3.9682,-3.9629,-3.9629,-3.9521,-3.9664,-3.9789,-3.9807,-4.0039,-3.9932,-4.0271,-4.0681,-4.0967,-4.1002,-4.1484,-4.1752,-4.1698,-4.1877,-4.1966,-4.1663,-4.1252,-4.1038,-4.0913,-4.0753,-4.0342,-3.995,-3.947,-3.8686,-3.8222,-3.7954,-3.7739,-3.781,-3.7917,-3.7882,-3.7864,-3.7775,-3.7757,-3.7846,-3.7969,-3.8072,-3.814,-3.8192,-3.8192,-3.8192,-3.8225,-3.8256,-3.8566,-3.8857,-3.8971,-3.9231,-3.9414,-3.9508,-3.9433,-3.9371,-3.9264,-3.901,-3.8662,-3.8274,-3.7865,-3.7772,-3.7772,-4.3645,-4.3645,-4.3645,-4.3645,-4.3645,-4.3645,-4.3645,-4.3645,-4.3645,-4.3645,-4.3645,-4.3645,-4.3645,-4.3645,-4.3645,-4.3645,-4.3645,-4.3645,-4.3645,-4.3645,-4.3645,-4.3645,-4.3645,-4.3628,-4.3789,-4.4006,-4.4373,-4.479,-4.4937,-4.4987,-4.4936,-4.5134,-4.4535,-4.3839,-4.3697,-4.3197,-4.2715,-4.2448,-4.2287,-4.2287,-4.2287,-4.2287,-4.2287,-4.2287,-4.2287,-4.2287,-4.2287,-4.2287,-4.2287,-4.2234,-4.1877,-4.1805,-4.1747,-4.1462,-4.127,-4.127,-4.1252,-4.0824,-4.011,-4.0378,-4.0521,-4.0756,-4.0913,-4.1306,-4.1341,-4.1484,-4.1734,-4.1787,-4.2073,-4.2269,-4.2287,-4.2287,-4.2287,-4.2144,-4.1877,-4.1823,-4.1645,-4.1538,-4.1288,-4.0913,-4.0521,-3.981,-3.9115,-3.8722,-3.8454,-3.8222,-3.8079,-3.7829,-3.7757,-3.7667,-3.7685,-3.7757,-3.7881,-3.8003,-3.8072,-3.814,-3.8192,-3.8192,-3.8192,-3.8322,-3.8628,-3.8828,-3.8915,-3.9027,-3.9216,-3.9216,-3.91,-3.9054,-3.9044,-3.8924,-3.877,-3.8409,-3.8114,-3.8235,-3.8257,-4.3645,-4.3645,-4.3645,-4.3645,-4.3645,-4.3645,-4.3645,-4.3645,-4.3645,-4.3645,-4.3645,-4.3645,-4.3645,-4.3645,-4.3645,-4.3645,-4.3645,-4.3645,-4.3645,-4.3645,-4.3645,-4.3645,-4.3645,-4.3628,-4.3628,-4.3645,-4.4006,-4.449,-4.4866,-4.4991,-4.5194,-4.6007,-4.5302,-4.4732,-4.4178,-4.3607,-4.3054,-4.2341,-4.2287,-4.2287,-4.2287,-4.2287,-4.2287,-4.2287,-4.2287,-4.2287,-4.2287,-4.2287,-4.2287,-4.2269,-4.2251,-4.218,-4.2162,-4.2109,-4.2055,-4.2055,-4.2037,-4.168,-4.1127,-4.1109,-4.1346,-4.1578,-4.181,-4.2055,-4.2144,-4.2287,-4.2269,-4.218,-4.2234,-4.2287,-4.2287,-4.2287,-4.2287,-4.2287,-4.2216,-4.2269,-4.2251,-4.2002,-4.1877,-4.1645,-4.1341,-4.1181,-4.0485,-3.9825,-3.9325,-3.8808,-3.8344,-3.7898,-3.7756,-3.772,-3.7757,-3.7882,-3.8005,-3.8092,-3.8178,-3.8194,-3.8228,-3.8228,-3.8228,-3.8274,-3.8541,-3.8688,-3.8759,-3.8886,-3.9027,-3.8943,-3.8818,-3.8847,-3.8847,-3.8628,-3.851,-3.851,-3.8418,-3.8541,-3.8651,-4.3645,-4.3645,-4.3645,-4.3645,-4.3645,-4.3645,-4.3645,-4.3645,-4.3645,-4.3645,-4.3645,-4.3645,-4.3645,-4.3645,-4.3645,-4.3645,-4.3645,-4.3645,-4.3645,-4.3645,-4.3645,-4.3645,-4.3645,-4.3645,-4.3645,-4.3645,-4.3789,-4.4105,-4.4468,-4.4698,-4.5509,-4.6564,-4.5899,-4.574,-4.5088,-4.4089,-4.3144,-4.2465,-4.2287,-4.2287,-4.2287,-4.2287,-4.2287,-4.2287,-4.2287,-4.2287,-4.2287,-4.2287,-4.2287,-4.2287,-4.2287,-4.2287,-4.2287,-4.2287,-4.2287,-4.2287,-4.2287,-4.2055,-4.1895,-4.1859,-4.2091,-4.2198,-4.2251,-4.2287,-4.2287,-4.2287,-4.2287,-4.2287,-4.2287,-4.2287,-4.2287,-4.2287,-4.2287,-4.2287,-4.2287,-4.2287,-4.2287,-4.2269,-4.2162,-4.2198,-4.2055,-4.1787,-4.1645,-4.0931,-4.0182,-3.9646,-3.904,-3.8576,-3.806,-3.7971,-3.799,-3.8061,-3.8164,-3.8251,-3.8303,-3.8391,-3.8536,-3.8445,-3.8337,-3.8298,-3.8322,-3.8465,-3.8585,-3.8658,-3.8748,-3.8658,-3.8566,-3.8597,-3.8523,-3.8354,-3.8241,-3.8322,-3.8368,-3.8433,-3.8615,-4.3645,-4.3645,-4.3645,-4.3645,-4.3645,-4.3645,-4.3645,-4.3645,-4.3645,-4.3645,-4.3645,-4.3645,-4.3645,-4.3645,-4.3645,-4.3645,-4.3645,-4.3645,-4.3645,-4.3645,-4.3645,-4.3645,-4.3645,-4.3645,-4.3645,-4.3645,-4.3628,-4.3889,-4.4446,-4.4446,-4.5284,-4.5961,-4.6088,-4.5968,-4.5365,-4.4392,-4.3233,-4.2537,-4.2305,-4.2287,-4.2287,-4.2287,-4.2287,-4.2287,-4.2287,-4.2287,-4.2287,-4.2287,-4.2287,-4.2287,-4.2287,-4.2287,-4.2287,-4.2287,-4.2287,-4.2287,-4.2287,-4.2287,-4.2287,-4.2287,-4.2287,-4.2287,-4.2287,-4.2287,-4.2287,-4.2287,-4.2287,-4.2287,-4.2287,-4.2287,-4.2287,-4.2287,-4.2287,-4.2287,-4.2287,-4.2287,-4.2287,-4.2287,-4.2287,-4.2251,-4.2269,-4.2162,-4.2073,-4.1948,-4.1199,-4.0485,-3.986,-3.9254,-3.8738,-3.8418,-3.8491,-3.86,-3.8689,-3.9047,-3.9155,-3.9063,-3.8934,-3.8717,-3.8518,-3.8422,-3.8347,-3.8241,-3.8354,-3.8433,-3.8496,-3.8433,-3.8368,-3.8368,-3.8289,-3.8225,-3.8192,-3.8225,-3.8274,-3.8322,-3.8446,-4.3645,-4.3645,-4.3645,-4.3645,-4.3645,-4.3645,-4.3645,-4.3645,-4.3645,-4.3645,-4.3645,-4.3645,-4.3645,-4.3645,-4.3645,-4.3645,-4.3645,-4.3645,-4.3645,-4.3645,-4.3645,-4.3645,-4.3645,-4.3645,-4.3645,-4.3645,-4.3628,-4.3906,-4.4446,-4.4333,-4.491,-4.558,-4.5935,-4.5927,-4.5909,-4.465,-4.3471,-4.2822,-4.2376,-4.2305,-4.2287,-4.2287,-4.2287,-4.2287,-4.2287,-4.2287,-4.2287,-4.2287,-4.2287,-4.2287,-4.2287,-4.2287,-4.2287,-4.2287,-4.2287,-4.2287,-4.2287,-4.2287,-4.2287,-4.2287,-4.2287,-4.2287,-4.2287,-4.2287,-4.2287,-4.2287,-4.2287,-4.2287,-4.2287,-4.2287,-4.2287,-4.2287,-4.2287,-4.2287,-4.2287,-4.2287,-4.2287,-4.2287,-4.2287,-4.2287,-4.2287,-4.2287,-4.2251,-4.2126,-4.1645,-4.0877,-4.0128,-3.9664,-3.9379,-3.9167,-3.926,-3.9335,-3.939,-3.9806,-4.0167,-3.9914,-3.957,-3.9115,-3.8914,-3.8601,-3.8456,-3.835,-3.8225,-3.8322,-3.8322,-3.8225,-3.8225,-3.8274,-3.8241,-3.8225,-3.8192,-3.8192,-3.8225,-3.8241,-3.8259,-4.3645,-4.3645,-4.3645,-4.3645,-4.3645,-4.3645,-4.3645,-4.3645,-4.3645,-4.3645,-4.3645,-4.3645,-4.3645,-4.3645,-4.3645,-4.3645,-4.3645,-4.3645,-4.3645,-4.3645,-4.3645,-4.3645,-4.3645,-4.3645,-4.3645,-4.3645,-4.3628,-4.3889,-4.439,-4.4121,-4.4524,-4.5161,-4.5614,-4.5912,-4.6684,-4.5354,-4.4228,-4.3447,-4.268,-4.2358,-4.2287,-4.2287,-4.2287,-4.2287,-4.2287,-4.2287,-4.2287,-4.2287,-4.2287,-4.2287,-4.2287,-4.2287,-4.2287,-4.2287,-4.2287,-4.2287,-4.2287,-4.2287,-4.2287,-4.2287,-4.2287,-4.2287,-4.2287,-4.2287,-4.2287,-4.2287,-4.2287,-4.2287,-4.2287,-4.2287,-4.2287,-4.2287,-4.2287,-4.2287,-4.2287,-4.2287,-4.2287,-4.2287,-4.2287,-4.2287,-4.2287,-4.2287,-4.2287,-4.218,-4.1841,-4.1217,-4.0414,-4.0039,-3.995,-3.9953,-4.0027,-4.0123,-4.0199,-4.0634,-4.0925,-4.06,-4.0221,-3.9714,-3.9277,-3.8948,-3.8585,-3.837,-3.8298,-3.8259,-3.8207,-3.8192,-3.8192,-3.8225,-3.8192,-3.8192,-3.8192,-3.8192,-3.8192,-3.8192,-3.8192,-4.3645,-4.3645,-4.3645,-4.3645,-4.3645,-4.3645,-4.3645,-4.3645,-4.3645,-4.3645,-4.3645,-4.3645,-4.3645,-4.3645,-4.3645,-4.3645,-4.3645,-4.3645,-4.3645,-4.3645,-4.3645,-4.3645,-4.3645,-4.3645,-4.3645,-4.3645,-4.3628,-4.3671,-4.3889,-4.3889,-4.4524,-4.5197,-4.5494,-4.5967,-4.5871,-4.5078,-4.4214,-4.35,-4.2769,-4.2287,-4.2287,-4.2287,-4.2287,-4.2287,-4.2287,-4.2287,-4.2287,-4.2287,-4.2287,-4.2287,-4.2287,-4.2287,-4.2287,-4.2287,-4.2287,-4.2287,-4.2287,-4.2287,-4.2287,-4.2287,-4.2287,-4.2287,-4.2287,-4.2287,-4.2287,-4.2287,-4.2287,-4.2287,-4.2287,-4.2287,-4.2287,-4.2287,-4.2287,-4.2287,-4.2287,-4.2287,-4.2287,-4.2287,-4.2287,-4.2287,-4.2287,-4.2287,-4.2287,-4.2287,-4.2019,-4.193,-4.1288,-4.0931,-4.0806,-4.0735,-4.0796,-4.0912,-4.1081,-4.1501,-4.1629,-4.1358,-4.1124,-4.0745,-4.0003,-3.9295,-3.895,-3.8572,-3.8301,-3.8262,-3.8244,-3.8192,-3.8192,-3.8192,-3.8192,-3.8192,-3.8192,-3.8192,-3.8192,-3.8192,-3.8192,-4.3645,-4.3645,-4.3645,-4.3645,-4.3645,-4.3645,-4.3645,-4.3645,-4.3645,-4.3645,-4.3645,-4.3645,-4.3645,-4.3645,-4.3645,-4.3645,-4.3645,-4.3645,-4.3645,-4.3645,-4.3645,-4.3645,-4.3645,-4.3645,-4.3645,-4.3645,-4.3628,-4.3687,-4.4006,-4.4121,-4.4429,-4.4892,-4.539,-4.5299,-4.5075,-4.4534,-4.4236,-4.3604,-4.3072,-4.2287,-4.2287,-4.2287,-4.2287,-4.2287,-4.2287,-4.2287,-4.2287,-4.2287,-4.2287,-4.2287,-4.2287,-4.2287,-4.2287,-4.2287,-4.2287,-4.2287,-4.2287,-4.2287,-4.2287,-4.2287,-4.2287,-4.2287,-4.2287,-4.2287,-4.2287,-4.2287,-4.2287,-4.2287,-4.2287,-4.2287,-4.2287,-4.2287,-4.2287,-4.2287,-4.2287,-4.2287,-4.2287,-4.2287,-4.2287,-4.2287,-4.2287,-4.2287,-4.2287,-4.2287,-4.2198,-4.2234,-4.2216,-4.1895,-4.1573,-4.1524,-4.1493,-4.1611,-4.1746,-4.2039,-4.2242,-4.2208,-4.1957,-4.1722,-4.0926,-4.0003,-3.9297,-3.8952,-3.8608,-3.8264,-3.8228,-3.8192,-3.8192,-3.8192,-3.8192,-3.8192,-3.8192,-3.8192,-3.8192,-3.8192,-3.8192,-4.3595,-4.3628,-4.3645,-4.3645,-4.3645,-4.3645,-4.3645,-4.3645,-4.3645,-4.3645,-4.3645,-4.3645,-4.3645,-4.3645,-4.3645,-4.3645,-4.3645,-4.3645,-4.3645,-4.3645,-4.3645,-4.3645,-4.3645,-4.3645,-4.3645,-4.3645,-4.3628,-4.3789,-4.4276,-4.4179,-4.4219,-4.4395,-4.4593,-4.4471,-4.4248,-4.3781,-4.3733,-4.3465,-4.2729,-4.2108,-4.2061,-4.2044,-4.2019,-4.1959,-4.2002,-4.2044,-4.2086,-4.2145,-4.2246,-4.2287,-4.2287,-4.2287,-4.2287,-4.2287,-4.2287,-4.2287,-4.2287,-4.2287,-4.2287,-4.2287,-4.2287,-4.2287,-4.2287,-4.2287,-4.2287,-4.2287,-4.2287,-4.2287,-4.2287,-4.2287,-4.2287,-4.2287,-4.2287,-4.2287,-4.2287,-4.2287,-4.2287,-4.2287,-4.2287,-4.2287,-4.2287,-4.2287,-4.2287,-4.2287,-4.2287,-4.2328,-4.2328,-4.2274,-4.2042,-4.2136,-4.2163,-4.2261,-4.2375,-4.2544,-4.2619,-4.2625,-4.2481,-4.2194,-4.1741,-4.0908,-4.0166,-3.9405,-3.8989,-3.8645,-3.8319,-3.8192,-3.8192,-3.8192,-3.8192,-3.8192,-3.8192,-3.8192,-3.8192,-3.8192,-3.8225,-4.3148,-4.3611,-4.3645,-4.3645,-4.3645,-4.3645,-4.3645,-4.3645,-4.3645,-4.3645,-4.3645,-4.3645,-4.3645,-4.3645,-4.3645,-4.3645,-4.3645,-4.3645,-4.3645,-4.3645,-4.3645,-4.3645,-4.3645,-4.3645,-4.3645,-4.3645,-4.3628,-4.373,-4.3889,-4.3889,-4.4128,-4.4468,-4.3872,-4.3647,-4.318,-4.2484,-4.2736,-4.2689,-4.1883,-4.1692,-4.1578,-4.149,-4.1418,-4.1356,-4.1356,-4.149,-4.1727,-4.1813,-4.1917,-4.2246,-4.2287,-4.2287,-4.2287,-4.2287,-4.2287,-4.2287,-4.2287,-4.2287,-4.2287,-4.2287,-4.2287,-4.2287,-4.2287,-4.2287,-4.2287,-4.2287,-4.2287,-4.2287,-4.2287,-4.2287,-4.2287,-4.2287,-4.2287,-4.2287,-4.2287,-4.2287,-4.2287,-4.2287,-4.2287,-4.2287,-4.2287,-4.2287,-4.2287,-4.2287,-4.2287,-4.2328,-4.2328,-4.2328,-4.2387,-4.2486,-4.2526,-4.2606,-4.2706,-4.2765,-4.2786,-4.281,-4.2755,-4.2592,-4.2158,-4.1705,-4.1053,-4.0293,-3.955,-3.8971,-3.8536,-3.8301,-3.8192,-3.8192,-3.8192,-3.8192,-3.8192,-3.8192,-3.8192,-3.8192,-3.8192,-4.2336,-4.2767,-4.3081,-4.3346,-4.3611,-4.3645,-4.3645,-4.3645,-4.3645,-4.3645,-4.3645,-4.3645,-4.3645,-4.3645,-4.3645,-4.3645,-4.3645,-4.3645,-4.3645,-4.3645,-4.3645,-4.3645,-4.3645,-4.3645,-4.3645,-4.3645,-4.3645,-4.3628,-4.3647,-4.3539,-4.3652,-4.3568,-4.297,-4.2517,-4.198,-4.1415,-4.1206,-4.1312,-4.1155,-4.1024,-4.0972,-4.0943,-4.0849,-4.0754,-4.0754,-4.1036,-4.1401,-4.1428,-4.177,-4.2187,-4.2287,-4.2287,-4.2287,-4.2287,-4.2287,-4.2287,-4.2287,-4.2287,-4.2287,-4.2287,-4.2287,-4.2287,-4.2287,-4.2287,-4.2287,-4.2287,-4.2287,-4.2287,-4.2287,-4.2287,-4.2287,-4.2287,-4.2287,-4.2287,-4.2287,-4.2287,-4.2287,-4.2287,-4.2287,-4.2287,-4.2287,-4.2287,-4.2287,-4.2287,-4.2287,-4.2287,-4.2328,-4.2387,-4.2468,-4.2606,-4.2588,-4.2609,-4.2765,-4.2842,-4.29,-4.29,-4.2846,-4.2774,-4.2611,-4.2176,-4.1723,-4.1144,-4.0347,-3.9496,-3.8681,-3.8445,-3.8228,-3.821,-3.8192,-3.8192,-3.8192,-3.8192,-3.8192,-3.8192,-3.8192,-4.1375,-4.1508,-4.2137,-4.2767,-4.3396,-4.3346,-4.3363,-4.3403,-4.333,-4.3512,-4.3578,-4.3645,-4.3645,-4.3645,-4.3645,-4.3645,-4.3645,-4.3645,-4.3645,-4.3628,-4.3645,-4.3645,-4.3645,-4.3645,-4.3645,-4.3645,-4.3595,-4.3529,-4.328,-4.2966,-4.2575,-4.2369,-4.1747,-4.1272,-4.0878,-4.0479,-4.0316,-4.0223,-4.047,-4.0514,-4.0659,-4.0707,-4.0707,-4.0611,-4.0659,-4.0802,-4.1139,-4.1428,-4.1622,-4.1959,-4.2145,-4.2061,-4.2145,-4.2145,-4.2187,-4.2246,-4.2246,-4.2187,-4.2187,-4.2187,-4.2287,-4.2287,-4.2287,-4.2287,-4.2287,-4.2287,-4.2287,-4.2287,-4.2287,-4.2287,-4.2287,-4.2287,-4.2287,-4.2287,-4.2287,-4.2287,-4.2287,-4.2287,-4.2287,-4.2287,-4.2287,-4.2287,-4.2287,-4.2287,-4.2287,-4.2287,-4.2346,-4.2387,-4.2468,-4.2627,-4.2667,-4.2688,-4.2786,-4.2862,-4.29,-4.29,-4.29,-4.2846,-4.2792,-4.2629,-4.2176,-4.1651,-4.1126,-4.0039,-3.8916,-3.85,-3.8264,-3.8228,-3.8192,-3.8192,-3.8192,-3.8192,-3.8192,-3.8192,-3.8192,-4.0945,-4.1409,-4.1607,-4.1789,-4.1939,-4.1939,-4.1972,-4.1939,-4.1939,-4.2601,-4.3462,-4.3595,-4.3562,-4.3446,-4.3429,-4.3429,-4.3479,-4.3313,-4.3595,-4.3562,-4.3545,-4.3479,-4.3578,-4.3495,-4.3529,-4.3645,-4.3562,-4.3181,-4.2717,-4.2121,-4.1657,-4.1591,-4.0978,-4.0431,-4.0266,-3.9934,-3.9648,-3.9609,-3.9713,-3.9986,-4.017,-3.9833,-3.9661,-3.9713,-3.9764,-4.0037,-4.0302,-4.0431,-4.0737,-4.1036,-4.1128,-4.1311,-4.1666,-4.1666,-4.1709,-4.177,-4.2103,-4.2103,-4.2044,-4.2145,-4.2287,-4.2287,-4.2287,-4.2287,-4.2287,-4.2287,-4.2287,-4.2287,-4.2287,-4.2287,-4.2287,-4.2287,-4.2287,-4.2287,-4.2287,-4.2287,-4.2287,-4.2287,-4.2287,-4.2287,-4.2287,-4.2287,-4.2287,-4.2287,-4.2287,-4.2346,-4.2405,-4.2445,-4.2468,-4.2588,-4.2706,-4.2727,-4.2824,-4.2882,-4.29,-4.29,-4.29,-4.29,-4.2846,-4.2719,-4.2556,-4.1959,-4.127,-4.0148,-3.9188,-3.8826,-3.8482,-3.8228,-3.8192,-3.8192,-3.8192,-3.8192,-3.8192,-3.8192,-3.8192,-4.0117,-4.0481,-4.0829,-4.1127,-4.1392,-4.1425,-4.1425,-4.1425,-4.1425,-4.1872,-4.2551,-4.2651,-4.2651,-4.2667,-4.2651,-4.2734,-4.2717,-4.2618,-4.2783,-4.2999,-4.3131,-4.3098,-4.3131,-4.3115,-4.275,-4.2767,-4.2651,-4.2303,-4.1955,-4.1375,-4.0928,-4.0845,-4.0299,-3.9972,-3.9868,-3.9471,-3.9288,-3.9325,-3.9288,-3.9468,-3.9731,-3.9468,-3.9325,-3.9288,-3.9379,-3.9609,-3.9833,-4.0053,-4.0351,-4.0659,-4.0849,-4.0943,-4.122,-4.1428,-4.1516,-4.1666,-4.1899,-4.2187,-4.2002,-4.2061,-4.2287,-4.2287,-4.2287,-4.2287,-4.2287,-4.2287,-4.2287,-4.2287,-4.2287,-4.2287,-4.2287,-4.2287,-4.2287,-4.2287,-4.2287,-4.2287,-4.2287,-4.2287,-4.2287,-4.2287,-4.2287,-4.2287,-4.2287,-4.2287,-4.2328,-4.2405,-4.2503,-4.2526,-4.2548,-4.2588,-4.2706,-4.2804,-4.2862,-4.2882,-4.29,-4.29,-4.29,-4.29,-4.29,-4.2828,-4.2665,-4.2085,-4.1343,-4.0564,-3.984,-3.9224,-3.888,-3.8464,-3.8228,-3.8192,-3.8192,-3.8192,-3.8192,-3.8192,-3.8192,-3.9322,-3.9441,-3.9984,-4.0564,-4.1077,-4.1127,-4.1094,-4.1077,-4.111,-4.1094,-4.1127,-4.1143,-4.1193,-4.1392,-4.1425,-4.1425,-4.1541,-4.1806,-4.2038,-4.2253,-4.2369,-4.2386,-4.2369,-4.2336,-4.2071,-4.174,-4.1524,-4.1442,-4.1259,-4.063,-4.0183,-4.01,-3.9752,-3.9305,-3.9288,-3.9288,-3.9288,-3.9288,-3.9288,-3.9288,-3.9325,-3.9288,-3.9288,-3.9288,-3.9325,-3.9556,-3.9782,-3.9969,-4.0203,-4.0319,-4.0466,-4.0659,-4.0896,-4.1157,-4.1383,-4.1578,-4.1984,-4.2145,-4.2145,-4.2145,-4.2287,-4.2287,-4.2287,-4.2287,-4.2287,-4.2287,-4.2287,-4.2287,-4.2287,-4.2287,-4.2287,-4.2287,-4.2287,-4.2287,-4.2287,-4.2287,-4.2287,-4.2287,-4.2287,-4.2287,-4.2287,-4.2287,-4.2287,-4.2287,-4.2346,-4.2463,-4.2544,-4.2566,-4.2588,-4.2667,-4.2745,-4.2804,-4.288,-4.29,-4.29,-4.29,-4.29,-4.29,-4.29,-4.29,-4.2792,-4.2393,-4.1959,-4.1452,-4.0727,-3.9822,-3.9115,-3.8627,-3.8427,-3.821,-3.8192,-3.8192,-3.8192,-3.8192,-3.8192,-3.9288,-3.9288,-3.9437,-3.9603,-3.9702,-3.9719,-3.9686,-3.9686,-3.9736,-3.9686,-3.9802,-3.9818,-4.0216,-4.1409,-4.1425,-4.1326,-4.1061,-4.1177,-4.1359,-4.1624,-4.164,-4.1624,-4.1574,-4.1475,-4.1524,-4.121,-4.0796,-4.0597,-4.0514,-3.9918,-3.9504,-3.952,-3.9504,-3.9288,-3.9288,-3.9288,-3.9288,-3.9288,-3.9288,-3.9288,-3.9288,-3.9288,-3.9288,-3.9288,-3.9342,-3.9379,-3.9415,-3.9415,-3.952,-3.9556,-3.9696,-4.0137,-4.0563,-4.0943,-4.1157,-4.1578,-4.2002,-4.2044,-4.2086,-4.2187,-4.2228,-4.2287,-4.2287,-4.2287,-4.2287,-4.2287,-4.2287,-4.2287,-4.2287,-4.2287,-4.2287,-4.2287,-4.2287,-4.2287,-4.2287,-4.2287,-4.2287,-4.2287,-4.2287,-4.2287,-4.2287,-4.2287,-4.2287,-4.2328,-4.2387,-4.2445,-4.2486,-4.2548,-4.2649,-4.2727,-4.2783,-4.2842,-4.288,-4.29,-4.29,-4.29,-4.29,-4.29,-4.29,-4.29,-4.29,-4.2882,-4.2466,-4.1977,-4.1126,-4.0166,-3.9514,-3.888,-3.8427,-3.8192,-3.8192,-3.8192,-3.8192,-3.8192,-3.8192]}]]